<?xml version="1.0" encoding="UTF-8" standalone="no" ?>
<gpx xmlns="http://www.topografix.com/GPX/1/1" xmlns:xsi="http://www.w3.org/2001/XMLSchema-instance" xsi:schemaLocation="http://www.topografix.com/GPX/1/1 http://www.topografix.com/GPX/1/1/gpx.xsd" version="1.1" creator="VisuGPX - https://www.visugpx.com">
  <metadata>
    <name>Bornay essia Courbette</name>
    <desc><![CDATA[sortie club commune 15 bornes]]></desc>
  </metadata>
  <trk>
    <name><![CDATA[Bornay essia Courbette_1]]></name>
    <trkseg>
      <trkpt lat="46.60241" lon="5.56015">
        <ele>582</ele>
      </trkpt>
      <trkpt lat="46.6018" lon="5.56002">
        <ele>581.9</ele>
      </trkpt>
      <trkpt lat="46.60075" lon="5.55944">
        <ele>569.9</ele>
      </trkpt>
      <trkpt lat="46.59887" lon="5.55823">
        <ele>526.8</ele>
      </trkpt>
      <trkpt lat="46.59775" lon="5.55802">
        <ele>503.2</ele>
      </trkpt>
      <trkpt lat="46.59713" lon="5.55901">
        <ele>501.8</ele>
      </trkpt>
      <trkpt lat="46.59569" lon="5.56004">
        <ele>513.6</ele>
      </trkpt>
      <trkpt lat="46.59544" lon="5.55802">
        <ele>550.8</ele>
      </trkpt>
      <trkpt lat="46.59327" lon="5.55832">
        <ele>574</ele>
      </trkpt>
      <trkpt lat="46.5927" lon="5.56262">
        <ele>570.2</ele>
      </trkpt>
      <trkpt lat="46.59168" lon="5.56213">
        <ele>571.9</ele>
      </trkpt>
      <trkpt lat="46.59085" lon="5.56202">
        <ele>581.2</ele>
      </trkpt>
      <trkpt lat="46.58969" lon="5.56217">
        <ele>598</ele>
      </trkpt>
      <trkpt lat="46.58778" lon="5.56183">
        <ele>603.1</ele>
      </trkpt>
      <trkpt lat="46.58765" lon="5.56154">
        <ele>593.2</ele>
      </trkpt>
      <trkpt lat="46.58761" lon="5.56149">
        <ele>596.6</ele>
        <time>2021-11-20T12:14:23Z</time>
      </trkpt>
      <trkpt lat="46.5876" lon="5.56149">
        <ele>596.6</ele>
        <time>2021-11-20T12:14:24Z</time>
      </trkpt>
      <trkpt lat="46.5876" lon="5.56148">
        <ele>596.6</ele>
        <time>2021-11-20T12:14:25Z</time>
      </trkpt>
      <trkpt lat="46.58759" lon="5.56148">
        <ele>596.6</ele>
        <time>2021-11-20T12:14:26Z</time>
      </trkpt>
      <trkpt lat="46.58759" lon="5.56147">
        <ele>596.6</ele>
        <time>2021-11-20T12:14:27Z</time>
      </trkpt>
      <trkpt lat="46.58758" lon="5.56147">
        <ele>596.6</ele>
        <time>2021-11-20T12:14:28Z</time>
      </trkpt>
      <trkpt lat="46.58757" lon="5.56146">
        <ele>596.6</ele>
        <time>2021-11-20T12:14:29Z</time>
      </trkpt>
      <trkpt lat="46.58757" lon="5.56146">
        <ele>596.6</ele>
        <time>2021-11-20T12:14:30Z</time>
      </trkpt>
      <trkpt lat="46.58756" lon="5.56145">
        <ele>596.6</ele>
        <time>2021-11-20T12:14:31Z</time>
      </trkpt>
      <trkpt lat="46.58756" lon="5.56145">
        <ele>596.6</ele>
        <time>2021-11-20T12:14:32Z</time>
      </trkpt>
      <trkpt lat="46.58755" lon="5.56144">
        <ele>596.6</ele>
        <time>2021-11-20T12:14:33Z</time>
      </trkpt>
      <trkpt lat="46.58755" lon="5.56144">
        <ele>596.6</ele>
        <time>2021-11-20T12:14:34Z</time>
      </trkpt>
      <trkpt lat="46.58754" lon="5.56143">
        <ele>596.6</ele>
        <time>2021-11-20T12:14:35Z</time>
      </trkpt>
      <trkpt lat="46.58754" lon="5.56143">
        <ele>596.6</ele>
        <time>2021-11-20T12:14:36Z</time>
      </trkpt>
      <trkpt lat="46.58753" lon="5.56142">
        <ele>596.6</ele>
        <time>2021-11-20T12:14:37Z</time>
      </trkpt>
      <trkpt lat="46.58753" lon="5.56142">
        <ele>596.6</ele>
        <time>2021-11-20T12:14:38Z</time>
      </trkpt>
      <trkpt lat="46.58752" lon="5.56141">
        <ele>596.6</ele>
        <time>2021-11-20T12:14:39Z</time>
      </trkpt>
      <trkpt lat="46.58752" lon="5.56141">
        <ele>596.6</ele>
        <time>2021-11-20T12:14:40Z</time>
      </trkpt>
      <trkpt lat="46.58751" lon="5.5614">
        <ele>596.6</ele>
        <time>2021-11-20T12:14:41Z</time>
      </trkpt>
      <trkpt lat="46.5875" lon="5.5614">
        <ele>596.6</ele>
        <time>2021-11-20T12:14:42Z</time>
      </trkpt>
      <trkpt lat="46.5875" lon="5.56139">
        <ele>596.6</ele>
        <time>2021-11-20T12:14:43Z</time>
      </trkpt>
      <trkpt lat="46.58749" lon="5.56139">
        <ele>596.6</ele>
        <time>2021-11-20T12:14:44Z</time>
      </trkpt>
      <trkpt lat="46.58749" lon="5.56138">
        <ele>596.6</ele>
        <time>2021-11-20T12:14:45Z</time>
      </trkpt>
      <trkpt lat="46.58748" lon="5.56138">
        <ele>596.6</ele>
        <time>2021-11-20T12:14:46Z</time>
      </trkpt>
      <trkpt lat="46.58748" lon="5.56137">
        <ele>596.6</ele>
        <time>2021-11-20T12:14:47Z</time>
      </trkpt>
      <trkpt lat="46.58747" lon="5.56137">
        <ele>596.6</ele>
        <time>2021-11-20T12:14:48Z</time>
      </trkpt>
      <trkpt lat="46.58747" lon="5.56136">
        <ele>596.6</ele>
        <time>2021-11-20T12:14:49Z</time>
      </trkpt>
      <trkpt lat="46.58746" lon="5.56136">
        <ele>596.6</ele>
        <time>2021-11-20T12:14:50Z</time>
      </trkpt>
      <trkpt lat="46.58746" lon="5.56135">
        <ele>596.6</ele>
        <time>2021-11-20T12:14:51Z</time>
      </trkpt>
      <trkpt lat="46.58745" lon="5.56135">
        <ele>596.6</ele>
        <time>2021-11-20T12:14:52Z</time>
      </trkpt>
      <trkpt lat="46.58744" lon="5.56135">
        <ele>596.6</ele>
        <time>2021-11-20T12:14:53Z</time>
      </trkpt>
      <trkpt lat="46.58744" lon="5.56134">
        <ele>596.6</ele>
        <time>2021-11-20T12:14:54Z</time>
      </trkpt>
      <trkpt lat="46.58743" lon="5.56134">
        <ele>596.6</ele>
        <time>2021-11-20T12:14:55Z</time>
      </trkpt>
      <trkpt lat="46.58743" lon="5.56133">
        <ele>596.6</ele>
        <time>2021-11-20T12:14:56Z</time>
      </trkpt>
      <trkpt lat="46.58742" lon="5.56133">
        <ele>596.6</ele>
        <time>2021-11-20T12:14:57Z</time>
      </trkpt>
      <trkpt lat="46.58742" lon="5.56132">
        <ele>596.6</ele>
        <time>2021-11-20T12:14:58Z</time>
      </trkpt>
      <trkpt lat="46.58741" lon="5.56132">
        <ele>596.6</ele>
        <time>2021-11-20T12:14:59Z</time>
      </trkpt>
      <trkpt lat="46.58741" lon="5.56131">
        <ele>596.6</ele>
        <time>2021-11-20T12:15:00Z</time>
      </trkpt>
      <trkpt lat="46.5874" lon="5.56131">
        <ele>596.6</ele>
        <time>2021-11-20T12:15:01Z</time>
      </trkpt>
      <trkpt lat="46.5874" lon="5.5613">
        <ele>596.6</ele>
        <time>2021-11-20T12:15:02Z</time>
      </trkpt>
      <trkpt lat="46.58739" lon="5.5613">
        <ele>596.6</ele>
        <time>2021-11-20T12:15:03Z</time>
      </trkpt>
      <trkpt lat="46.58738" lon="5.56129">
        <ele>596.6</ele>
        <time>2021-11-20T12:15:04Z</time>
      </trkpt>
      <trkpt lat="46.58738" lon="5.56129">
        <ele>596.6</ele>
        <time>2021-11-20T12:15:05Z</time>
      </trkpt>
      <trkpt lat="46.58737" lon="5.56128">
        <ele>596.6</ele>
        <time>2021-11-20T12:15:06Z</time>
      </trkpt>
      <trkpt lat="46.58737" lon="5.56128">
        <ele>596.6</ele>
        <time>2021-11-20T12:15:07Z</time>
      </trkpt>
      <trkpt lat="46.58736" lon="5.56127">
        <ele>596.6</ele>
        <time>2021-11-20T12:15:08Z</time>
      </trkpt>
      <trkpt lat="46.58736" lon="5.56127">
        <ele>596.6</ele>
        <time>2021-11-20T12:15:09Z</time>
      </trkpt>
      <trkpt lat="46.58735" lon="5.56126">
        <ele>596.6</ele>
        <time>2021-11-20T12:15:10Z</time>
      </trkpt>
      <trkpt lat="46.58735" lon="5.56126">
        <ele>596.6</ele>
        <time>2021-11-20T12:15:11Z</time>
      </trkpt>
      <trkpt lat="46.58734" lon="5.56125">
        <ele>596.6</ele>
        <time>2021-11-20T12:15:12Z</time>
      </trkpt>
      <trkpt lat="46.58734" lon="5.56125">
        <ele>596.6</ele>
        <time>2021-11-20T12:15:13Z</time>
      </trkpt>
      <trkpt lat="46.58733" lon="5.56124">
        <ele>596.6</ele>
        <time>2021-11-20T12:15:14Z</time>
      </trkpt>
      <trkpt lat="46.58732" lon="5.56124">
        <ele>596.6</ele>
        <time>2021-11-20T12:15:15Z</time>
      </trkpt>
      <trkpt lat="46.58732" lon="5.56123">
        <ele>596.6</ele>
        <time>2021-11-20T12:15:16Z</time>
      </trkpt>
      <trkpt lat="46.58731" lon="5.56123">
        <ele>596.6</ele>
        <time>2021-11-20T12:15:17Z</time>
      </trkpt>
      <trkpt lat="46.58731" lon="5.56122">
        <ele>596.6</ele>
        <time>2021-11-20T12:15:18Z</time>
      </trkpt>
      <trkpt lat="46.5873" lon="5.56122">
        <ele>606.2</ele>
        <time>2021-11-20T12:15:19Z</time>
      </trkpt>
      <trkpt lat="46.5873" lon="5.56122">
        <ele>606.2</ele>
        <time>2021-11-20T12:15:20Z</time>
      </trkpt>
      <trkpt lat="46.5873" lon="5.56122">
        <ele>606.2</ele>
        <time>2021-11-20T12:15:21Z</time>
      </trkpt>
      <trkpt lat="46.5873" lon="5.56122">
        <ele>606.2</ele>
        <time>2021-11-20T12:15:22Z</time>
      </trkpt>
      <trkpt lat="46.5873" lon="5.56122">
        <ele>606.2</ele>
        <time>2021-11-20T12:15:23Z</time>
      </trkpt>
      <trkpt lat="46.5873" lon="5.56122">
        <ele>606.2</ele>
        <time>2021-11-20T12:15:24Z</time>
      </trkpt>
      <trkpt lat="46.5873" lon="5.56122">
        <ele>606.2</ele>
        <time>2021-11-20T12:15:25Z</time>
      </trkpt>
      <trkpt lat="46.5873" lon="5.56122">
        <ele>606.2</ele>
        <time>2021-11-20T12:15:26Z</time>
      </trkpt>
      <trkpt lat="46.5873" lon="5.56122">
        <ele>606.2</ele>
        <time>2021-11-20T12:15:27Z</time>
      </trkpt>
      <trkpt lat="46.5873" lon="5.56122">
        <ele>606.2</ele>
        <time>2021-11-20T12:15:28Z</time>
      </trkpt>
      <trkpt lat="46.5873" lon="5.56122">
        <ele>606.2</ele>
        <time>2021-11-20T12:15:29Z</time>
      </trkpt>
      <trkpt lat="46.5873" lon="5.56122">
        <ele>606.2</ele>
        <time>2021-11-20T12:15:30Z</time>
      </trkpt>
      <trkpt lat="46.5873" lon="5.56122">
        <ele>606.2</ele>
        <time>2021-11-20T12:15:31Z</time>
      </trkpt>
      <trkpt lat="46.5873" lon="5.56122">
        <ele>606.2</ele>
        <time>2021-11-20T12:15:32Z</time>
      </trkpt>
      <trkpt lat="46.5873" lon="5.56122">
        <ele>606.2</ele>
        <time>2021-11-20T12:15:33Z</time>
      </trkpt>
      <trkpt lat="46.5873" lon="5.56122">
        <ele>606.2</ele>
        <time>2021-11-20T12:15:34Z</time>
      </trkpt>
      <trkpt lat="46.5873" lon="5.56122">
        <ele>606.2</ele>
        <time>2021-11-20T12:15:35Z</time>
      </trkpt>
      <trkpt lat="46.5873" lon="5.56122">
        <ele>606.2</ele>
        <time>2021-11-20T12:15:36Z</time>
      </trkpt>
      <trkpt lat="46.5873" lon="5.56122">
        <ele>606.2</ele>
        <time>2021-11-20T12:15:37Z</time>
      </trkpt>
      <trkpt lat="46.5873" lon="5.56122">
        <ele>606.2</ele>
        <time>2021-11-20T12:15:38Z</time>
      </trkpt>
      <trkpt lat="46.5873" lon="5.56122">
        <ele>606.2</ele>
        <time>2021-11-20T12:15:39Z</time>
      </trkpt>
      <trkpt lat="46.5873" lon="5.56122">
        <ele>606.2</ele>
        <time>2021-11-20T12:15:40Z</time>
      </trkpt>
      <trkpt lat="46.5873" lon="5.56122">
        <ele>606.2</ele>
        <time>2021-11-20T12:15:41Z</time>
      </trkpt>
      <trkpt lat="46.5873" lon="5.56122">
        <ele>606.2</ele>
        <time>2021-11-20T12:15:42Z</time>
      </trkpt>
      <trkpt lat="46.5873" lon="5.56122">
        <ele>606.2</ele>
        <time>2021-11-20T12:15:43Z</time>
      </trkpt>
      <trkpt lat="46.5873" lon="5.56122">
        <ele>606.2</ele>
        <time>2021-11-20T12:15:44Z</time>
      </trkpt>
      <trkpt lat="46.5873" lon="5.56122">
        <ele>606.2</ele>
        <time>2021-11-20T12:15:45Z</time>
      </trkpt>
      <trkpt lat="46.5873" lon="5.56122">
        <ele>606.2</ele>
        <time>2021-11-20T12:15:46Z</time>
      </trkpt>
      <trkpt lat="46.5873" lon="5.56122">
        <ele>606.2</ele>
        <time>2021-11-20T12:15:47Z</time>
      </trkpt>
      <trkpt lat="46.5873" lon="5.56122">
        <ele>606.2</ele>
        <time>2021-11-20T12:15:48Z</time>
      </trkpt>
      <trkpt lat="46.5873" lon="5.56122">
        <ele>606.2</ele>
        <time>2021-11-20T12:15:49Z</time>
      </trkpt>
      <trkpt lat="46.5873" lon="5.56122">
        <ele>606.2</ele>
        <time>2021-11-20T12:15:50Z</time>
      </trkpt>
      <trkpt lat="46.5873" lon="5.56122">
        <ele>606.2</ele>
        <time>2021-11-20T12:15:51Z</time>
      </trkpt>
      <trkpt lat="46.5873" lon="5.56122">
        <ele>606.2</ele>
        <time>2021-11-20T12:15:52Z</time>
      </trkpt>
      <trkpt lat="46.5873" lon="5.56122">
        <ele>606.2</ele>
        <time>2021-11-20T12:15:53Z</time>
      </trkpt>
      <trkpt lat="46.5873" lon="5.56122">
        <ele>606.2</ele>
        <time>2021-11-20T12:15:54Z</time>
      </trkpt>
      <trkpt lat="46.5873" lon="5.56122">
        <ele>606.2</ele>
        <time>2021-11-20T12:15:55Z</time>
      </trkpt>
      <trkpt lat="46.5873" lon="5.56122">
        <ele>606.2</ele>
        <time>2021-11-20T12:15:56Z</time>
      </trkpt>
      <trkpt lat="46.5873" lon="5.56122">
        <ele>606.2</ele>
        <time>2021-11-20T12:15:57Z</time>
      </trkpt>
      <trkpt lat="46.5873" lon="5.56122">
        <ele>606.2</ele>
        <time>2021-11-20T12:15:58Z</time>
      </trkpt>
      <trkpt lat="46.5873" lon="5.56122">
        <ele>606.2</ele>
        <time>2021-11-20T12:15:59Z</time>
      </trkpt>
      <trkpt lat="46.5873" lon="5.56122">
        <ele>606.2</ele>
        <time>2021-11-20T12:16:00Z</time>
      </trkpt>
      <trkpt lat="46.5873" lon="5.56122">
        <ele>606.2</ele>
        <time>2021-11-20T12:16:01Z</time>
      </trkpt>
      <trkpt lat="46.5873" lon="5.56122">
        <ele>606.2</ele>
        <time>2021-11-20T12:16:02Z</time>
      </trkpt>
      <trkpt lat="46.5873" lon="5.56122">
        <ele>606.2</ele>
        <time>2021-11-20T12:16:03Z</time>
      </trkpt>
      <trkpt lat="46.5873" lon="5.56122">
        <ele>606.2</ele>
        <time>2021-11-20T12:16:04Z</time>
      </trkpt>
      <trkpt lat="46.5873" lon="5.56122">
        <ele>606.2</ele>
        <time>2021-11-20T12:16:05Z</time>
      </trkpt>
      <trkpt lat="46.5873" lon="5.56122">
        <ele>606.2</ele>
        <time>2021-11-20T12:16:06Z</time>
      </trkpt>
      <trkpt lat="46.5873" lon="5.56122">
        <ele>606.2</ele>
        <time>2021-11-20T12:16:07Z</time>
      </trkpt>
      <trkpt lat="46.58613" lon="5.56051">
        <ele>606.2</ele>
        <time>2021-11-20T12:16:08Z</time>
      </trkpt>
      <trkpt lat="46.58613" lon="5.56051">
        <ele>606.2</ele>
        <time>2021-11-20T12:16:09Z</time>
      </trkpt>
      <trkpt lat="46.58613" lon="5.56051">
        <ele>606.2</ele>
        <time>2021-11-20T12:16:10Z</time>
      </trkpt>
      <trkpt lat="46.58613" lon="5.56051">
        <ele>606.2</ele>
        <time>2021-11-20T12:16:11Z</time>
      </trkpt>
      <trkpt lat="46.58613" lon="5.56051">
        <ele>606.2</ele>
        <time>2021-11-20T12:16:12Z</time>
      </trkpt>
      <trkpt lat="46.58613" lon="5.56051">
        <ele>606.2</ele>
        <time>2021-11-20T12:16:13Z</time>
      </trkpt>
      <trkpt lat="46.58613" lon="5.56051">
        <ele>606.2</ele>
        <time>2021-11-20T12:16:14Z</time>
      </trkpt>
      <trkpt lat="46.58613" lon="5.56051">
        <ele>606.2</ele>
        <time>2021-11-20T12:16:15Z</time>
      </trkpt>
      <trkpt lat="46.58613" lon="5.56051">
        <ele>606.2</ele>
        <time>2021-11-20T12:16:16Z</time>
      </trkpt>
      <trkpt lat="46.58613" lon="5.56051">
        <ele>606.2</ele>
        <time>2021-11-20T12:16:17Z</time>
      </trkpt>
      <trkpt lat="46.58613" lon="5.56051">
        <ele>606.2</ele>
        <time>2021-11-20T12:16:18Z</time>
      </trkpt>
      <trkpt lat="46.58613" lon="5.56051">
        <ele>610.2</ele>
        <time>2021-11-20T12:16:19Z</time>
      </trkpt>
      <trkpt lat="46.58613" lon="5.56051">
        <ele>610.2</ele>
        <time>2021-11-20T12:16:20Z</time>
      </trkpt>
      <trkpt lat="46.58613" lon="5.56051">
        <ele>610.2</ele>
        <time>2021-11-20T12:16:21Z</time>
      </trkpt>
      <trkpt lat="46.58613" lon="5.56051">
        <ele>610.2</ele>
        <time>2021-11-20T12:16:22Z</time>
      </trkpt>
      <trkpt lat="46.58613" lon="5.56051">
        <ele>610.2</ele>
        <time>2021-11-20T12:16:23Z</time>
      </trkpt>
      <trkpt lat="46.58613" lon="5.56051">
        <ele>610.2</ele>
        <time>2021-11-20T12:16:24Z</time>
      </trkpt>
      <trkpt lat="46.58613" lon="5.56051">
        <ele>610.2</ele>
        <time>2021-11-20T12:16:25Z</time>
      </trkpt>
      <trkpt lat="46.58613" lon="5.56051">
        <ele>610.2</ele>
        <time>2021-11-20T12:16:26Z</time>
      </trkpt>
      <trkpt lat="46.58613" lon="5.56051">
        <ele>610.2</ele>
        <time>2021-11-20T12:16:27Z</time>
      </trkpt>
      <trkpt lat="46.58613" lon="5.56051">
        <ele>610.2</ele>
        <time>2021-11-20T12:16:28Z</time>
      </trkpt>
      <trkpt lat="46.58613" lon="5.56051">
        <ele>610.2</ele>
        <time>2021-11-20T12:16:29Z</time>
      </trkpt>
      <trkpt lat="46.58613" lon="5.56051">
        <ele>610.2</ele>
        <time>2021-11-20T12:16:30Z</time>
      </trkpt>
      <trkpt lat="46.58613" lon="5.56051">
        <ele>610.2</ele>
        <time>2021-11-20T12:16:31Z</time>
      </trkpt>
      <trkpt lat="46.58613" lon="5.56051">
        <ele>610.2</ele>
        <time>2021-11-20T12:16:32Z</time>
      </trkpt>
      <trkpt lat="46.58613" lon="5.56051">
        <ele>610.2</ele>
        <time>2021-11-20T12:16:33Z</time>
      </trkpt>
      <trkpt lat="46.58613" lon="5.56051">
        <ele>610.2</ele>
        <time>2021-11-20T12:16:34Z</time>
      </trkpt>
      <trkpt lat="46.58613" lon="5.56051">
        <ele>610.2</ele>
        <time>2021-11-20T12:16:35Z</time>
      </trkpt>
      <trkpt lat="46.58613" lon="5.56051">
        <ele>610.2</ele>
        <time>2021-11-20T12:16:36Z</time>
      </trkpt>
      <trkpt lat="46.58613" lon="5.56051">
        <ele>610.2</ele>
        <time>2021-11-20T12:16:37Z</time>
      </trkpt>
      <trkpt lat="46.58613" lon="5.56051">
        <ele>610.2</ele>
        <time>2021-11-20T12:16:38Z</time>
      </trkpt>
      <trkpt lat="46.58613" lon="5.56051">
        <ele>610.2</ele>
        <time>2021-11-20T12:16:39Z</time>
      </trkpt>
      <trkpt lat="46.58613" lon="5.56051">
        <ele>610.2</ele>
        <time>2021-11-20T12:16:40Z</time>
      </trkpt>
      <trkpt lat="46.58613" lon="5.56051">
        <ele>610.2</ele>
        <time>2021-11-20T12:16:41Z</time>
      </trkpt>
      <trkpt lat="46.58613" lon="5.56051">
        <ele>610.2</ele>
        <time>2021-11-20T12:16:42Z</time>
      </trkpt>
      <trkpt lat="46.58613" lon="5.56051">
        <ele>610.2</ele>
        <time>2021-11-20T12:16:43Z</time>
      </trkpt>
      <trkpt lat="46.58613" lon="5.56051">
        <ele>610.2</ele>
        <time>2021-11-20T12:16:44Z</time>
      </trkpt>
      <trkpt lat="46.58613" lon="5.56051">
        <ele>610.2</ele>
        <time>2021-11-20T12:16:45Z</time>
      </trkpt>
      <trkpt lat="46.58613" lon="5.56051">
        <ele>610.2</ele>
        <time>2021-11-20T12:16:46Z</time>
      </trkpt>
      <trkpt lat="46.58613" lon="5.56051">
        <ele>610.2</ele>
        <time>2021-11-20T12:16:47Z</time>
      </trkpt>
      <trkpt lat="46.58613" lon="5.56051">
        <ele>610.2</ele>
        <time>2021-11-20T12:16:48Z</time>
      </trkpt>
      <trkpt lat="46.58613" lon="5.56051">
        <ele>610.2</ele>
        <time>2021-11-20T12:16:49Z</time>
      </trkpt>
      <trkpt lat="46.58613" lon="5.56051">
        <ele>610.2</ele>
        <time>2021-11-20T12:16:50Z</time>
      </trkpt>
      <trkpt lat="46.58613" lon="5.56051">
        <ele>610.2</ele>
        <time>2021-11-20T12:16:51Z</time>
      </trkpt>
      <trkpt lat="46.58613" lon="5.56051">
        <ele>610.2</ele>
        <time>2021-11-20T12:16:52Z</time>
      </trkpt>
      <trkpt lat="46.58613" lon="5.56051">
        <ele>610.2</ele>
        <time>2021-11-20T12:16:53Z</time>
      </trkpt>
      <trkpt lat="46.58613" lon="5.56051">
        <ele>610.2</ele>
        <time>2021-11-20T12:16:54Z</time>
      </trkpt>
      <trkpt lat="46.58613" lon="5.56051">
        <ele>610.2</ele>
        <time>2021-11-20T12:16:55Z</time>
      </trkpt>
      <trkpt lat="46.58613" lon="5.56051">
        <ele>610.2</ele>
        <time>2021-11-20T12:16:56Z</time>
      </trkpt>
      <trkpt lat="46.58613" lon="5.56051">
        <ele>610.2</ele>
        <time>2021-11-20T12:16:57Z</time>
      </trkpt>
      <trkpt lat="46.58613" lon="5.56051">
        <ele>610.2</ele>
        <time>2021-11-20T12:16:58Z</time>
      </trkpt>
      <trkpt lat="46.58613" lon="5.56051">
        <ele>610.2</ele>
        <time>2021-11-20T12:16:59Z</time>
      </trkpt>
      <trkpt lat="46.58613" lon="5.56051">
        <ele>610.2</ele>
        <time>2021-11-20T12:17:00Z</time>
      </trkpt>
      <trkpt lat="46.58613" lon="5.56051">
        <ele>610.2</ele>
        <time>2021-11-20T12:17:01Z</time>
      </trkpt>
      <trkpt lat="46.58613" lon="5.56051">
        <ele>610.2</ele>
        <time>2021-11-20T12:17:02Z</time>
      </trkpt>
      <trkpt lat="46.58613" lon="5.56051">
        <ele>610.2</ele>
        <time>2021-11-20T12:17:03Z</time>
      </trkpt>
      <trkpt lat="46.58613" lon="5.56051">
        <ele>610.2</ele>
        <time>2021-11-20T12:17:04Z</time>
      </trkpt>
      <trkpt lat="46.58613" lon="5.56051">
        <ele>610.2</ele>
        <time>2021-11-20T12:17:05Z</time>
      </trkpt>
      <trkpt lat="46.58613" lon="5.56051">
        <ele>610.2</ele>
        <time>2021-11-20T12:17:06Z</time>
      </trkpt>
      <trkpt lat="46.58613" lon="5.56051">
        <ele>610.2</ele>
        <time>2021-11-20T12:17:07Z</time>
      </trkpt>
      <trkpt lat="46.58497" lon="5.56014">
        <ele>610.2</ele>
        <time>2021-11-20T12:17:08Z</time>
      </trkpt>
      <trkpt lat="46.58497" lon="5.56014">
        <ele>610.2</ele>
        <time>2021-11-20T12:17:09Z</time>
      </trkpt>
      <trkpt lat="46.58497" lon="5.56014">
        <ele>610.2</ele>
        <time>2021-11-20T12:17:10Z</time>
      </trkpt>
      <trkpt lat="46.58497" lon="5.56014">
        <ele>610.2</ele>
        <time>2021-11-20T12:17:11Z</time>
      </trkpt>
      <trkpt lat="46.58497" lon="5.56014">
        <ele>610.2</ele>
        <time>2021-11-20T12:17:12Z</time>
      </trkpt>
      <trkpt lat="46.58497" lon="5.56014">
        <ele>610.2</ele>
        <time>2021-11-20T12:17:13Z</time>
      </trkpt>
      <trkpt lat="46.58497" lon="5.56014">
        <ele>610.2</ele>
        <time>2021-11-20T12:17:14Z</time>
      </trkpt>
      <trkpt lat="46.58497" lon="5.56014">
        <ele>610.2</ele>
        <time>2021-11-20T12:17:15Z</time>
      </trkpt>
      <trkpt lat="46.58497" lon="5.56014">
        <ele>610.2</ele>
        <time>2021-11-20T12:17:16Z</time>
      </trkpt>
      <trkpt lat="46.58497" lon="5.56014">
        <ele>610.2</ele>
        <time>2021-11-20T12:17:17Z</time>
      </trkpt>
      <trkpt lat="46.58497" lon="5.56014">
        <ele>610.2</ele>
        <time>2021-11-20T12:17:18Z</time>
      </trkpt>
      <trkpt lat="46.58497" lon="5.56014">
        <ele>621</ele>
        <time>2021-11-20T12:17:19Z</time>
      </trkpt>
      <trkpt lat="46.58497" lon="5.56014">
        <ele>621</ele>
        <time>2021-11-20T12:17:20Z</time>
      </trkpt>
      <trkpt lat="46.58497" lon="5.56014">
        <ele>621</ele>
        <time>2021-11-20T12:17:21Z</time>
      </trkpt>
      <trkpt lat="46.58497" lon="5.56014">
        <ele>621</ele>
        <time>2021-11-20T12:17:22Z</time>
      </trkpt>
      <trkpt lat="46.58497" lon="5.56014">
        <ele>621</ele>
        <time>2021-11-20T12:17:23Z</time>
      </trkpt>
      <trkpt lat="46.58497" lon="5.56014">
        <ele>621</ele>
        <time>2021-11-20T12:17:24Z</time>
      </trkpt>
      <trkpt lat="46.58497" lon="5.56014">
        <ele>621</ele>
        <time>2021-11-20T12:17:25Z</time>
      </trkpt>
      <trkpt lat="46.58497" lon="5.56014">
        <ele>621</ele>
        <time>2021-11-20T12:17:26Z</time>
      </trkpt>
      <trkpt lat="46.58497" lon="5.56014">
        <ele>621</ele>
        <time>2021-11-20T12:17:27Z</time>
      </trkpt>
      <trkpt lat="46.58497" lon="5.56014">
        <ele>621</ele>
        <time>2021-11-20T12:17:28Z</time>
      </trkpt>
      <trkpt lat="46.58497" lon="5.56014">
        <ele>621</ele>
        <time>2021-11-20T12:17:29Z</time>
      </trkpt>
      <trkpt lat="46.58497" lon="5.56014">
        <ele>621</ele>
        <time>2021-11-20T12:17:30Z</time>
      </trkpt>
      <trkpt lat="46.58497" lon="5.56014">
        <ele>621</ele>
        <time>2021-11-20T12:17:31Z</time>
      </trkpt>
      <trkpt lat="46.58497" lon="5.56014">
        <ele>621</ele>
        <time>2021-11-20T12:17:32Z</time>
      </trkpt>
      <trkpt lat="46.58497" lon="5.56014">
        <ele>621</ele>
        <time>2021-11-20T12:17:33Z</time>
      </trkpt>
      <trkpt lat="46.58497" lon="5.56014">
        <ele>621</ele>
        <time>2021-11-20T12:17:34Z</time>
      </trkpt>
      <trkpt lat="46.58497" lon="5.56014">
        <ele>621</ele>
        <time>2021-11-20T12:17:35Z</time>
      </trkpt>
      <trkpt lat="46.58497" lon="5.56014">
        <ele>621</ele>
        <time>2021-11-20T12:17:36Z</time>
      </trkpt>
      <trkpt lat="46.58497" lon="5.56014">
        <ele>621</ele>
        <time>2021-11-20T12:17:37Z</time>
      </trkpt>
      <trkpt lat="46.58497" lon="5.56014">
        <ele>621</ele>
        <time>2021-11-20T12:17:38Z</time>
      </trkpt>
      <trkpt lat="46.58497" lon="5.56014">
        <ele>621</ele>
        <time>2021-11-20T12:17:39Z</time>
      </trkpt>
      <trkpt lat="46.58497" lon="5.56014">
        <ele>621</ele>
        <time>2021-11-20T12:17:40Z</time>
      </trkpt>
      <trkpt lat="46.58497" lon="5.56014">
        <ele>621</ele>
        <time>2021-11-20T12:17:41Z</time>
      </trkpt>
      <trkpt lat="46.58497" lon="5.56014">
        <ele>621</ele>
        <time>2021-11-20T12:17:42Z</time>
      </trkpt>
      <trkpt lat="46.58497" lon="5.56014">
        <ele>621</ele>
        <time>2021-11-20T12:17:43Z</time>
      </trkpt>
      <trkpt lat="46.58497" lon="5.56014">
        <ele>621</ele>
        <time>2021-11-20T12:17:44Z</time>
      </trkpt>
      <trkpt lat="46.58497" lon="5.56014">
        <ele>621</ele>
        <time>2021-11-20T12:17:45Z</time>
      </trkpt>
      <trkpt lat="46.58497" lon="5.56014">
        <ele>621</ele>
        <time>2021-11-20T12:17:46Z</time>
      </trkpt>
      <trkpt lat="46.58497" lon="5.56014">
        <ele>621</ele>
        <time>2021-11-20T12:17:47Z</time>
      </trkpt>
      <trkpt lat="46.58497" lon="5.56014">
        <ele>621</ele>
        <time>2021-11-20T12:17:48Z</time>
      </trkpt>
      <trkpt lat="46.58497" lon="5.56014">
        <ele>621</ele>
        <time>2021-11-20T12:17:49Z</time>
      </trkpt>
      <trkpt lat="46.58497" lon="5.56014">
        <ele>621</ele>
        <time>2021-11-20T12:17:50Z</time>
      </trkpt>
      <trkpt lat="46.58497" lon="5.56014">
        <ele>621</ele>
        <time>2021-11-20T12:17:51Z</time>
      </trkpt>
      <trkpt lat="46.58497" lon="5.56014">
        <ele>621</ele>
        <time>2021-11-20T12:17:52Z</time>
      </trkpt>
      <trkpt lat="46.58497" lon="5.56014">
        <ele>621</ele>
        <time>2021-11-20T12:17:53Z</time>
      </trkpt>
      <trkpt lat="46.58497" lon="5.56014">
        <ele>621</ele>
        <time>2021-11-20T12:17:54Z</time>
      </trkpt>
      <trkpt lat="46.58497" lon="5.56014">
        <ele>621</ele>
        <time>2021-11-20T12:17:55Z</time>
      </trkpt>
      <trkpt lat="46.58497" lon="5.56014">
        <ele>621</ele>
        <time>2021-11-20T12:17:56Z</time>
      </trkpt>
      <trkpt lat="46.58497" lon="5.56014">
        <ele>621</ele>
        <time>2021-11-20T12:17:57Z</time>
      </trkpt>
      <trkpt lat="46.58497" lon="5.56014">
        <ele>621</ele>
        <time>2021-11-20T12:17:58Z</time>
      </trkpt>
      <trkpt lat="46.58497" lon="5.56014">
        <ele>621</ele>
        <time>2021-11-20T12:17:59Z</time>
      </trkpt>
      <trkpt lat="46.58497" lon="5.56014">
        <ele>621</ele>
        <time>2021-11-20T12:18:00Z</time>
      </trkpt>
      <trkpt lat="46.58497" lon="5.56014">
        <ele>621</ele>
        <time>2021-11-20T12:18:01Z</time>
      </trkpt>
      <trkpt lat="46.58497" lon="5.56014">
        <ele>621</ele>
        <time>2021-11-20T12:18:02Z</time>
      </trkpt>
      <trkpt lat="46.58497" lon="5.56014">
        <ele>621</ele>
        <time>2021-11-20T12:18:03Z</time>
      </trkpt>
      <trkpt lat="46.58497" lon="5.56014">
        <ele>621</ele>
        <time>2021-11-20T12:18:04Z</time>
      </trkpt>
      <trkpt lat="46.58497" lon="5.56014">
        <ele>621</ele>
        <time>2021-11-20T12:18:05Z</time>
      </trkpt>
      <trkpt lat="46.58497" lon="5.56014">
        <ele>621</ele>
        <time>2021-11-20T12:18:06Z</time>
      </trkpt>
      <trkpt lat="46.58497" lon="5.56014">
        <ele>621</ele>
        <time>2021-11-20T12:18:07Z</time>
      </trkpt>
      <trkpt lat="46.58316" lon="5.55947">
        <ele>621</ele>
        <time>2021-11-20T12:18:08Z</time>
      </trkpt>
      <trkpt lat="46.58316" lon="5.55947">
        <ele>621</ele>
        <time>2021-11-20T12:18:09Z</time>
      </trkpt>
      <trkpt lat="46.58316" lon="5.55947">
        <ele>621</ele>
        <time>2021-11-20T12:18:10Z</time>
      </trkpt>
      <trkpt lat="46.58316" lon="5.55947">
        <ele>621</ele>
        <time>2021-11-20T12:18:11Z</time>
      </trkpt>
      <trkpt lat="46.58316" lon="5.55947">
        <ele>621</ele>
        <time>2021-11-20T12:18:12Z</time>
      </trkpt>
      <trkpt lat="46.58316" lon="5.55947">
        <ele>621</ele>
        <time>2021-11-20T12:18:13Z</time>
      </trkpt>
      <trkpt lat="46.58316" lon="5.55947">
        <ele>621</ele>
        <time>2021-11-20T12:18:14Z</time>
      </trkpt>
      <trkpt lat="46.58316" lon="5.55947">
        <ele>621</ele>
        <time>2021-11-20T12:18:15Z</time>
      </trkpt>
      <trkpt lat="46.58316" lon="5.55947">
        <ele>621</ele>
        <time>2021-11-20T12:18:16Z</time>
      </trkpt>
      <trkpt lat="46.58316" lon="5.55947">
        <ele>621</ele>
        <time>2021-11-20T12:18:17Z</time>
      </trkpt>
      <trkpt lat="46.58316" lon="5.55947">
        <ele>621</ele>
        <time>2021-11-20T12:18:18Z</time>
      </trkpt>
      <trkpt lat="46.58316" lon="5.55947">
        <ele>624.6</ele>
        <time>2021-11-20T12:18:19Z</time>
      </trkpt>
      <trkpt lat="46.58316" lon="5.55947">
        <ele>624.6</ele>
        <time>2021-11-20T12:18:20Z</time>
      </trkpt>
      <trkpt lat="46.58316" lon="5.55947">
        <ele>624.6</ele>
        <time>2021-11-20T12:18:21Z</time>
      </trkpt>
      <trkpt lat="46.58316" lon="5.55947">
        <ele>624.6</ele>
        <time>2021-11-20T12:18:22Z</time>
      </trkpt>
      <trkpt lat="46.58316" lon="5.55947">
        <ele>624.6</ele>
        <time>2021-11-20T12:18:23Z</time>
      </trkpt>
      <trkpt lat="46.58316" lon="5.55947">
        <ele>624.6</ele>
        <time>2021-11-20T12:18:24Z</time>
      </trkpt>
      <trkpt lat="46.58316" lon="5.55947">
        <ele>624.6</ele>
        <time>2021-11-20T12:18:25Z</time>
      </trkpt>
      <trkpt lat="46.58316" lon="5.55947">
        <ele>624.6</ele>
        <time>2021-11-20T12:18:26Z</time>
      </trkpt>
      <trkpt lat="46.58316" lon="5.55947">
        <ele>624.6</ele>
        <time>2021-11-20T12:18:27Z</time>
      </trkpt>
      <trkpt lat="46.58316" lon="5.55947">
        <ele>624.6</ele>
        <time>2021-11-20T12:18:28Z</time>
      </trkpt>
      <trkpt lat="46.58316" lon="5.55947">
        <ele>624.6</ele>
        <time>2021-11-20T12:18:29Z</time>
      </trkpt>
      <trkpt lat="46.58316" lon="5.55947">
        <ele>624.6</ele>
        <time>2021-11-20T12:18:30Z</time>
      </trkpt>
      <trkpt lat="46.58316" lon="5.55947">
        <ele>624.6</ele>
        <time>2021-11-20T12:18:31Z</time>
      </trkpt>
      <trkpt lat="46.58316" lon="5.55947">
        <ele>624.6</ele>
        <time>2021-11-20T12:18:32Z</time>
      </trkpt>
      <trkpt lat="46.58316" lon="5.55947">
        <ele>624.6</ele>
        <time>2021-11-20T12:18:33Z</time>
      </trkpt>
      <trkpt lat="46.58316" lon="5.55947">
        <ele>624.6</ele>
        <time>2021-11-20T12:18:34Z</time>
      </trkpt>
      <trkpt lat="46.58316" lon="5.55947">
        <ele>624.6</ele>
        <time>2021-11-20T12:18:35Z</time>
      </trkpt>
      <trkpt lat="46.58316" lon="5.55947">
        <ele>624.6</ele>
        <time>2021-11-20T12:18:36Z</time>
      </trkpt>
      <trkpt lat="46.58316" lon="5.55947">
        <ele>624.6</ele>
        <time>2021-11-20T12:18:37Z</time>
      </trkpt>
      <trkpt lat="46.58316" lon="5.55947">
        <ele>624.6</ele>
        <time>2021-11-20T12:18:38Z</time>
      </trkpt>
      <trkpt lat="46.58316" lon="5.55947">
        <ele>624.6</ele>
        <time>2021-11-20T12:18:39Z</time>
      </trkpt>
      <trkpt lat="46.58316" lon="5.55947">
        <ele>624.6</ele>
        <time>2021-11-20T12:18:40Z</time>
      </trkpt>
      <trkpt lat="46.58316" lon="5.55947">
        <ele>624.6</ele>
        <time>2021-11-20T12:18:41Z</time>
      </trkpt>
      <trkpt lat="46.58316" lon="5.55947">
        <ele>624.6</ele>
        <time>2021-11-20T12:18:42Z</time>
      </trkpt>
      <trkpt lat="46.58316" lon="5.55947">
        <ele>624.6</ele>
        <time>2021-11-20T12:18:43Z</time>
      </trkpt>
      <trkpt lat="46.58316" lon="5.55947">
        <ele>624.6</ele>
        <time>2021-11-20T12:18:44Z</time>
      </trkpt>
      <trkpt lat="46.58316" lon="5.55947">
        <ele>624.6</ele>
        <time>2021-11-20T12:18:45Z</time>
      </trkpt>
      <trkpt lat="46.58316" lon="5.55947">
        <ele>624.6</ele>
        <time>2021-11-20T12:18:46Z</time>
      </trkpt>
      <trkpt lat="46.58316" lon="5.55947">
        <ele>624.6</ele>
        <time>2021-11-20T12:18:47Z</time>
      </trkpt>
      <trkpt lat="46.58316" lon="5.55947">
        <ele>624.6</ele>
        <time>2021-11-20T12:18:48Z</time>
      </trkpt>
      <trkpt lat="46.58316" lon="5.55947">
        <ele>624.6</ele>
        <time>2021-11-20T12:18:49Z</time>
      </trkpt>
      <trkpt lat="46.58316" lon="5.55947">
        <ele>624.6</ele>
        <time>2021-11-20T12:18:50Z</time>
      </trkpt>
      <trkpt lat="46.58316" lon="5.55947">
        <ele>624.6</ele>
        <time>2021-11-20T12:18:51Z</time>
      </trkpt>
      <trkpt lat="46.58316" lon="5.55947">
        <ele>624.6</ele>
        <time>2021-11-20T12:18:52Z</time>
      </trkpt>
      <trkpt lat="46.58316" lon="5.55947">
        <ele>624.6</ele>
        <time>2021-11-20T12:18:53Z</time>
      </trkpt>
      <trkpt lat="46.58316" lon="5.55947">
        <ele>624.6</ele>
        <time>2021-11-20T12:18:54Z</time>
      </trkpt>
      <trkpt lat="46.58316" lon="5.55947">
        <ele>624.6</ele>
        <time>2021-11-20T12:18:55Z</time>
      </trkpt>
      <trkpt lat="46.58316" lon="5.55947">
        <ele>624.6</ele>
        <time>2021-11-20T12:18:56Z</time>
      </trkpt>
      <trkpt lat="46.58316" lon="5.55947">
        <ele>624.6</ele>
        <time>2021-11-20T12:18:57Z</time>
      </trkpt>
      <trkpt lat="46.58316" lon="5.55947">
        <ele>624.6</ele>
        <time>2021-11-20T12:18:58Z</time>
      </trkpt>
      <trkpt lat="46.58316" lon="5.55947">
        <ele>624.6</ele>
        <time>2021-11-20T12:18:59Z</time>
      </trkpt>
      <trkpt lat="46.58316" lon="5.55947">
        <ele>624.6</ele>
        <time>2021-11-20T12:19:00Z</time>
      </trkpt>
      <trkpt lat="46.58316" lon="5.55947">
        <ele>624.6</ele>
        <time>2021-11-20T12:19:01Z</time>
      </trkpt>
      <trkpt lat="46.58316" lon="5.55947">
        <ele>624.6</ele>
        <time>2021-11-20T12:19:02Z</time>
      </trkpt>
      <trkpt lat="46.58316" lon="5.55947">
        <ele>624.6</ele>
        <time>2021-11-20T12:19:03Z</time>
      </trkpt>
      <trkpt lat="46.58316" lon="5.55947">
        <ele>624.6</ele>
        <time>2021-11-20T12:19:04Z</time>
      </trkpt>
      <trkpt lat="46.58316" lon="5.55947">
        <ele>624.6</ele>
        <time>2021-11-20T12:19:05Z</time>
      </trkpt>
      <trkpt lat="46.58316" lon="5.55947">
        <ele>624.6</ele>
        <time>2021-11-20T12:19:06Z</time>
      </trkpt>
      <trkpt lat="46.58316" lon="5.55947">
        <ele>624.6</ele>
        <time>2021-11-20T12:19:07Z</time>
      </trkpt>
      <trkpt lat="46.58172" lon="5.55898">
        <ele>624.6</ele>
        <time>2021-11-20T12:19:08Z</time>
      </trkpt>
      <trkpt lat="46.58172" lon="5.55898">
        <ele>624.6</ele>
        <time>2021-11-20T12:19:09Z</time>
      </trkpt>
      <trkpt lat="46.58172" lon="5.55898">
        <ele>624.6</ele>
        <time>2021-11-20T12:19:10Z</time>
      </trkpt>
      <trkpt lat="46.58172" lon="5.55898">
        <ele>624.6</ele>
        <time>2021-11-20T12:19:11Z</time>
      </trkpt>
      <trkpt lat="46.58172" lon="5.55898">
        <ele>624.6</ele>
        <time>2021-11-20T12:19:12Z</time>
      </trkpt>
      <trkpt lat="46.58172" lon="5.55898">
        <ele>624.6</ele>
        <time>2021-11-20T12:19:13Z</time>
      </trkpt>
      <trkpt lat="46.58172" lon="5.55898">
        <ele>624.6</ele>
        <time>2021-11-20T12:19:14Z</time>
      </trkpt>
      <trkpt lat="46.58172" lon="5.55898">
        <ele>624.6</ele>
        <time>2021-11-20T12:19:15Z</time>
      </trkpt>
      <trkpt lat="46.58172" lon="5.55898">
        <ele>624.6</ele>
        <time>2021-11-20T12:19:16Z</time>
      </trkpt>
      <trkpt lat="46.58172" lon="5.55898">
        <ele>624.6</ele>
        <time>2021-11-20T12:19:17Z</time>
      </trkpt>
      <trkpt lat="46.58172" lon="5.55898">
        <ele>624.6</ele>
        <time>2021-11-20T12:19:18Z</time>
      </trkpt>
      <trkpt lat="46.58172" lon="5.55898">
        <ele>630.6</ele>
        <time>2021-11-20T12:19:19Z</time>
      </trkpt>
      <trkpt lat="46.58172" lon="5.55898">
        <ele>630.6</ele>
        <time>2021-11-20T12:19:20Z</time>
      </trkpt>
      <trkpt lat="46.58172" lon="5.55898">
        <ele>630.6</ele>
        <time>2021-11-20T12:19:21Z</time>
      </trkpt>
      <trkpt lat="46.58172" lon="5.55898">
        <ele>630.6</ele>
        <time>2021-11-20T12:19:22Z</time>
      </trkpt>
      <trkpt lat="46.58172" lon="5.55898">
        <ele>630.6</ele>
        <time>2021-11-20T12:19:23Z</time>
      </trkpt>
      <trkpt lat="46.58172" lon="5.55898">
        <ele>630.6</ele>
        <time>2021-11-20T12:19:24Z</time>
      </trkpt>
      <trkpt lat="46.58172" lon="5.55898">
        <ele>630.6</ele>
        <time>2021-11-20T12:19:25Z</time>
      </trkpt>
      <trkpt lat="46.58172" lon="5.55898">
        <ele>630.6</ele>
        <time>2021-11-20T12:19:26Z</time>
      </trkpt>
      <trkpt lat="46.58172" lon="5.55898">
        <ele>630.6</ele>
        <time>2021-11-20T12:19:27Z</time>
      </trkpt>
      <trkpt lat="46.58172" lon="5.55898">
        <ele>630.6</ele>
        <time>2021-11-20T12:19:28Z</time>
      </trkpt>
      <trkpt lat="46.58172" lon="5.55898">
        <ele>630.6</ele>
        <time>2021-11-20T12:19:29Z</time>
      </trkpt>
      <trkpt lat="46.58172" lon="5.55898">
        <ele>630.6</ele>
        <time>2021-11-20T12:19:30Z</time>
      </trkpt>
      <trkpt lat="46.58172" lon="5.55898">
        <ele>630.6</ele>
        <time>2021-11-20T12:19:31Z</time>
      </trkpt>
      <trkpt lat="46.58172" lon="5.55898">
        <ele>630.6</ele>
        <time>2021-11-20T12:19:32Z</time>
      </trkpt>
      <trkpt lat="46.58172" lon="5.55898">
        <ele>630.6</ele>
        <time>2021-11-20T12:19:33Z</time>
      </trkpt>
      <trkpt lat="46.58172" lon="5.55898">
        <ele>630.6</ele>
        <time>2021-11-20T12:19:34Z</time>
      </trkpt>
      <trkpt lat="46.58172" lon="5.55898">
        <ele>630.6</ele>
        <time>2021-11-20T12:19:35Z</time>
      </trkpt>
      <trkpt lat="46.58172" lon="5.55898">
        <ele>630.6</ele>
        <time>2021-11-20T12:19:36Z</time>
      </trkpt>
      <trkpt lat="46.58172" lon="5.55898">
        <ele>630.6</ele>
        <time>2021-11-20T12:19:37Z</time>
      </trkpt>
      <trkpt lat="46.58172" lon="5.55898">
        <ele>630.6</ele>
        <time>2021-11-20T12:19:38Z</time>
      </trkpt>
      <trkpt lat="46.58172" lon="5.55898">
        <ele>630.6</ele>
        <time>2021-11-20T12:19:39Z</time>
      </trkpt>
      <trkpt lat="46.58172" lon="5.55898">
        <ele>630.6</ele>
        <time>2021-11-20T12:19:40Z</time>
      </trkpt>
      <trkpt lat="46.58172" lon="5.55898">
        <ele>630.6</ele>
        <time>2021-11-20T12:19:41Z</time>
      </trkpt>
      <trkpt lat="46.58172" lon="5.55898">
        <ele>630.6</ele>
        <time>2021-11-20T12:19:42Z</time>
      </trkpt>
      <trkpt lat="46.58172" lon="5.55898">
        <ele>630.6</ele>
        <time>2021-11-20T12:19:43Z</time>
      </trkpt>
      <trkpt lat="46.58172" lon="5.55898">
        <ele>630.6</ele>
        <time>2021-11-20T12:19:44Z</time>
      </trkpt>
      <trkpt lat="46.58172" lon="5.55898">
        <ele>630.6</ele>
        <time>2021-11-20T12:19:45Z</time>
      </trkpt>
      <trkpt lat="46.58172" lon="5.55898">
        <ele>630.6</ele>
        <time>2021-11-20T12:19:46Z</time>
      </trkpt>
      <trkpt lat="46.58172" lon="5.55898">
        <ele>630.6</ele>
        <time>2021-11-20T12:19:47Z</time>
      </trkpt>
      <trkpt lat="46.58172" lon="5.55898">
        <ele>630.6</ele>
        <time>2021-11-20T12:19:48Z</time>
      </trkpt>
      <trkpt lat="46.58172" lon="5.55898">
        <ele>630.6</ele>
        <time>2021-11-20T12:19:49Z</time>
      </trkpt>
      <trkpt lat="46.58172" lon="5.55898">
        <ele>630.6</ele>
        <time>2021-11-20T12:19:50Z</time>
      </trkpt>
      <trkpt lat="46.58172" lon="5.55898">
        <ele>630.6</ele>
        <time>2021-11-20T12:19:51Z</time>
      </trkpt>
      <trkpt lat="46.58172" lon="5.55898">
        <ele>630.6</ele>
        <time>2021-11-20T12:19:52Z</time>
      </trkpt>
      <trkpt lat="46.58172" lon="5.55898">
        <ele>630.6</ele>
        <time>2021-11-20T12:19:53Z</time>
      </trkpt>
      <trkpt lat="46.58172" lon="5.55898">
        <ele>630.6</ele>
        <time>2021-11-20T12:19:54Z</time>
      </trkpt>
      <trkpt lat="46.58172" lon="5.55898">
        <ele>630.6</ele>
        <time>2021-11-20T12:19:55Z</time>
      </trkpt>
      <trkpt lat="46.58172" lon="5.55898">
        <ele>630.6</ele>
        <time>2021-11-20T12:19:56Z</time>
      </trkpt>
      <trkpt lat="46.58172" lon="5.55898">
        <ele>630.6</ele>
        <time>2021-11-20T12:19:57Z</time>
      </trkpt>
      <trkpt lat="46.58172" lon="5.55898">
        <ele>630.6</ele>
        <time>2021-11-20T12:19:58Z</time>
      </trkpt>
      <trkpt lat="46.58172" lon="5.55898">
        <ele>630.6</ele>
        <time>2021-11-20T12:19:59Z</time>
      </trkpt>
      <trkpt lat="46.58172" lon="5.55898">
        <ele>630.6</ele>
        <time>2021-11-20T12:20:00Z</time>
      </trkpt>
      <trkpt lat="46.58172" lon="5.55898">
        <ele>630.6</ele>
        <time>2021-11-20T12:20:01Z</time>
      </trkpt>
      <trkpt lat="46.58172" lon="5.55898">
        <ele>630.6</ele>
        <time>2021-11-20T12:20:02Z</time>
      </trkpt>
      <trkpt lat="46.58172" lon="5.55898">
        <ele>630.6</ele>
        <time>2021-11-20T12:20:03Z</time>
      </trkpt>
      <trkpt lat="46.58172" lon="5.55898">
        <ele>630.6</ele>
        <time>2021-11-20T12:20:04Z</time>
      </trkpt>
      <trkpt lat="46.58172" lon="5.55898">
        <ele>630.6</ele>
        <time>2021-11-20T12:20:05Z</time>
      </trkpt>
      <trkpt lat="46.58172" lon="5.55898">
        <ele>630.6</ele>
        <time>2021-11-20T12:20:06Z</time>
      </trkpt>
      <trkpt lat="46.58172" lon="5.55898">
        <ele>630.6</ele>
        <time>2021-11-20T12:20:07Z</time>
      </trkpt>
      <trkpt lat="46.58059" lon="5.55846">
        <ele>630.6</ele>
        <time>2021-11-20T12:20:08Z</time>
      </trkpt>
      <trkpt lat="46.58059" lon="5.55846">
        <ele>630.6</ele>
        <time>2021-11-20T12:20:09Z</time>
      </trkpt>
      <trkpt lat="46.58059" lon="5.55846">
        <ele>630.6</ele>
        <time>2021-11-20T12:20:10Z</time>
      </trkpt>
      <trkpt lat="46.58059" lon="5.55846">
        <ele>630.6</ele>
        <time>2021-11-20T12:20:11Z</time>
      </trkpt>
      <trkpt lat="46.58059" lon="5.55846">
        <ele>630.6</ele>
        <time>2021-11-20T12:20:12Z</time>
      </trkpt>
      <trkpt lat="46.58059" lon="5.55846">
        <ele>630.6</ele>
        <time>2021-11-20T12:20:13Z</time>
      </trkpt>
      <trkpt lat="46.58059" lon="5.55846">
        <ele>630.6</ele>
        <time>2021-11-20T12:20:14Z</time>
      </trkpt>
      <trkpt lat="46.58059" lon="5.55846">
        <ele>630.6</ele>
        <time>2021-11-20T12:20:15Z</time>
      </trkpt>
      <trkpt lat="46.58059" lon="5.55846">
        <ele>630.6</ele>
        <time>2021-11-20T12:20:16Z</time>
      </trkpt>
      <trkpt lat="46.58059" lon="5.55846">
        <ele>630.6</ele>
        <time>2021-11-20T12:20:17Z</time>
      </trkpt>
      <trkpt lat="46.58059" lon="5.55846">
        <ele>630.6</ele>
        <time>2021-11-20T12:20:18Z</time>
      </trkpt>
      <trkpt lat="46.58059" lon="5.55846">
        <ele>637.2</ele>
        <time>2021-11-20T12:20:19Z</time>
      </trkpt>
      <trkpt lat="46.58059" lon="5.55846">
        <ele>637.2</ele>
        <time>2021-11-20T12:20:20Z</time>
      </trkpt>
      <trkpt lat="46.58059" lon="5.55846">
        <ele>637.2</ele>
        <time>2021-11-20T12:20:21Z</time>
      </trkpt>
      <trkpt lat="46.58059" lon="5.55846">
        <ele>637.2</ele>
        <time>2021-11-20T12:20:22Z</time>
      </trkpt>
      <trkpt lat="46.58059" lon="5.55846">
        <ele>637.2</ele>
        <time>2021-11-20T12:20:23Z</time>
      </trkpt>
      <trkpt lat="46.58059" lon="5.55846">
        <ele>637.2</ele>
        <time>2021-11-20T12:20:24Z</time>
      </trkpt>
      <trkpt lat="46.58059" lon="5.55846">
        <ele>637.2</ele>
        <time>2021-11-20T12:20:25Z</time>
      </trkpt>
      <trkpt lat="46.58059" lon="5.55846">
        <ele>637.2</ele>
        <time>2021-11-20T12:20:26Z</time>
      </trkpt>
      <trkpt lat="46.58059" lon="5.55846">
        <ele>637.2</ele>
        <time>2021-11-20T12:20:27Z</time>
      </trkpt>
      <trkpt lat="46.58059" lon="5.55846">
        <ele>637.2</ele>
        <time>2021-11-20T12:20:28Z</time>
      </trkpt>
      <trkpt lat="46.58059" lon="5.55846">
        <ele>637.2</ele>
        <time>2021-11-20T12:20:29Z</time>
      </trkpt>
      <trkpt lat="46.58059" lon="5.55846">
        <ele>637.2</ele>
        <time>2021-11-20T12:20:30Z</time>
      </trkpt>
      <trkpt lat="46.58059" lon="5.55846">
        <ele>637.2</ele>
        <time>2021-11-20T12:20:31Z</time>
      </trkpt>
      <trkpt lat="46.58059" lon="5.55846">
        <ele>637.2</ele>
        <time>2021-11-20T12:20:32Z</time>
      </trkpt>
      <trkpt lat="46.58059" lon="5.55846">
        <ele>637.2</ele>
        <time>2021-11-20T12:20:34Z</time>
      </trkpt>
      <trkpt lat="46.58059" lon="5.55846">
        <ele>637.2</ele>
        <time>2021-11-20T12:20:35Z</time>
      </trkpt>
      <trkpt lat="46.58059" lon="5.55846">
        <ele>637.2</ele>
        <time>2021-11-20T12:20:36Z</time>
      </trkpt>
      <trkpt lat="46.58059" lon="5.55846">
        <ele>637.2</ele>
        <time>2021-11-20T12:20:37Z</time>
      </trkpt>
      <trkpt lat="46.58059" lon="5.55846">
        <ele>637.2</ele>
        <time>2021-11-20T12:20:38Z</time>
      </trkpt>
      <trkpt lat="46.58059" lon="5.55846">
        <ele>637.2</ele>
        <time>2021-11-20T12:20:39Z</time>
      </trkpt>
      <trkpt lat="46.58059" lon="5.55846">
        <ele>637.2</ele>
        <time>2021-11-20T12:20:40Z</time>
      </trkpt>
      <trkpt lat="46.58059" lon="5.55846">
        <ele>637.2</ele>
        <time>2021-11-20T12:20:41Z</time>
      </trkpt>
      <trkpt lat="46.58059" lon="5.55846">
        <ele>637.2</ele>
        <time>2021-11-20T12:20:42Z</time>
      </trkpt>
      <trkpt lat="46.58059" lon="5.55846">
        <ele>637.2</ele>
        <time>2021-11-20T12:20:43Z</time>
      </trkpt>
      <trkpt lat="46.58059" lon="5.55846">
        <ele>637.2</ele>
        <time>2021-11-20T12:20:44Z</time>
      </trkpt>
      <trkpt lat="46.58059" lon="5.55846">
        <ele>637.2</ele>
        <time>2021-11-20T12:20:45Z</time>
      </trkpt>
      <trkpt lat="46.58059" lon="5.55846">
        <ele>637.2</ele>
        <time>2021-11-20T12:20:46Z</time>
      </trkpt>
      <trkpt lat="46.58059" lon="5.55846">
        <ele>637.2</ele>
        <time>2021-11-20T12:20:47Z</time>
      </trkpt>
      <trkpt lat="46.58059" lon="5.55846">
        <ele>637.2</ele>
        <time>2021-11-20T12:20:48Z</time>
      </trkpt>
      <trkpt lat="46.58059" lon="5.55846">
        <ele>637.2</ele>
        <time>2021-11-20T12:20:49Z</time>
      </trkpt>
      <trkpt lat="46.58059" lon="5.55846">
        <ele>637.2</ele>
        <time>2021-11-20T12:20:50Z</time>
      </trkpt>
      <trkpt lat="46.58059" lon="5.55846">
        <ele>637.2</ele>
        <time>2021-11-20T12:20:51Z</time>
      </trkpt>
      <trkpt lat="46.58059" lon="5.55846">
        <ele>637.2</ele>
        <time>2021-11-20T12:20:52Z</time>
      </trkpt>
      <trkpt lat="46.58059" lon="5.55846">
        <ele>637.2</ele>
        <time>2021-11-20T12:20:53Z</time>
      </trkpt>
      <trkpt lat="46.58059" lon="5.55846">
        <ele>637.2</ele>
        <time>2021-11-20T12:20:54Z</time>
      </trkpt>
      <trkpt lat="46.58059" lon="5.55846">
        <ele>637.2</ele>
        <time>2021-11-20T12:20:55Z</time>
      </trkpt>
      <trkpt lat="46.58059" lon="5.55846">
        <ele>637.2</ele>
        <time>2021-11-20T12:20:56Z</time>
      </trkpt>
      <trkpt lat="46.58059" lon="5.55846">
        <ele>637.2</ele>
        <time>2021-11-20T12:20:57Z</time>
      </trkpt>
      <trkpt lat="46.58059" lon="5.55846">
        <ele>637.2</ele>
        <time>2021-11-20T12:20:58Z</time>
      </trkpt>
      <trkpt lat="46.58059" lon="5.55846">
        <ele>637.2</ele>
        <time>2021-11-20T12:20:59Z</time>
      </trkpt>
      <trkpt lat="46.58059" lon="5.55846">
        <ele>637.2</ele>
        <time>2021-11-20T12:21:00Z</time>
      </trkpt>
      <trkpt lat="46.58059" lon="5.55846">
        <ele>637.2</ele>
        <time>2021-11-20T12:21:01Z</time>
      </trkpt>
      <trkpt lat="46.58059" lon="5.55846">
        <ele>637.2</ele>
        <time>2021-11-20T12:21:02Z</time>
      </trkpt>
      <trkpt lat="46.58059" lon="5.55846">
        <ele>637.2</ele>
        <time>2021-11-20T12:21:03Z</time>
      </trkpt>
      <trkpt lat="46.58059" lon="5.55846">
        <ele>637.2</ele>
        <time>2021-11-20T12:21:04Z</time>
      </trkpt>
      <trkpt lat="46.58059" lon="5.55846">
        <ele>637.2</ele>
        <time>2021-11-20T12:21:05Z</time>
      </trkpt>
      <trkpt lat="46.58059" lon="5.55846">
        <ele>637.2</ele>
        <time>2021-11-20T12:21:06Z</time>
      </trkpt>
      <trkpt lat="46.58059" lon="5.55846">
        <ele>637.2</ele>
        <time>2021-11-20T12:21:07Z</time>
      </trkpt>
      <trkpt lat="46.5797" lon="5.55808">
        <ele>637.2</ele>
        <time>2021-11-20T12:21:08Z</time>
      </trkpt>
      <trkpt lat="46.5797" lon="5.55808">
        <ele>637.2</ele>
        <time>2021-11-20T12:21:09Z</time>
      </trkpt>
      <trkpt lat="46.5797" lon="5.55808">
        <ele>637.2</ele>
        <time>2021-11-20T12:21:10Z</time>
      </trkpt>
      <trkpt lat="46.5797" lon="5.55808">
        <ele>637.2</ele>
        <time>2021-11-20T12:21:11Z</time>
      </trkpt>
      <trkpt lat="46.5797" lon="5.55808">
        <ele>637.2</ele>
        <time>2021-11-20T12:21:12Z</time>
      </trkpt>
      <trkpt lat="46.5797" lon="5.55808">
        <ele>637.2</ele>
        <time>2021-11-20T12:21:13Z</time>
      </trkpt>
      <trkpt lat="46.5797" lon="5.55808">
        <ele>637.2</ele>
        <time>2021-11-20T12:21:14Z</time>
      </trkpt>
      <trkpt lat="46.5797" lon="5.55808">
        <ele>637.2</ele>
        <time>2021-11-20T12:21:15Z</time>
      </trkpt>
      <trkpt lat="46.5797" lon="5.55808">
        <ele>637.2</ele>
        <time>2021-11-20T12:21:16Z</time>
      </trkpt>
      <trkpt lat="46.5797" lon="5.55808">
        <ele>637.2</ele>
        <time>2021-11-20T12:21:17Z</time>
      </trkpt>
      <trkpt lat="46.5797" lon="5.55808">
        <ele>637.2</ele>
        <time>2021-11-20T12:21:18Z</time>
      </trkpt>
      <trkpt lat="46.5797" lon="5.55808">
        <ele>637.8</ele>
        <time>2021-11-20T12:21:19Z</time>
      </trkpt>
      <trkpt lat="46.5797" lon="5.55808">
        <ele>637.8</ele>
        <time>2021-11-20T12:21:20Z</time>
      </trkpt>
      <trkpt lat="46.5797" lon="5.55808">
        <ele>637.8</ele>
        <time>2021-11-20T12:21:21Z</time>
      </trkpt>
      <trkpt lat="46.5797" lon="5.55808">
        <ele>637.8</ele>
        <time>2021-11-20T12:21:22Z</time>
      </trkpt>
      <trkpt lat="46.5797" lon="5.55808">
        <ele>637.8</ele>
        <time>2021-11-20T12:21:23Z</time>
      </trkpt>
      <trkpt lat="46.5797" lon="5.55808">
        <ele>637.8</ele>
        <time>2021-11-20T12:21:24Z</time>
      </trkpt>
      <trkpt lat="46.5797" lon="5.55808">
        <ele>637.8</ele>
        <time>2021-11-20T12:21:25Z</time>
      </trkpt>
      <trkpt lat="46.5797" lon="5.55808">
        <ele>637.8</ele>
        <time>2021-11-20T12:21:26Z</time>
      </trkpt>
      <trkpt lat="46.5797" lon="5.55808">
        <ele>637.8</ele>
        <time>2021-11-20T12:21:27Z</time>
      </trkpt>
      <trkpt lat="46.5797" lon="5.55808">
        <ele>637.8</ele>
        <time>2021-11-20T12:21:28Z</time>
      </trkpt>
      <trkpt lat="46.5797" lon="5.55808">
        <ele>637.8</ele>
        <time>2021-11-20T12:21:29Z</time>
      </trkpt>
      <trkpt lat="46.5797" lon="5.55808">
        <ele>637.8</ele>
        <time>2021-11-20T12:21:30Z</time>
      </trkpt>
      <trkpt lat="46.5797" lon="5.55808">
        <ele>637.8</ele>
        <time>2021-11-20T12:21:31Z</time>
      </trkpt>
      <trkpt lat="46.5797" lon="5.55808">
        <ele>637.8</ele>
        <time>2021-11-20T12:21:32Z</time>
      </trkpt>
      <trkpt lat="46.5797" lon="5.55808">
        <ele>637.8</ele>
        <time>2021-11-20T12:21:33Z</time>
      </trkpt>
      <trkpt lat="46.5797" lon="5.55808">
        <ele>637.8</ele>
        <time>2021-11-20T12:21:34Z</time>
      </trkpt>
      <trkpt lat="46.5797" lon="5.55808">
        <ele>637.8</ele>
        <time>2021-11-20T12:21:35Z</time>
      </trkpt>
      <trkpt lat="46.5797" lon="5.55808">
        <ele>637.8</ele>
        <time>2021-11-20T12:21:36Z</time>
      </trkpt>
      <trkpt lat="46.5797" lon="5.55808">
        <ele>637.8</ele>
        <time>2021-11-20T12:21:37Z</time>
      </trkpt>
      <trkpt lat="46.5797" lon="5.55808">
        <ele>637.8</ele>
        <time>2021-11-20T12:21:38Z</time>
      </trkpt>
      <trkpt lat="46.5797" lon="5.55808">
        <ele>637.8</ele>
        <time>2021-11-20T12:21:39Z</time>
      </trkpt>
      <trkpt lat="46.5797" lon="5.55808">
        <ele>637.8</ele>
        <time>2021-11-20T12:21:40Z</time>
      </trkpt>
      <trkpt lat="46.5797" lon="5.55808">
        <ele>637.8</ele>
        <time>2021-11-20T12:21:41Z</time>
      </trkpt>
      <trkpt lat="46.5797" lon="5.55808">
        <ele>637.8</ele>
        <time>2021-11-20T12:21:42Z</time>
      </trkpt>
      <trkpt lat="46.5797" lon="5.55808">
        <ele>637.8</ele>
        <time>2021-11-20T12:21:43Z</time>
      </trkpt>
      <trkpt lat="46.5797" lon="5.55808">
        <ele>637.8</ele>
        <time>2021-11-20T12:21:44Z</time>
      </trkpt>
      <trkpt lat="46.5797" lon="5.55808">
        <ele>637.8</ele>
        <time>2021-11-20T12:21:45Z</time>
      </trkpt>
      <trkpt lat="46.5797" lon="5.55808">
        <ele>637.8</ele>
        <time>2021-11-20T12:21:46Z</time>
      </trkpt>
      <trkpt lat="46.5797" lon="5.55808">
        <ele>637.8</ele>
        <time>2021-11-20T12:21:47Z</time>
      </trkpt>
      <trkpt lat="46.5797" lon="5.55808">
        <ele>637.8</ele>
        <time>2021-11-20T12:21:48Z</time>
      </trkpt>
      <trkpt lat="46.5797" lon="5.55808">
        <ele>637.8</ele>
        <time>2021-11-20T12:21:49Z</time>
      </trkpt>
      <trkpt lat="46.5797" lon="5.55808">
        <ele>637.8</ele>
        <time>2021-11-20T12:21:50Z</time>
      </trkpt>
      <trkpt lat="46.5797" lon="5.55808">
        <ele>637.8</ele>
        <time>2021-11-20T12:21:51Z</time>
      </trkpt>
      <trkpt lat="46.5797" lon="5.55808">
        <ele>637.8</ele>
        <time>2021-11-20T12:21:52Z</time>
      </trkpt>
      <trkpt lat="46.5797" lon="5.55808">
        <ele>637.8</ele>
        <time>2021-11-20T12:21:53Z</time>
      </trkpt>
      <trkpt lat="46.5797" lon="5.55808">
        <ele>637.8</ele>
        <time>2021-11-20T12:21:54Z</time>
      </trkpt>
      <trkpt lat="46.5797" lon="5.55808">
        <ele>637.8</ele>
        <time>2021-11-20T12:21:55Z</time>
      </trkpt>
      <trkpt lat="46.5797" lon="5.55808">
        <ele>637.8</ele>
        <time>2021-11-20T12:21:56Z</time>
      </trkpt>
      <trkpt lat="46.5797" lon="5.55808">
        <ele>637.8</ele>
        <time>2021-11-20T12:21:57Z</time>
      </trkpt>
      <trkpt lat="46.5797" lon="5.55808">
        <ele>637.8</ele>
        <time>2021-11-20T12:21:58Z</time>
      </trkpt>
      <trkpt lat="46.5797" lon="5.55808">
        <ele>637.8</ele>
        <time>2021-11-20T12:21:59Z</time>
      </trkpt>
      <trkpt lat="46.5797" lon="5.55808">
        <ele>637.8</ele>
        <time>2021-11-20T12:22:00Z</time>
      </trkpt>
      <trkpt lat="46.5797" lon="5.55808">
        <ele>637.8</ele>
        <time>2021-11-20T12:22:01Z</time>
      </trkpt>
      <trkpt lat="46.5797" lon="5.55808">
        <ele>637.8</ele>
        <time>2021-11-20T12:22:02Z</time>
      </trkpt>
      <trkpt lat="46.5797" lon="5.55808">
        <ele>637.8</ele>
        <time>2021-11-20T12:22:03Z</time>
      </trkpt>
      <trkpt lat="46.5797" lon="5.55808">
        <ele>637.8</ele>
        <time>2021-11-20T12:22:04Z</time>
      </trkpt>
      <trkpt lat="46.5797" lon="5.55808">
        <ele>637.8</ele>
        <time>2021-11-20T12:22:05Z</time>
      </trkpt>
      <trkpt lat="46.5797" lon="5.55808">
        <ele>637.8</ele>
        <time>2021-11-20T12:22:06Z</time>
      </trkpt>
      <trkpt lat="46.5797" lon="5.55808">
        <ele>637.8</ele>
        <time>2021-11-20T12:22:07Z</time>
      </trkpt>
      <trkpt lat="46.57772" lon="5.55719">
        <ele>637.8</ele>
        <time>2021-11-20T12:22:08Z</time>
      </trkpt>
      <trkpt lat="46.57772" lon="5.55719">
        <ele>637.8</ele>
        <time>2021-11-20T12:22:09Z</time>
      </trkpt>
      <trkpt lat="46.57772" lon="5.55719">
        <ele>637.8</ele>
        <time>2021-11-20T12:22:10Z</time>
      </trkpt>
      <trkpt lat="46.57772" lon="5.55719">
        <ele>637.8</ele>
        <time>2021-11-20T12:22:11Z</time>
      </trkpt>
      <trkpt lat="46.57772" lon="5.55719">
        <ele>637.8</ele>
        <time>2021-11-20T12:22:12Z</time>
      </trkpt>
      <trkpt lat="46.57772" lon="5.55719">
        <ele>637.8</ele>
        <time>2021-11-20T12:22:13Z</time>
      </trkpt>
      <trkpt lat="46.57772" lon="5.55719">
        <ele>637.8</ele>
        <time>2021-11-20T12:22:14Z</time>
      </trkpt>
      <trkpt lat="46.57772" lon="5.55719">
        <ele>637.8</ele>
        <time>2021-11-20T12:22:15Z</time>
      </trkpt>
      <trkpt lat="46.57772" lon="5.55719">
        <ele>637.8</ele>
        <time>2021-11-20T12:22:16Z</time>
      </trkpt>
      <trkpt lat="46.57772" lon="5.55719">
        <ele>637.8</ele>
        <time>2021-11-20T12:22:17Z</time>
      </trkpt>
      <trkpt lat="46.57772" lon="5.55719">
        <ele>637.8</ele>
        <time>2021-11-20T12:22:18Z</time>
      </trkpt>
      <trkpt lat="46.57772" lon="5.55719">
        <ele>640.4</ele>
        <time>2021-11-20T12:22:19Z</time>
      </trkpt>
      <trkpt lat="46.57772" lon="5.55719">
        <ele>640.4</ele>
        <time>2021-11-20T12:22:20Z</time>
      </trkpt>
      <trkpt lat="46.57772" lon="5.55719">
        <ele>640.4</ele>
        <time>2021-11-20T12:22:21Z</time>
      </trkpt>
      <trkpt lat="46.57772" lon="5.55719">
        <ele>640.4</ele>
        <time>2021-11-20T12:22:22Z</time>
      </trkpt>
      <trkpt lat="46.57772" lon="5.55719">
        <ele>640.4</ele>
        <time>2021-11-20T12:22:23Z</time>
      </trkpt>
      <trkpt lat="46.57772" lon="5.55719">
        <ele>640.4</ele>
        <time>2021-11-20T12:22:24Z</time>
      </trkpt>
      <trkpt lat="46.57772" lon="5.55719">
        <ele>640.4</ele>
        <time>2021-11-20T12:22:25Z</time>
      </trkpt>
      <trkpt lat="46.57772" lon="5.55719">
        <ele>640.4</ele>
        <time>2021-11-20T12:22:26Z</time>
      </trkpt>
      <trkpt lat="46.57772" lon="5.55719">
        <ele>640.4</ele>
        <time>2021-11-20T12:22:27Z</time>
      </trkpt>
      <trkpt lat="46.57772" lon="5.55719">
        <ele>640.4</ele>
        <time>2021-11-20T12:22:28Z</time>
      </trkpt>
      <trkpt lat="46.57772" lon="5.55719">
        <ele>640.4</ele>
        <time>2021-11-20T12:22:29Z</time>
      </trkpt>
      <trkpt lat="46.57772" lon="5.55719">
        <ele>640.4</ele>
        <time>2021-11-20T12:22:30Z</time>
      </trkpt>
      <trkpt lat="46.57772" lon="5.55719">
        <ele>640.4</ele>
        <time>2021-11-20T12:22:31Z</time>
      </trkpt>
      <trkpt lat="46.57772" lon="5.55719">
        <ele>640.4</ele>
        <time>2021-11-20T12:22:32Z</time>
      </trkpt>
      <trkpt lat="46.57772" lon="5.55719">
        <ele>640.4</ele>
        <time>2021-11-20T12:22:33Z</time>
      </trkpt>
      <trkpt lat="46.57772" lon="5.55719">
        <ele>640.4</ele>
        <time>2021-11-20T12:22:34Z</time>
      </trkpt>
      <trkpt lat="46.57772" lon="5.55719">
        <ele>640.4</ele>
        <time>2021-11-20T12:22:35Z</time>
      </trkpt>
      <trkpt lat="46.57772" lon="5.55719">
        <ele>640.4</ele>
        <time>2021-11-20T12:22:36Z</time>
      </trkpt>
      <trkpt lat="46.57772" lon="5.55719">
        <ele>640.4</ele>
        <time>2021-11-20T12:22:37Z</time>
      </trkpt>
      <trkpt lat="46.57772" lon="5.55719">
        <ele>640.4</ele>
        <time>2021-11-20T12:22:38Z</time>
      </trkpt>
      <trkpt lat="46.57772" lon="5.55719">
        <ele>640.4</ele>
        <time>2021-11-20T12:22:39Z</time>
      </trkpt>
      <trkpt lat="46.57772" lon="5.55719">
        <ele>640.4</ele>
        <time>2021-11-20T12:22:40Z</time>
      </trkpt>
      <trkpt lat="46.57772" lon="5.55719">
        <ele>640.4</ele>
        <time>2021-11-20T12:22:41Z</time>
      </trkpt>
      <trkpt lat="46.57772" lon="5.55719">
        <ele>640.4</ele>
        <time>2021-11-20T12:22:42Z</time>
      </trkpt>
      <trkpt lat="46.57772" lon="5.55719">
        <ele>640.4</ele>
        <time>2021-11-20T12:22:43Z</time>
      </trkpt>
      <trkpt lat="46.57772" lon="5.55719">
        <ele>640.4</ele>
        <time>2021-11-20T12:22:44Z</time>
      </trkpt>
      <trkpt lat="46.57772" lon="5.55719">
        <ele>640.4</ele>
        <time>2021-11-20T12:22:45Z</time>
      </trkpt>
      <trkpt lat="46.57772" lon="5.55719">
        <ele>640.4</ele>
        <time>2021-11-20T12:22:46Z</time>
      </trkpt>
      <trkpt lat="46.57772" lon="5.55719">
        <ele>640.4</ele>
        <time>2021-11-20T12:22:47Z</time>
      </trkpt>
      <trkpt lat="46.57772" lon="5.55719">
        <ele>640.4</ele>
        <time>2021-11-20T12:22:48Z</time>
      </trkpt>
      <trkpt lat="46.57772" lon="5.55719">
        <ele>640.4</ele>
        <time>2021-11-20T12:22:49Z</time>
      </trkpt>
      <trkpt lat="46.57772" lon="5.55719">
        <ele>640.4</ele>
        <time>2021-11-20T12:22:50Z</time>
      </trkpt>
      <trkpt lat="46.57772" lon="5.55719">
        <ele>640.4</ele>
        <time>2021-11-20T12:22:51Z</time>
      </trkpt>
      <trkpt lat="46.57772" lon="5.55719">
        <ele>640.4</ele>
        <time>2021-11-20T12:22:52Z</time>
      </trkpt>
      <trkpt lat="46.57772" lon="5.55719">
        <ele>640.4</ele>
        <time>2021-11-20T12:22:53Z</time>
      </trkpt>
      <trkpt lat="46.57772" lon="5.55719">
        <ele>640.4</ele>
        <time>2021-11-20T12:22:54Z</time>
      </trkpt>
      <trkpt lat="46.57772" lon="5.55719">
        <ele>640.4</ele>
        <time>2021-11-20T12:22:55Z</time>
      </trkpt>
      <trkpt lat="46.57772" lon="5.55719">
        <ele>640.4</ele>
        <time>2021-11-20T12:22:56Z</time>
      </trkpt>
      <trkpt lat="46.57772" lon="5.55719">
        <ele>640.4</ele>
        <time>2021-11-20T12:22:57Z</time>
      </trkpt>
      <trkpt lat="46.57772" lon="5.55719">
        <ele>640.4</ele>
        <time>2021-11-20T12:22:58Z</time>
      </trkpt>
      <trkpt lat="46.57772" lon="5.55719">
        <ele>640.4</ele>
        <time>2021-11-20T12:22:59Z</time>
      </trkpt>
      <trkpt lat="46.57772" lon="5.55719">
        <ele>640.4</ele>
        <time>2021-11-20T12:23:00Z</time>
      </trkpt>
      <trkpt lat="46.57772" lon="5.55719">
        <ele>640.4</ele>
        <time>2021-11-20T12:23:01Z</time>
      </trkpt>
      <trkpt lat="46.57772" lon="5.55719">
        <ele>640.4</ele>
        <time>2021-11-20T12:23:02Z</time>
      </trkpt>
      <trkpt lat="46.57772" lon="5.55719">
        <ele>640.4</ele>
        <time>2021-11-20T12:23:03Z</time>
      </trkpt>
      <trkpt lat="46.57772" lon="5.55719">
        <ele>640.4</ele>
        <time>2021-11-20T12:23:04Z</time>
      </trkpt>
      <trkpt lat="46.57772" lon="5.55719">
        <ele>640.4</ele>
        <time>2021-11-20T12:23:05Z</time>
      </trkpt>
      <trkpt lat="46.57772" lon="5.55719">
        <ele>640.4</ele>
        <time>2021-11-20T12:23:06Z</time>
      </trkpt>
      <trkpt lat="46.57772" lon="5.55719">
        <ele>640.4</ele>
        <time>2021-11-20T12:23:07Z</time>
      </trkpt>
      <trkpt lat="46.57572" lon="5.55626">
        <ele>640.4</ele>
        <time>2021-11-20T12:23:08Z</time>
      </trkpt>
      <trkpt lat="46.57572" lon="5.55626">
        <ele>640.4</ele>
        <time>2021-11-20T12:23:09Z</time>
      </trkpt>
      <trkpt lat="46.57572" lon="5.55626">
        <ele>640.4</ele>
        <time>2021-11-20T12:23:10Z</time>
      </trkpt>
      <trkpt lat="46.57572" lon="5.55626">
        <ele>640.4</ele>
        <time>2021-11-20T12:23:11Z</time>
      </trkpt>
      <trkpt lat="46.57572" lon="5.55626">
        <ele>640.4</ele>
        <time>2021-11-20T12:23:12Z</time>
      </trkpt>
      <trkpt lat="46.57572" lon="5.55626">
        <ele>640.4</ele>
        <time>2021-11-20T12:23:13Z</time>
      </trkpt>
      <trkpt lat="46.57572" lon="5.55626">
        <ele>640.4</ele>
        <time>2021-11-20T12:23:14Z</time>
      </trkpt>
      <trkpt lat="46.57572" lon="5.55626">
        <ele>640.4</ele>
        <time>2021-11-20T12:23:15Z</time>
      </trkpt>
      <trkpt lat="46.57572" lon="5.55626">
        <ele>640.4</ele>
        <time>2021-11-20T12:23:16Z</time>
      </trkpt>
      <trkpt lat="46.57572" lon="5.55626">
        <ele>640.4</ele>
        <time>2021-11-20T12:23:17Z</time>
      </trkpt>
      <trkpt lat="46.57572" lon="5.55626">
        <ele>640.4</ele>
        <time>2021-11-20T12:23:18Z</time>
      </trkpt>
      <trkpt lat="46.57572" lon="5.55626">
        <ele>641.6</ele>
        <time>2021-11-20T12:23:19Z</time>
      </trkpt>
      <trkpt lat="46.57572" lon="5.55626">
        <ele>641.6</ele>
        <time>2021-11-20T12:23:20Z</time>
      </trkpt>
      <trkpt lat="46.57572" lon="5.55626">
        <ele>641.6</ele>
        <time>2021-11-20T12:23:21Z</time>
      </trkpt>
      <trkpt lat="46.57572" lon="5.55626">
        <ele>641.6</ele>
        <time>2021-11-20T12:23:22Z</time>
      </trkpt>
      <trkpt lat="46.57572" lon="5.55626">
        <ele>641.6</ele>
        <time>2021-11-20T12:23:23Z</time>
      </trkpt>
      <trkpt lat="46.57572" lon="5.55626">
        <ele>641.6</ele>
        <time>2021-11-20T12:23:24Z</time>
      </trkpt>
      <trkpt lat="46.57572" lon="5.55626">
        <ele>641.6</ele>
        <time>2021-11-20T12:23:25Z</time>
      </trkpt>
      <trkpt lat="46.57572" lon="5.55626">
        <ele>641.6</ele>
        <time>2021-11-20T12:23:26Z</time>
      </trkpt>
      <trkpt lat="46.57572" lon="5.55626">
        <ele>641.6</ele>
        <time>2021-11-20T12:23:27Z</time>
      </trkpt>
      <trkpt lat="46.57572" lon="5.55626">
        <ele>641.6</ele>
        <time>2021-11-20T12:23:28Z</time>
      </trkpt>
      <trkpt lat="46.57572" lon="5.55626">
        <ele>641.6</ele>
        <time>2021-11-20T12:23:29Z</time>
      </trkpt>
      <trkpt lat="46.57572" lon="5.55626">
        <ele>641.6</ele>
        <time>2021-11-20T12:23:30Z</time>
      </trkpt>
      <trkpt lat="46.57572" lon="5.55626">
        <ele>641.6</ele>
        <time>2021-11-20T12:23:31Z</time>
      </trkpt>
      <trkpt lat="46.57572" lon="5.55626">
        <ele>641.6</ele>
        <time>2021-11-20T12:23:32Z</time>
      </trkpt>
      <trkpt lat="46.57572" lon="5.55626">
        <ele>641.6</ele>
        <time>2021-11-20T12:23:33Z</time>
      </trkpt>
      <trkpt lat="46.57572" lon="5.55626">
        <ele>641.6</ele>
        <time>2021-11-20T12:23:34Z</time>
      </trkpt>
      <trkpt lat="46.57572" lon="5.55626">
        <ele>641.6</ele>
        <time>2021-11-20T12:23:35Z</time>
      </trkpt>
      <trkpt lat="46.57572" lon="5.55626">
        <ele>641.6</ele>
        <time>2021-11-20T12:23:36Z</time>
      </trkpt>
      <trkpt lat="46.57572" lon="5.55626">
        <ele>641.6</ele>
        <time>2021-11-20T12:23:37Z</time>
      </trkpt>
      <trkpt lat="46.57572" lon="5.55626">
        <ele>641.6</ele>
        <time>2021-11-20T12:23:38Z</time>
      </trkpt>
      <trkpt lat="46.57572" lon="5.55626">
        <ele>641.6</ele>
        <time>2021-11-20T12:23:39Z</time>
      </trkpt>
      <trkpt lat="46.57572" lon="5.55626">
        <ele>641.6</ele>
        <time>2021-11-20T12:23:40Z</time>
      </trkpt>
      <trkpt lat="46.57572" lon="5.55626">
        <ele>641.6</ele>
        <time>2021-11-20T12:23:41Z</time>
      </trkpt>
      <trkpt lat="46.57572" lon="5.55626">
        <ele>641.6</ele>
        <time>2021-11-20T12:23:42Z</time>
      </trkpt>
      <trkpt lat="46.57572" lon="5.55626">
        <ele>641.6</ele>
        <time>2021-11-20T12:23:43Z</time>
      </trkpt>
      <trkpt lat="46.57572" lon="5.55626">
        <ele>641.6</ele>
        <time>2021-11-20T12:23:44Z</time>
      </trkpt>
      <trkpt lat="46.57572" lon="5.55626">
        <ele>641.6</ele>
        <time>2021-11-20T12:23:45Z</time>
      </trkpt>
      <trkpt lat="46.57572" lon="5.55626">
        <ele>641.6</ele>
        <time>2021-11-20T12:23:46Z</time>
      </trkpt>
      <trkpt lat="46.57572" lon="5.55626">
        <ele>641.6</ele>
        <time>2021-11-20T12:23:47Z</time>
      </trkpt>
      <trkpt lat="46.57572" lon="5.55626">
        <ele>641.6</ele>
        <time>2021-11-20T12:23:48Z</time>
      </trkpt>
      <trkpt lat="46.57572" lon="5.55626">
        <ele>641.6</ele>
        <time>2021-11-20T12:23:49Z</time>
      </trkpt>
      <trkpt lat="46.57572" lon="5.55626">
        <ele>641.6</ele>
        <time>2021-11-20T12:23:50Z</time>
      </trkpt>
      <trkpt lat="46.57572" lon="5.55626">
        <ele>641.6</ele>
        <time>2021-11-20T12:23:51Z</time>
      </trkpt>
      <trkpt lat="46.57572" lon="5.55626">
        <ele>641.6</ele>
        <time>2021-11-20T12:23:52Z</time>
      </trkpt>
      <trkpt lat="46.57572" lon="5.55626">
        <ele>641.6</ele>
        <time>2021-11-20T12:23:53Z</time>
      </trkpt>
      <trkpt lat="46.57572" lon="5.55626">
        <ele>641.6</ele>
        <time>2021-11-20T12:23:54Z</time>
      </trkpt>
      <trkpt lat="46.57572" lon="5.55626">
        <ele>641.6</ele>
        <time>2021-11-20T12:23:55Z</time>
      </trkpt>
      <trkpt lat="46.57572" lon="5.55626">
        <ele>641.6</ele>
        <time>2021-11-20T12:23:56Z</time>
      </trkpt>
      <trkpt lat="46.57572" lon="5.55626">
        <ele>641.6</ele>
        <time>2021-11-20T12:23:57Z</time>
      </trkpt>
      <trkpt lat="46.57572" lon="5.55626">
        <ele>641.6</ele>
        <time>2021-11-20T12:23:58Z</time>
      </trkpt>
      <trkpt lat="46.57572" lon="5.55626">
        <ele>641.6</ele>
        <time>2021-11-20T12:23:59Z</time>
      </trkpt>
      <trkpt lat="46.57572" lon="5.55626">
        <ele>641.6</ele>
        <time>2021-11-20T12:24:00Z</time>
      </trkpt>
      <trkpt lat="46.57572" lon="5.55626">
        <ele>641.6</ele>
        <time>2021-11-20T12:24:01Z</time>
      </trkpt>
      <trkpt lat="46.57572" lon="5.55626">
        <ele>641.6</ele>
        <time>2021-11-20T12:24:02Z</time>
      </trkpt>
      <trkpt lat="46.57572" lon="5.55626">
        <ele>641.6</ele>
        <time>2021-11-20T12:24:03Z</time>
      </trkpt>
      <trkpt lat="46.57572" lon="5.55626">
        <ele>641.6</ele>
        <time>2021-11-20T12:24:04Z</time>
      </trkpt>
      <trkpt lat="46.57572" lon="5.55626">
        <ele>641.6</ele>
        <time>2021-11-20T12:24:05Z</time>
      </trkpt>
      <trkpt lat="46.57572" lon="5.55626">
        <ele>641.6</ele>
        <time>2021-11-20T12:24:06Z</time>
      </trkpt>
      <trkpt lat="46.57572" lon="5.55626">
        <ele>641.6</ele>
        <time>2021-11-20T12:24:07Z</time>
      </trkpt>
      <trkpt lat="46.57454" lon="5.55554">
        <ele>641.6</ele>
        <time>2021-11-20T12:24:08Z</time>
      </trkpt>
      <trkpt lat="46.57454" lon="5.55554">
        <ele>641.6</ele>
        <time>2021-11-20T12:24:09Z</time>
      </trkpt>
      <trkpt lat="46.57454" lon="5.55554">
        <ele>641.6</ele>
        <time>2021-11-20T12:24:10Z</time>
      </trkpt>
      <trkpt lat="46.57454" lon="5.55554">
        <ele>641.6</ele>
        <time>2021-11-20T12:24:11Z</time>
      </trkpt>
      <trkpt lat="46.57454" lon="5.55554">
        <ele>641.6</ele>
        <time>2021-11-20T12:24:12Z</time>
      </trkpt>
      <trkpt lat="46.57454" lon="5.55554">
        <ele>641.6</ele>
        <time>2021-11-20T12:24:13Z</time>
      </trkpt>
      <trkpt lat="46.57454" lon="5.55554">
        <ele>641.6</ele>
        <time>2021-11-20T12:24:14Z</time>
      </trkpt>
      <trkpt lat="46.57454" lon="5.55554">
        <ele>641.6</ele>
        <time>2021-11-20T12:24:15Z</time>
      </trkpt>
      <trkpt lat="46.57454" lon="5.55554">
        <ele>641.6</ele>
        <time>2021-11-20T12:24:16Z</time>
      </trkpt>
      <trkpt lat="46.57454" lon="5.55554">
        <ele>641.6</ele>
        <time>2021-11-20T12:24:17Z</time>
      </trkpt>
      <trkpt lat="46.57454" lon="5.55554">
        <ele>641.6</ele>
        <time>2021-11-20T12:24:18Z</time>
      </trkpt>
      <trkpt lat="46.57454" lon="5.55554">
        <ele>634</ele>
        <time>2021-11-20T12:24:19Z</time>
      </trkpt>
      <trkpt lat="46.57454" lon="5.55554">
        <ele>634</ele>
        <time>2021-11-20T12:24:20Z</time>
      </trkpt>
      <trkpt lat="46.57454" lon="5.55554">
        <ele>634</ele>
        <time>2021-11-20T12:24:21Z</time>
      </trkpt>
      <trkpt lat="46.57454" lon="5.55554">
        <ele>634</ele>
        <time>2021-11-20T12:24:22Z</time>
      </trkpt>
      <trkpt lat="46.57454" lon="5.55554">
        <ele>634</ele>
        <time>2021-11-20T12:24:23Z</time>
      </trkpt>
      <trkpt lat="46.57454" lon="5.55554">
        <ele>634</ele>
        <time>2021-11-20T12:24:24Z</time>
      </trkpt>
      <trkpt lat="46.57454" lon="5.55554">
        <ele>634</ele>
        <time>2021-11-20T12:24:25Z</time>
      </trkpt>
      <trkpt lat="46.57454" lon="5.55554">
        <ele>634</ele>
        <time>2021-11-20T12:24:26Z</time>
      </trkpt>
      <trkpt lat="46.57454" lon="5.55554">
        <ele>634</ele>
        <time>2021-11-20T12:24:27Z</time>
      </trkpt>
      <trkpt lat="46.57454" lon="5.55554">
        <ele>634</ele>
        <time>2021-11-20T12:24:28Z</time>
      </trkpt>
      <trkpt lat="46.57454" lon="5.55554">
        <ele>634</ele>
        <time>2021-11-20T12:24:29Z</time>
      </trkpt>
      <trkpt lat="46.57454" lon="5.55554">
        <ele>634</ele>
        <time>2021-11-20T12:24:30Z</time>
      </trkpt>
      <trkpt lat="46.57454" lon="5.55554">
        <ele>634</ele>
        <time>2021-11-20T12:24:31Z</time>
      </trkpt>
      <trkpt lat="46.57454" lon="5.55554">
        <ele>634</ele>
        <time>2021-11-20T12:24:32Z</time>
      </trkpt>
      <trkpt lat="46.57454" lon="5.55554">
        <ele>634</ele>
        <time>2021-11-20T12:24:33Z</time>
      </trkpt>
      <trkpt lat="46.57454" lon="5.55554">
        <ele>634</ele>
        <time>2021-11-20T12:24:34Z</time>
      </trkpt>
      <trkpt lat="46.57454" lon="5.55554">
        <ele>634</ele>
        <time>2021-11-20T12:24:35Z</time>
      </trkpt>
      <trkpt lat="46.57454" lon="5.55554">
        <ele>634</ele>
        <time>2021-11-20T12:24:36Z</time>
      </trkpt>
      <trkpt lat="46.57454" lon="5.55554">
        <ele>634</ele>
        <time>2021-11-20T12:24:37Z</time>
      </trkpt>
      <trkpt lat="46.57454" lon="5.55554">
        <ele>634</ele>
        <time>2021-11-20T12:24:38Z</time>
      </trkpt>
      <trkpt lat="46.57454" lon="5.55554">
        <ele>634</ele>
        <time>2021-11-20T12:24:39Z</time>
      </trkpt>
      <trkpt lat="46.57454" lon="5.55554">
        <ele>634</ele>
        <time>2021-11-20T12:24:40Z</time>
      </trkpt>
      <trkpt lat="46.57454" lon="5.55554">
        <ele>634</ele>
        <time>2021-11-20T12:24:41Z</time>
      </trkpt>
      <trkpt lat="46.57454" lon="5.55554">
        <ele>634</ele>
        <time>2021-11-20T12:24:42Z</time>
      </trkpt>
      <trkpt lat="46.57454" lon="5.55554">
        <ele>634</ele>
        <time>2021-11-20T12:24:43Z</time>
      </trkpt>
      <trkpt lat="46.57454" lon="5.55554">
        <ele>634</ele>
        <time>2021-11-20T12:24:44Z</time>
      </trkpt>
      <trkpt lat="46.57454" lon="5.55554">
        <ele>634</ele>
        <time>2021-11-20T12:24:45Z</time>
      </trkpt>
      <trkpt lat="46.57454" lon="5.55554">
        <ele>634</ele>
        <time>2021-11-20T12:24:46Z</time>
      </trkpt>
      <trkpt lat="46.57454" lon="5.55554">
        <ele>634</ele>
        <time>2021-11-20T12:24:47Z</time>
      </trkpt>
      <trkpt lat="46.57454" lon="5.55554">
        <ele>634</ele>
        <time>2021-11-20T12:24:48Z</time>
      </trkpt>
      <trkpt lat="46.57454" lon="5.55554">
        <ele>634</ele>
        <time>2021-11-20T12:24:49Z</time>
      </trkpt>
      <trkpt lat="46.57454" lon="5.55554">
        <ele>634</ele>
        <time>2021-11-20T12:24:50Z</time>
      </trkpt>
      <trkpt lat="46.57454" lon="5.55554">
        <ele>634</ele>
        <time>2021-11-20T12:24:51Z</time>
      </trkpt>
      <trkpt lat="46.57454" lon="5.55554">
        <ele>634</ele>
        <time>2021-11-20T12:24:52Z</time>
      </trkpt>
      <trkpt lat="46.57454" lon="5.55554">
        <ele>634</ele>
        <time>2021-11-20T12:24:53Z</time>
      </trkpt>
      <trkpt lat="46.57454" lon="5.55554">
        <ele>634</ele>
        <time>2021-11-20T12:24:54Z</time>
      </trkpt>
      <trkpt lat="46.57454" lon="5.55554">
        <ele>634</ele>
        <time>2021-11-20T12:24:55Z</time>
      </trkpt>
      <trkpt lat="46.57454" lon="5.55554">
        <ele>634</ele>
        <time>2021-11-20T12:24:56Z</time>
      </trkpt>
      <trkpt lat="46.57454" lon="5.55554">
        <ele>634</ele>
        <time>2021-11-20T12:24:57Z</time>
      </trkpt>
      <trkpt lat="46.57454" lon="5.55554">
        <ele>634</ele>
        <time>2021-11-20T12:24:58Z</time>
      </trkpt>
      <trkpt lat="46.57454" lon="5.55554">
        <ele>634</ele>
        <time>2021-11-20T12:24:59Z</time>
      </trkpt>
      <trkpt lat="46.57454" lon="5.55554">
        <ele>634</ele>
        <time>2021-11-20T12:25:00Z</time>
      </trkpt>
      <trkpt lat="46.57454" lon="5.55554">
        <ele>634</ele>
        <time>2021-11-20T12:25:01Z</time>
      </trkpt>
      <trkpt lat="46.57454" lon="5.55554">
        <ele>634</ele>
        <time>2021-11-20T12:25:02Z</time>
      </trkpt>
      <trkpt lat="46.57454" lon="5.55554">
        <ele>634</ele>
        <time>2021-11-20T12:25:03Z</time>
      </trkpt>
      <trkpt lat="46.57454" lon="5.55554">
        <ele>634</ele>
        <time>2021-11-20T12:25:04Z</time>
      </trkpt>
      <trkpt lat="46.57454" lon="5.55554">
        <ele>634</ele>
        <time>2021-11-20T12:25:05Z</time>
      </trkpt>
      <trkpt lat="46.57454" lon="5.55554">
        <ele>634</ele>
        <time>2021-11-20T12:25:06Z</time>
      </trkpt>
      <trkpt lat="46.57454" lon="5.55554">
        <ele>634</ele>
        <time>2021-11-20T12:25:07Z</time>
      </trkpt>
      <trkpt lat="46.57612" lon="5.55425">
        <ele>634</ele>
        <time>2021-11-20T12:25:08Z</time>
      </trkpt>
      <trkpt lat="46.57612" lon="5.55425">
        <ele>634</ele>
        <time>2021-11-20T12:25:09Z</time>
      </trkpt>
      <trkpt lat="46.57612" lon="5.55425">
        <ele>634</ele>
        <time>2021-11-20T12:25:10Z</time>
      </trkpt>
      <trkpt lat="46.57612" lon="5.55425">
        <ele>634</ele>
        <time>2021-11-20T12:25:11Z</time>
      </trkpt>
      <trkpt lat="46.57612" lon="5.55425">
        <ele>634</ele>
        <time>2021-11-20T12:25:12Z</time>
      </trkpt>
      <trkpt lat="46.57612" lon="5.55425">
        <ele>634</ele>
        <time>2021-11-20T12:25:13Z</time>
      </trkpt>
      <trkpt lat="46.57612" lon="5.55425">
        <ele>634</ele>
        <time>2021-11-20T12:25:14Z</time>
      </trkpt>
      <trkpt lat="46.57612" lon="5.55425">
        <ele>634</ele>
        <time>2021-11-20T12:25:15Z</time>
      </trkpt>
      <trkpt lat="46.57612" lon="5.55425">
        <ele>634</ele>
        <time>2021-11-20T12:25:16Z</time>
      </trkpt>
      <trkpt lat="46.57612" lon="5.55425">
        <ele>634</ele>
        <time>2021-11-20T12:25:17Z</time>
      </trkpt>
      <trkpt lat="46.57612" lon="5.55425">
        <ele>634</ele>
        <time>2021-11-20T12:25:18Z</time>
      </trkpt>
      <trkpt lat="46.57612" lon="5.55425">
        <ele>626.4</ele>
        <time>2021-11-20T12:25:19Z</time>
      </trkpt>
      <trkpt lat="46.57612" lon="5.55425">
        <ele>626.4</ele>
        <time>2021-11-20T12:25:20Z</time>
      </trkpt>
      <trkpt lat="46.57612" lon="5.55425">
        <ele>626.4</ele>
        <time>2021-11-20T12:25:21Z</time>
      </trkpt>
      <trkpt lat="46.57612" lon="5.55425">
        <ele>626.4</ele>
        <time>2021-11-20T12:25:22Z</time>
      </trkpt>
      <trkpt lat="46.57612" lon="5.55425">
        <ele>626.4</ele>
        <time>2021-11-20T12:25:23Z</time>
      </trkpt>
      <trkpt lat="46.57612" lon="5.55425">
        <ele>626.4</ele>
        <time>2021-11-20T12:25:24Z</time>
      </trkpt>
      <trkpt lat="46.57612" lon="5.55425">
        <ele>626.4</ele>
        <time>2021-11-20T12:25:25Z</time>
      </trkpt>
      <trkpt lat="46.57612" lon="5.55425">
        <ele>626.4</ele>
        <time>2021-11-20T12:25:26Z</time>
      </trkpt>
      <trkpt lat="46.57612" lon="5.55425">
        <ele>626.4</ele>
        <time>2021-11-20T12:25:27Z</time>
      </trkpt>
      <trkpt lat="46.57612" lon="5.55425">
        <ele>626.4</ele>
        <time>2021-11-20T12:25:28Z</time>
      </trkpt>
      <trkpt lat="46.57612" lon="5.55425">
        <ele>626.4</ele>
        <time>2021-11-20T12:25:29Z</time>
      </trkpt>
      <trkpt lat="46.57612" lon="5.55425">
        <ele>626.4</ele>
        <time>2021-11-20T12:25:30Z</time>
      </trkpt>
      <trkpt lat="46.57612" lon="5.55425">
        <ele>626.4</ele>
        <time>2021-11-20T12:25:31Z</time>
      </trkpt>
      <trkpt lat="46.57612" lon="5.55425">
        <ele>626.4</ele>
        <time>2021-11-20T12:25:32Z</time>
      </trkpt>
      <trkpt lat="46.57612" lon="5.55425">
        <ele>626.4</ele>
        <time>2021-11-20T12:25:33Z</time>
      </trkpt>
      <trkpt lat="46.57612" lon="5.55425">
        <ele>626.4</ele>
        <time>2021-11-20T12:25:34Z</time>
      </trkpt>
      <trkpt lat="46.57612" lon="5.55425">
        <ele>626.4</ele>
        <time>2021-11-20T12:25:35Z</time>
      </trkpt>
      <trkpt lat="46.57612" lon="5.55425">
        <ele>626.4</ele>
        <time>2021-11-20T12:25:36Z</time>
      </trkpt>
      <trkpt lat="46.57612" lon="5.55425">
        <ele>626.4</ele>
        <time>2021-11-20T12:25:37Z</time>
      </trkpt>
      <trkpt lat="46.57612" lon="5.55425">
        <ele>626.4</ele>
        <time>2021-11-20T12:25:38Z</time>
      </trkpt>
      <trkpt lat="46.57612" lon="5.55425">
        <ele>626.4</ele>
        <time>2021-11-20T12:25:39Z</time>
      </trkpt>
      <trkpt lat="46.57612" lon="5.55425">
        <ele>626.4</ele>
        <time>2021-11-20T12:25:40Z</time>
      </trkpt>
      <trkpt lat="46.57612" lon="5.55425">
        <ele>626.4</ele>
        <time>2021-11-20T12:25:41Z</time>
      </trkpt>
      <trkpt lat="46.57612" lon="5.55425">
        <ele>626.4</ele>
        <time>2021-11-20T12:25:42Z</time>
      </trkpt>
      <trkpt lat="46.57612" lon="5.55425">
        <ele>626.4</ele>
        <time>2021-11-20T12:25:43Z</time>
      </trkpt>
      <trkpt lat="46.57612" lon="5.55425">
        <ele>626.4</ele>
        <time>2021-11-20T12:25:44Z</time>
      </trkpt>
      <trkpt lat="46.57612" lon="5.55425">
        <ele>626.4</ele>
        <time>2021-11-20T12:25:45Z</time>
      </trkpt>
      <trkpt lat="46.57612" lon="5.55425">
        <ele>626.4</ele>
        <time>2021-11-20T12:25:46Z</time>
      </trkpt>
      <trkpt lat="46.57612" lon="5.55425">
        <ele>626.4</ele>
        <time>2021-11-20T12:25:47Z</time>
      </trkpt>
      <trkpt lat="46.57612" lon="5.55425">
        <ele>626.4</ele>
        <time>2021-11-20T12:25:48Z</time>
      </trkpt>
      <trkpt lat="46.57612" lon="5.55425">
        <ele>626.4</ele>
        <time>2021-11-20T12:25:49Z</time>
      </trkpt>
      <trkpt lat="46.57612" lon="5.55425">
        <ele>626.4</ele>
        <time>2021-11-20T12:25:50Z</time>
      </trkpt>
      <trkpt lat="46.57612" lon="5.55425">
        <ele>626.4</ele>
        <time>2021-11-20T12:25:51Z</time>
      </trkpt>
      <trkpt lat="46.57612" lon="5.55425">
        <ele>626.4</ele>
        <time>2021-11-20T12:25:52Z</time>
      </trkpt>
      <trkpt lat="46.57612" lon="5.55425">
        <ele>626.4</ele>
        <time>2021-11-20T12:25:53Z</time>
      </trkpt>
      <trkpt lat="46.57612" lon="5.55425">
        <ele>626.4</ele>
        <time>2021-11-20T12:25:54Z</time>
      </trkpt>
      <trkpt lat="46.57612" lon="5.55425">
        <ele>626.4</ele>
        <time>2021-11-20T12:25:55Z</time>
      </trkpt>
      <trkpt lat="46.57612" lon="5.55425">
        <ele>626.4</ele>
        <time>2021-11-20T12:25:56Z</time>
      </trkpt>
      <trkpt lat="46.57612" lon="5.55425">
        <ele>626.4</ele>
        <time>2021-11-20T12:25:57Z</time>
      </trkpt>
      <trkpt lat="46.57612" lon="5.55425">
        <ele>626.4</ele>
        <time>2021-11-20T12:25:58Z</time>
      </trkpt>
      <trkpt lat="46.57612" lon="5.55425">
        <ele>626.4</ele>
        <time>2021-11-20T12:25:59Z</time>
      </trkpt>
      <trkpt lat="46.57612" lon="5.55425">
        <ele>626.4</ele>
        <time>2021-11-20T12:26:00Z</time>
      </trkpt>
      <trkpt lat="46.57612" lon="5.55425">
        <ele>626.4</ele>
        <time>2021-11-20T12:26:01Z</time>
      </trkpt>
      <trkpt lat="46.57612" lon="5.55425">
        <ele>626.4</ele>
        <time>2021-11-20T12:26:02Z</time>
      </trkpt>
      <trkpt lat="46.57612" lon="5.55425">
        <ele>626.4</ele>
        <time>2021-11-20T12:26:03Z</time>
      </trkpt>
      <trkpt lat="46.57612" lon="5.55425">
        <ele>626.4</ele>
        <time>2021-11-20T12:26:04Z</time>
      </trkpt>
      <trkpt lat="46.57612" lon="5.55425">
        <ele>626.4</ele>
        <time>2021-11-20T12:26:05Z</time>
      </trkpt>
      <trkpt lat="46.57612" lon="5.55425">
        <ele>626.4</ele>
        <time>2021-11-20T12:26:06Z</time>
      </trkpt>
      <trkpt lat="46.57612" lon="5.55425">
        <ele>626.4</ele>
        <time>2021-11-20T12:26:07Z</time>
      </trkpt>
      <trkpt lat="46.57773" lon="5.55272">
        <ele>626.4</ele>
        <time>2021-11-20T12:26:08Z</time>
      </trkpt>
      <trkpt lat="46.57773" lon="5.55272">
        <ele>626.4</ele>
        <time>2021-11-20T12:26:09Z</time>
      </trkpt>
      <trkpt lat="46.57773" lon="5.55272">
        <ele>626.4</ele>
        <time>2021-11-20T12:26:10Z</time>
      </trkpt>
      <trkpt lat="46.57773" lon="5.55272">
        <ele>626.4</ele>
        <time>2021-11-20T12:26:11Z</time>
      </trkpt>
      <trkpt lat="46.57773" lon="5.55272">
        <ele>626.4</ele>
        <time>2021-11-20T12:26:12Z</time>
      </trkpt>
      <trkpt lat="46.57773" lon="5.55272">
        <ele>626.4</ele>
        <time>2021-11-20T12:26:13Z</time>
      </trkpt>
      <trkpt lat="46.57773" lon="5.55272">
        <ele>626.4</ele>
        <time>2021-11-20T12:26:14Z</time>
      </trkpt>
      <trkpt lat="46.57773" lon="5.55272">
        <ele>626.4</ele>
        <time>2021-11-20T12:26:15Z</time>
      </trkpt>
      <trkpt lat="46.57773" lon="5.55272">
        <ele>626.4</ele>
        <time>2021-11-20T12:26:16Z</time>
      </trkpt>
      <trkpt lat="46.57773" lon="5.55272">
        <ele>626.4</ele>
        <time>2021-11-20T12:26:17Z</time>
      </trkpt>
      <trkpt lat="46.57773" lon="5.55272">
        <ele>626.4</ele>
        <time>2021-11-20T12:26:18Z</time>
      </trkpt>
      <trkpt lat="46.57773" lon="5.55272">
        <ele>595.6</ele>
        <time>2021-11-20T12:26:19Z</time>
      </trkpt>
      <trkpt lat="46.57773" lon="5.55272">
        <ele>595.6</ele>
        <time>2021-11-20T12:26:20Z</time>
      </trkpt>
      <trkpt lat="46.57773" lon="5.55272">
        <ele>595.6</ele>
        <time>2021-11-20T12:26:21Z</time>
      </trkpt>
      <trkpt lat="46.57773" lon="5.55272">
        <ele>595.6</ele>
        <time>2021-11-20T12:26:22Z</time>
      </trkpt>
      <trkpt lat="46.57773" lon="5.55272">
        <ele>595.6</ele>
        <time>2021-11-20T12:26:23Z</time>
      </trkpt>
      <trkpt lat="46.57773" lon="5.55272">
        <ele>595.6</ele>
        <time>2021-11-20T12:26:24Z</time>
      </trkpt>
      <trkpt lat="46.57773" lon="5.55272">
        <ele>595.6</ele>
        <time>2021-11-20T12:26:25Z</time>
      </trkpt>
      <trkpt lat="46.57773" lon="5.55272">
        <ele>595.6</ele>
        <time>2021-11-20T12:26:26Z</time>
      </trkpt>
      <trkpt lat="46.57773" lon="5.55272">
        <ele>595.6</ele>
        <time>2021-11-20T12:26:27Z</time>
      </trkpt>
      <trkpt lat="46.57773" lon="5.55272">
        <ele>595.6</ele>
        <time>2021-11-20T12:26:28Z</time>
      </trkpt>
      <trkpt lat="46.57773" lon="5.55272">
        <ele>595.6</ele>
        <time>2021-11-20T12:26:29Z</time>
      </trkpt>
      <trkpt lat="46.57773" lon="5.55272">
        <ele>595.6</ele>
        <time>2021-11-20T12:26:30Z</time>
      </trkpt>
      <trkpt lat="46.57773" lon="5.55272">
        <ele>595.6</ele>
        <time>2021-11-20T12:26:31Z</time>
      </trkpt>
      <trkpt lat="46.57773" lon="5.55272">
        <ele>595.6</ele>
        <time>2021-11-20T12:26:32Z</time>
      </trkpt>
      <trkpt lat="46.57773" lon="5.55272">
        <ele>595.6</ele>
        <time>2021-11-20T12:26:33Z</time>
      </trkpt>
      <trkpt lat="46.57773" lon="5.55272">
        <ele>595.6</ele>
        <time>2021-11-20T12:26:34Z</time>
      </trkpt>
      <trkpt lat="46.57773" lon="5.55272">
        <ele>595.6</ele>
        <time>2021-11-20T12:26:35Z</time>
      </trkpt>
      <trkpt lat="46.57773" lon="5.55272">
        <ele>595.6</ele>
        <time>2021-11-20T12:26:36Z</time>
      </trkpt>
      <trkpt lat="46.57773" lon="5.55272">
        <ele>595.6</ele>
        <time>2021-11-20T12:26:37Z</time>
      </trkpt>
      <trkpt lat="46.57773" lon="5.55272">
        <ele>595.6</ele>
        <time>2021-11-20T12:26:38Z</time>
      </trkpt>
      <trkpt lat="46.57773" lon="5.55272">
        <ele>595.6</ele>
        <time>2021-11-20T12:26:39Z</time>
      </trkpt>
      <trkpt lat="46.57773" lon="5.55272">
        <ele>595.6</ele>
        <time>2021-11-20T12:26:40Z</time>
      </trkpt>
      <trkpt lat="46.57773" lon="5.55272">
        <ele>595.6</ele>
        <time>2021-11-20T12:26:41Z</time>
      </trkpt>
      <trkpt lat="46.57773" lon="5.55272">
        <ele>595.6</ele>
        <time>2021-11-20T12:26:42Z</time>
      </trkpt>
      <trkpt lat="46.57773" lon="5.55272">
        <ele>595.6</ele>
        <time>2021-11-20T12:26:43Z</time>
      </trkpt>
      <trkpt lat="46.57773" lon="5.55272">
        <ele>595.6</ele>
        <time>2021-11-20T12:26:44Z</time>
      </trkpt>
      <trkpt lat="46.57773" lon="5.55272">
        <ele>595.6</ele>
        <time>2021-11-20T12:26:45Z</time>
      </trkpt>
      <trkpt lat="46.57773" lon="5.55272">
        <ele>595.6</ele>
        <time>2021-11-20T12:26:46Z</time>
      </trkpt>
      <trkpt lat="46.57773" lon="5.55272">
        <ele>595.6</ele>
        <time>2021-11-20T12:26:47Z</time>
      </trkpt>
      <trkpt lat="46.57773" lon="5.55272">
        <ele>595.6</ele>
        <time>2021-11-20T12:26:48Z</time>
      </trkpt>
      <trkpt lat="46.57773" lon="5.55272">
        <ele>595.6</ele>
        <time>2021-11-20T12:26:49Z</time>
      </trkpt>
      <trkpt lat="46.57773" lon="5.55272">
        <ele>595.6</ele>
        <time>2021-11-20T12:26:50Z</time>
      </trkpt>
      <trkpt lat="46.57773" lon="5.55272">
        <ele>595.6</ele>
        <time>2021-11-20T12:26:51Z</time>
      </trkpt>
      <trkpt lat="46.57773" lon="5.55272">
        <ele>595.6</ele>
        <time>2021-11-20T12:26:52Z</time>
      </trkpt>
      <trkpt lat="46.57773" lon="5.55272">
        <ele>595.6</ele>
        <time>2021-11-20T12:26:53Z</time>
      </trkpt>
      <trkpt lat="46.57773" lon="5.55272">
        <ele>595.6</ele>
        <time>2021-11-20T12:26:54Z</time>
      </trkpt>
      <trkpt lat="46.57773" lon="5.55272">
        <ele>595.6</ele>
        <time>2021-11-20T12:26:55Z</time>
      </trkpt>
      <trkpt lat="46.57773" lon="5.55272">
        <ele>595.6</ele>
        <time>2021-11-20T12:26:56Z</time>
      </trkpt>
      <trkpt lat="46.57773" lon="5.55272">
        <ele>595.6</ele>
        <time>2021-11-20T12:26:57Z</time>
      </trkpt>
      <trkpt lat="46.57773" lon="5.55272">
        <ele>595.6</ele>
        <time>2021-11-20T12:26:58Z</time>
      </trkpt>
      <trkpt lat="46.57773" lon="5.55272">
        <ele>595.6</ele>
        <time>2021-11-20T12:26:59Z</time>
      </trkpt>
      <trkpt lat="46.57773" lon="5.55272">
        <ele>595.6</ele>
        <time>2021-11-20T12:27:00Z</time>
      </trkpt>
      <trkpt lat="46.57773" lon="5.55272">
        <ele>595.6</ele>
        <time>2021-11-20T12:27:01Z</time>
      </trkpt>
      <trkpt lat="46.57773" lon="5.55272">
        <ele>595.6</ele>
        <time>2021-11-20T12:27:02Z</time>
      </trkpt>
      <trkpt lat="46.57773" lon="5.55272">
        <ele>595.6</ele>
        <time>2021-11-20T12:27:03Z</time>
      </trkpt>
      <trkpt lat="46.57773" lon="5.55272">
        <ele>595.6</ele>
        <time>2021-11-20T12:27:04Z</time>
      </trkpt>
      <trkpt lat="46.57773" lon="5.55272">
        <ele>595.6</ele>
        <time>2021-11-20T12:27:05Z</time>
      </trkpt>
      <trkpt lat="46.57773" lon="5.55272">
        <ele>595.6</ele>
        <time>2021-11-20T12:27:06Z</time>
      </trkpt>
      <trkpt lat="46.57773" lon="5.55272">
        <ele>595.6</ele>
        <time>2021-11-20T12:27:07Z</time>
      </trkpt>
      <trkpt lat="46.57677" lon="5.55081">
        <ele>595.6</ele>
        <time>2021-11-20T12:27:08Z</time>
      </trkpt>
      <trkpt lat="46.57677" lon="5.55081">
        <ele>595.6</ele>
        <time>2021-11-20T12:27:09Z</time>
      </trkpt>
      <trkpt lat="46.57677" lon="5.55081">
        <ele>595.6</ele>
        <time>2021-11-20T12:27:10Z</time>
      </trkpt>
      <trkpt lat="46.57677" lon="5.55081">
        <ele>595.6</ele>
        <time>2021-11-20T12:27:11Z</time>
      </trkpt>
      <trkpt lat="46.57677" lon="5.55081">
        <ele>595.6</ele>
        <time>2021-11-20T12:27:12Z</time>
      </trkpt>
      <trkpt lat="46.57677" lon="5.55081">
        <ele>595.6</ele>
        <time>2021-11-20T12:27:13Z</time>
      </trkpt>
      <trkpt lat="46.57677" lon="5.55081">
        <ele>595.6</ele>
        <time>2021-11-20T12:27:14Z</time>
      </trkpt>
      <trkpt lat="46.57677" lon="5.55081">
        <ele>595.6</ele>
        <time>2021-11-20T12:27:15Z</time>
      </trkpt>
      <trkpt lat="46.57677" lon="5.55081">
        <ele>595.6</ele>
        <time>2021-11-20T12:27:16Z</time>
      </trkpt>
      <trkpt lat="46.57677" lon="5.55081">
        <ele>595.6</ele>
        <time>2021-11-20T12:27:17Z</time>
      </trkpt>
      <trkpt lat="46.57677" lon="5.55081">
        <ele>595.6</ele>
        <time>2021-11-20T12:27:18Z</time>
      </trkpt>
      <trkpt lat="46.57677" lon="5.55081">
        <ele>565.2</ele>
        <time>2021-11-20T12:27:19Z</time>
      </trkpt>
      <trkpt lat="46.57677" lon="5.55081">
        <ele>565.2</ele>
        <time>2021-11-20T12:27:20Z</time>
      </trkpt>
      <trkpt lat="46.57677" lon="5.55081">
        <ele>565.2</ele>
        <time>2021-11-20T12:27:21Z</time>
      </trkpt>
      <trkpt lat="46.57677" lon="5.55081">
        <ele>565.2</ele>
        <time>2021-11-20T12:27:22Z</time>
      </trkpt>
      <trkpt lat="46.57677" lon="5.55081">
        <ele>565.2</ele>
        <time>2021-11-20T12:27:23Z</time>
      </trkpt>
      <trkpt lat="46.57677" lon="5.55081">
        <ele>565.2</ele>
        <time>2021-11-20T12:27:24Z</time>
      </trkpt>
      <trkpt lat="46.57677" lon="5.55081">
        <ele>565.2</ele>
        <time>2021-11-20T12:27:25Z</time>
      </trkpt>
      <trkpt lat="46.57677" lon="5.55081">
        <ele>565.2</ele>
        <time>2021-11-20T12:27:26Z</time>
      </trkpt>
      <trkpt lat="46.57677" lon="5.55081">
        <ele>565.2</ele>
        <time>2021-11-20T12:27:27Z</time>
      </trkpt>
      <trkpt lat="46.57677" lon="5.55081">
        <ele>565.2</ele>
        <time>2021-11-20T12:27:28Z</time>
      </trkpt>
      <trkpt lat="46.57677" lon="5.55081">
        <ele>565.2</ele>
        <time>2021-11-20T12:27:29Z</time>
      </trkpt>
      <trkpt lat="46.57677" lon="5.55081">
        <ele>565.2</ele>
        <time>2021-11-20T12:27:30Z</time>
      </trkpt>
      <trkpt lat="46.57677" lon="5.55081">
        <ele>565.2</ele>
        <time>2021-11-20T12:27:31Z</time>
      </trkpt>
      <trkpt lat="46.57677" lon="5.55081">
        <ele>565.2</ele>
        <time>2021-11-20T12:27:32Z</time>
      </trkpt>
      <trkpt lat="46.57677" lon="5.55081">
        <ele>565.2</ele>
        <time>2021-11-20T12:27:33Z</time>
      </trkpt>
      <trkpt lat="46.57677" lon="5.55081">
        <ele>565.2</ele>
        <time>2021-11-20T12:27:34Z</time>
      </trkpt>
      <trkpt lat="46.57677" lon="5.55081">
        <ele>565.2</ele>
        <time>2021-11-20T12:27:35Z</time>
      </trkpt>
      <trkpt lat="46.57677" lon="5.55081">
        <ele>565.2</ele>
        <time>2021-11-20T12:27:36Z</time>
      </trkpt>
      <trkpt lat="46.57677" lon="5.55081">
        <ele>565.2</ele>
        <time>2021-11-20T12:27:37Z</time>
      </trkpt>
      <trkpt lat="46.57677" lon="5.55081">
        <ele>565.2</ele>
        <time>2021-11-20T12:27:38Z</time>
      </trkpt>
      <trkpt lat="46.57677" lon="5.55081">
        <ele>565.2</ele>
        <time>2021-11-20T12:27:39Z</time>
      </trkpt>
      <trkpt lat="46.57677" lon="5.55081">
        <ele>565.2</ele>
        <time>2021-11-20T12:27:40Z</time>
      </trkpt>
      <trkpt lat="46.57677" lon="5.55081">
        <ele>565.2</ele>
        <time>2021-11-20T12:27:41Z</time>
      </trkpt>
      <trkpt lat="46.57677" lon="5.55081">
        <ele>565.2</ele>
        <time>2021-11-20T12:27:42Z</time>
      </trkpt>
      <trkpt lat="46.57677" lon="5.55081">
        <ele>565.2</ele>
        <time>2021-11-20T12:27:43Z</time>
      </trkpt>
      <trkpt lat="46.57677" lon="5.55081">
        <ele>565.2</ele>
        <time>2021-11-20T12:27:44Z</time>
      </trkpt>
      <trkpt lat="46.57677" lon="5.55081">
        <ele>565.2</ele>
        <time>2021-11-20T12:27:45Z</time>
      </trkpt>
      <trkpt lat="46.57677" lon="5.55081">
        <ele>565.2</ele>
        <time>2021-11-20T12:27:46Z</time>
      </trkpt>
      <trkpt lat="46.57677" lon="5.55081">
        <ele>565.2</ele>
        <time>2021-11-20T12:27:47Z</time>
      </trkpt>
      <trkpt lat="46.57677" lon="5.55081">
        <ele>565.2</ele>
        <time>2021-11-20T12:27:48Z</time>
      </trkpt>
      <trkpt lat="46.57677" lon="5.55081">
        <ele>565.2</ele>
        <time>2021-11-20T12:27:49Z</time>
      </trkpt>
      <trkpt lat="46.57677" lon="5.55081">
        <ele>565.2</ele>
        <time>2021-11-20T12:27:50Z</time>
      </trkpt>
      <trkpt lat="46.57677" lon="5.55081">
        <ele>565.2</ele>
        <time>2021-11-20T12:27:51Z</time>
      </trkpt>
      <trkpt lat="46.57677" lon="5.55081">
        <ele>565.2</ele>
        <time>2021-11-20T12:27:52Z</time>
      </trkpt>
      <trkpt lat="46.57677" lon="5.55081">
        <ele>565.2</ele>
        <time>2021-11-20T12:27:53Z</time>
      </trkpt>
      <trkpt lat="46.57677" lon="5.55081">
        <ele>565.2</ele>
        <time>2021-11-20T12:27:54Z</time>
      </trkpt>
      <trkpt lat="46.57677" lon="5.55081">
        <ele>565.2</ele>
        <time>2021-11-20T12:27:55Z</time>
      </trkpt>
      <trkpt lat="46.57677" lon="5.55081">
        <ele>565.2</ele>
        <time>2021-11-20T12:27:56Z</time>
      </trkpt>
      <trkpt lat="46.57677" lon="5.55081">
        <ele>565.2</ele>
        <time>2021-11-20T12:27:57Z</time>
      </trkpt>
      <trkpt lat="46.57677" lon="5.55081">
        <ele>565.2</ele>
        <time>2021-11-20T12:27:58Z</time>
      </trkpt>
      <trkpt lat="46.57677" lon="5.55081">
        <ele>565.2</ele>
        <time>2021-11-20T12:27:59Z</time>
      </trkpt>
      <trkpt lat="46.57677" lon="5.55081">
        <ele>565.2</ele>
        <time>2021-11-20T12:28:00Z</time>
      </trkpt>
      <trkpt lat="46.57677" lon="5.55081">
        <ele>565.2</ele>
        <time>2021-11-20T12:28:01Z</time>
      </trkpt>
      <trkpt lat="46.57677" lon="5.55081">
        <ele>565.2</ele>
        <time>2021-11-20T12:28:02Z</time>
      </trkpt>
      <trkpt lat="46.57677" lon="5.55081">
        <ele>565.2</ele>
        <time>2021-11-20T12:28:03Z</time>
      </trkpt>
      <trkpt lat="46.57677" lon="5.55081">
        <ele>565.2</ele>
        <time>2021-11-20T12:28:04Z</time>
      </trkpt>
      <trkpt lat="46.57677" lon="5.55081">
        <ele>565.2</ele>
        <time>2021-11-20T12:28:05Z</time>
      </trkpt>
      <trkpt lat="46.57677" lon="5.55081">
        <ele>565.2</ele>
        <time>2021-11-20T12:28:06Z</time>
      </trkpt>
      <trkpt lat="46.57677" lon="5.55081">
        <ele>565.2</ele>
        <time>2021-11-20T12:28:07Z</time>
      </trkpt>
      <trkpt lat="46.57538" lon="5.54905">
        <ele>565.2</ele>
        <time>2021-11-20T12:28:08Z</time>
      </trkpt>
      <trkpt lat="46.57538" lon="5.54905">
        <ele>565.2</ele>
        <time>2021-11-20T12:28:09Z</time>
      </trkpt>
      <trkpt lat="46.57538" lon="5.54905">
        <ele>565.2</ele>
        <time>2021-11-20T12:28:10Z</time>
      </trkpt>
      <trkpt lat="46.57538" lon="5.54905">
        <ele>565.2</ele>
        <time>2021-11-20T12:28:11Z</time>
      </trkpt>
      <trkpt lat="46.57538" lon="5.54905">
        <ele>565.2</ele>
        <time>2021-11-20T12:28:12Z</time>
      </trkpt>
      <trkpt lat="46.57538" lon="5.54905">
        <ele>565.2</ele>
        <time>2021-11-20T12:28:13Z</time>
      </trkpt>
      <trkpt lat="46.57538" lon="5.54905">
        <ele>565.2</ele>
        <time>2021-11-20T12:28:14Z</time>
      </trkpt>
      <trkpt lat="46.57538" lon="5.54905">
        <ele>565.2</ele>
        <time>2021-11-20T12:28:15Z</time>
      </trkpt>
      <trkpt lat="46.57538" lon="5.54905">
        <ele>565.2</ele>
        <time>2021-11-20T12:28:16Z</time>
      </trkpt>
      <trkpt lat="46.57538" lon="5.54905">
        <ele>565.2</ele>
        <time>2021-11-20T12:28:17Z</time>
      </trkpt>
      <trkpt lat="46.57538" lon="5.54905">
        <ele>565.2</ele>
        <time>2021-11-20T12:28:18Z</time>
      </trkpt>
      <trkpt lat="46.57538" lon="5.54905">
        <ele>542.4</ele>
        <time>2021-11-20T12:28:19Z</time>
      </trkpt>
      <trkpt lat="46.57538" lon="5.54905">
        <ele>542.4</ele>
        <time>2021-11-20T12:28:20Z</time>
      </trkpt>
      <trkpt lat="46.57538" lon="5.54905">
        <ele>542.4</ele>
        <time>2021-11-20T12:28:21Z</time>
      </trkpt>
      <trkpt lat="46.57538" lon="5.54905">
        <ele>542.4</ele>
        <time>2021-11-20T12:28:22Z</time>
      </trkpt>
      <trkpt lat="46.57538" lon="5.54905">
        <ele>542.4</ele>
        <time>2021-11-20T12:28:23Z</time>
      </trkpt>
      <trkpt lat="46.57538" lon="5.54905">
        <ele>542.4</ele>
        <time>2021-11-20T12:28:24Z</time>
      </trkpt>
      <trkpt lat="46.57538" lon="5.54905">
        <ele>542.4</ele>
        <time>2021-11-20T12:28:25Z</time>
      </trkpt>
      <trkpt lat="46.57538" lon="5.54905">
        <ele>542.4</ele>
        <time>2021-11-20T12:28:26Z</time>
      </trkpt>
      <trkpt lat="46.57538" lon="5.54905">
        <ele>542.4</ele>
        <time>2021-11-20T12:28:27Z</time>
      </trkpt>
      <trkpt lat="46.57538" lon="5.54905">
        <ele>542.4</ele>
        <time>2021-11-20T12:28:28Z</time>
      </trkpt>
      <trkpt lat="46.57538" lon="5.54905">
        <ele>542.4</ele>
        <time>2021-11-20T12:28:29Z</time>
      </trkpt>
      <trkpt lat="46.57538" lon="5.54905">
        <ele>542.4</ele>
        <time>2021-11-20T12:28:30Z</time>
      </trkpt>
      <trkpt lat="46.57538" lon="5.54905">
        <ele>542.4</ele>
        <time>2021-11-20T12:28:31Z</time>
      </trkpt>
      <trkpt lat="46.57538" lon="5.54905">
        <ele>542.4</ele>
        <time>2021-11-20T12:28:32Z</time>
      </trkpt>
      <trkpt lat="46.57538" lon="5.54905">
        <ele>542.4</ele>
        <time>2021-11-20T12:28:33Z</time>
      </trkpt>
      <trkpt lat="46.57538" lon="5.54905">
        <ele>542.4</ele>
        <time>2021-11-20T12:28:34Z</time>
      </trkpt>
      <trkpt lat="46.57538" lon="5.54905">
        <ele>542.4</ele>
        <time>2021-11-20T12:28:35Z</time>
      </trkpt>
      <trkpt lat="46.57538" lon="5.54905">
        <ele>542.4</ele>
        <time>2021-11-20T12:28:36Z</time>
      </trkpt>
      <trkpt lat="46.57538" lon="5.54905">
        <ele>542.4</ele>
        <time>2021-11-20T12:28:37Z</time>
      </trkpt>
      <trkpt lat="46.57538" lon="5.54905">
        <ele>542.4</ele>
        <time>2021-11-20T12:28:38Z</time>
      </trkpt>
      <trkpt lat="46.57538" lon="5.54905">
        <ele>542.4</ele>
        <time>2021-11-20T12:28:39Z</time>
      </trkpt>
      <trkpt lat="46.57538" lon="5.54905">
        <ele>542.4</ele>
        <time>2021-11-20T12:28:40Z</time>
      </trkpt>
      <trkpt lat="46.57538" lon="5.54905">
        <ele>542.4</ele>
        <time>2021-11-20T12:28:41Z</time>
      </trkpt>
      <trkpt lat="46.57538" lon="5.54905">
        <ele>542.4</ele>
        <time>2021-11-20T12:28:42Z</time>
      </trkpt>
      <trkpt lat="46.57538" lon="5.54905">
        <ele>542.4</ele>
        <time>2021-11-20T12:28:43Z</time>
      </trkpt>
      <trkpt lat="46.57538" lon="5.54905">
        <ele>542.4</ele>
        <time>2021-11-20T12:28:44Z</time>
      </trkpt>
      <trkpt lat="46.57538" lon="5.54905">
        <ele>542.4</ele>
        <time>2021-11-20T12:28:45Z</time>
      </trkpt>
      <trkpt lat="46.57538" lon="5.54905">
        <ele>542.4</ele>
        <time>2021-11-20T12:28:46Z</time>
      </trkpt>
      <trkpt lat="46.57538" lon="5.54905">
        <ele>542.4</ele>
        <time>2021-11-20T12:28:47Z</time>
      </trkpt>
      <trkpt lat="46.57538" lon="5.54905">
        <ele>542.4</ele>
        <time>2021-11-20T12:28:48Z</time>
      </trkpt>
      <trkpt lat="46.57538" lon="5.54905">
        <ele>542.4</ele>
        <time>2021-11-20T12:28:49Z</time>
      </trkpt>
      <trkpt lat="46.57538" lon="5.54905">
        <ele>542.4</ele>
        <time>2021-11-20T12:28:50Z</time>
      </trkpt>
      <trkpt lat="46.57538" lon="5.54905">
        <ele>542.4</ele>
        <time>2021-11-20T12:28:51Z</time>
      </trkpt>
      <trkpt lat="46.57538" lon="5.54905">
        <ele>542.4</ele>
        <time>2021-11-20T12:28:52Z</time>
      </trkpt>
      <trkpt lat="46.57538" lon="5.54905">
        <ele>542.4</ele>
        <time>2021-11-20T12:28:53Z</time>
      </trkpt>
      <trkpt lat="46.57538" lon="5.54905">
        <ele>542.4</ele>
        <time>2021-11-20T12:28:54Z</time>
      </trkpt>
      <trkpt lat="46.57538" lon="5.54905">
        <ele>542.4</ele>
        <time>2021-11-20T12:28:55Z</time>
      </trkpt>
      <trkpt lat="46.57538" lon="5.54905">
        <ele>542.4</ele>
        <time>2021-11-20T12:28:56Z</time>
      </trkpt>
      <trkpt lat="46.57538" lon="5.54905">
        <ele>542.4</ele>
        <time>2021-11-20T12:28:57Z</time>
      </trkpt>
      <trkpt lat="46.57538" lon="5.54905">
        <ele>542.4</ele>
        <time>2021-11-20T12:28:58Z</time>
      </trkpt>
      <trkpt lat="46.57538" lon="5.54905">
        <ele>542.4</ele>
        <time>2021-11-20T12:28:59Z</time>
      </trkpt>
      <trkpt lat="46.57538" lon="5.54905">
        <ele>542.4</ele>
        <time>2021-11-20T12:29:00Z</time>
      </trkpt>
      <trkpt lat="46.57538" lon="5.54905">
        <ele>542.4</ele>
        <time>2021-11-20T12:29:01Z</time>
      </trkpt>
      <trkpt lat="46.57538" lon="5.54905">
        <ele>542.4</ele>
        <time>2021-11-20T12:29:02Z</time>
      </trkpt>
      <trkpt lat="46.57538" lon="5.54905">
        <ele>542.4</ele>
        <time>2021-11-20T12:29:03Z</time>
      </trkpt>
      <trkpt lat="46.57538" lon="5.54905">
        <ele>542.4</ele>
        <time>2021-11-20T12:29:04Z</time>
      </trkpt>
      <trkpt lat="46.57538" lon="5.54905">
        <ele>542.4</ele>
        <time>2021-11-20T12:29:05Z</time>
      </trkpt>
      <trkpt lat="46.57538" lon="5.54905">
        <ele>542.4</ele>
        <time>2021-11-20T12:29:06Z</time>
      </trkpt>
      <trkpt lat="46.57538" lon="5.54905">
        <ele>542.4</ele>
        <time>2021-11-20T12:29:07Z</time>
      </trkpt>
      <trkpt lat="46.57657" lon="5.54898">
        <ele>542.4</ele>
        <time>2021-11-20T12:29:08Z</time>
      </trkpt>
      <trkpt lat="46.57657" lon="5.54898">
        <ele>542.4</ele>
        <time>2021-11-20T12:29:09Z</time>
      </trkpt>
      <trkpt lat="46.57657" lon="5.54898">
        <ele>542.4</ele>
        <time>2021-11-20T12:29:10Z</time>
      </trkpt>
      <trkpt lat="46.57657" lon="5.54898">
        <ele>542.4</ele>
        <time>2021-11-20T12:29:11Z</time>
      </trkpt>
      <trkpt lat="46.57657" lon="5.54898">
        <ele>542.4</ele>
        <time>2021-11-20T12:29:12Z</time>
      </trkpt>
      <trkpt lat="46.57657" lon="5.54898">
        <ele>542.4</ele>
        <time>2021-11-20T12:29:13Z</time>
      </trkpt>
      <trkpt lat="46.57657" lon="5.54898">
        <ele>542.4</ele>
        <time>2021-11-20T12:29:14Z</time>
      </trkpt>
      <trkpt lat="46.57657" lon="5.54898">
        <ele>542.4</ele>
        <time>2021-11-20T12:29:15Z</time>
      </trkpt>
      <trkpt lat="46.57657" lon="5.54898">
        <ele>542.4</ele>
        <time>2021-11-20T12:29:16Z</time>
      </trkpt>
      <trkpt lat="46.57657" lon="5.54898">
        <ele>542.4</ele>
        <time>2021-11-20T12:29:17Z</time>
      </trkpt>
      <trkpt lat="46.57657" lon="5.54898">
        <ele>542.4</ele>
        <time>2021-11-20T12:29:18Z</time>
      </trkpt>
      <trkpt lat="46.57657" lon="5.54898">
        <ele>528.4</ele>
        <time>2021-11-20T12:29:19Z</time>
      </trkpt>
      <trkpt lat="46.57657" lon="5.54898">
        <ele>528.4</ele>
        <time>2021-11-20T12:29:20Z</time>
      </trkpt>
      <trkpt lat="46.57657" lon="5.54898">
        <ele>528.4</ele>
        <time>2021-11-20T12:29:21Z</time>
      </trkpt>
      <trkpt lat="46.57657" lon="5.54898">
        <ele>528.4</ele>
        <time>2021-11-20T12:29:22Z</time>
      </trkpt>
      <trkpt lat="46.57657" lon="5.54898">
        <ele>528.4</ele>
        <time>2021-11-20T12:29:23Z</time>
      </trkpt>
      <trkpt lat="46.57657" lon="5.54898">
        <ele>528.4</ele>
        <time>2021-11-20T12:29:24Z</time>
      </trkpt>
      <trkpt lat="46.57657" lon="5.54898">
        <ele>528.4</ele>
        <time>2021-11-20T12:29:25Z</time>
      </trkpt>
      <trkpt lat="46.57657" lon="5.54898">
        <ele>528.4</ele>
        <time>2021-11-20T12:29:26Z</time>
      </trkpt>
      <trkpt lat="46.57657" lon="5.54898">
        <ele>528.4</ele>
        <time>2021-11-20T12:29:27Z</time>
      </trkpt>
      <trkpt lat="46.57657" lon="5.54898">
        <ele>528.4</ele>
        <time>2021-11-20T12:29:28Z</time>
      </trkpt>
      <trkpt lat="46.57657" lon="5.54898">
        <ele>528.4</ele>
        <time>2021-11-20T12:29:29Z</time>
      </trkpt>
      <trkpt lat="46.57657" lon="5.54898">
        <ele>528.4</ele>
        <time>2021-11-20T12:29:30Z</time>
      </trkpt>
      <trkpt lat="46.57657" lon="5.54898">
        <ele>528.4</ele>
        <time>2021-11-20T12:29:31Z</time>
      </trkpt>
      <trkpt lat="46.57657" lon="5.54898">
        <ele>528.4</ele>
        <time>2021-11-20T12:29:32Z</time>
      </trkpt>
      <trkpt lat="46.57657" lon="5.54898">
        <ele>528.4</ele>
        <time>2021-11-20T12:29:33Z</time>
      </trkpt>
      <trkpt lat="46.57657" lon="5.54898">
        <ele>528.4</ele>
        <time>2021-11-20T12:29:34Z</time>
      </trkpt>
      <trkpt lat="46.57657" lon="5.54898">
        <ele>528.4</ele>
        <time>2021-11-20T12:29:35Z</time>
      </trkpt>
      <trkpt lat="46.57657" lon="5.54898">
        <ele>528.4</ele>
        <time>2021-11-20T12:29:36Z</time>
      </trkpt>
      <trkpt lat="46.57657" lon="5.54898">
        <ele>528.4</ele>
        <time>2021-11-20T12:29:37Z</time>
      </trkpt>
      <trkpt lat="46.57657" lon="5.54898">
        <ele>528.4</ele>
        <time>2021-11-20T12:29:38Z</time>
      </trkpt>
      <trkpt lat="46.57657" lon="5.54898">
        <ele>528.4</ele>
        <time>2021-11-20T12:29:39Z</time>
      </trkpt>
      <trkpt lat="46.57657" lon="5.54898">
        <ele>528.4</ele>
        <time>2021-11-20T12:29:40Z</time>
      </trkpt>
      <trkpt lat="46.57657" lon="5.54898">
        <ele>528.4</ele>
        <time>2021-11-20T12:29:41Z</time>
      </trkpt>
      <trkpt lat="46.57657" lon="5.54898">
        <ele>528.4</ele>
        <time>2021-11-20T12:29:42Z</time>
      </trkpt>
      <trkpt lat="46.57657" lon="5.54898">
        <ele>528.4</ele>
        <time>2021-11-20T12:29:43Z</time>
      </trkpt>
      <trkpt lat="46.57657" lon="5.54898">
        <ele>528.4</ele>
        <time>2021-11-20T12:29:44Z</time>
      </trkpt>
      <trkpt lat="46.57657" lon="5.54898">
        <ele>528.4</ele>
        <time>2021-11-20T12:29:45Z</time>
      </trkpt>
      <trkpt lat="46.57657" lon="5.54898">
        <ele>528.4</ele>
        <time>2021-11-20T12:29:46Z</time>
      </trkpt>
      <trkpt lat="46.57657" lon="5.54898">
        <ele>528.4</ele>
        <time>2021-11-20T12:29:47Z</time>
      </trkpt>
      <trkpt lat="46.57657" lon="5.54898">
        <ele>528.4</ele>
        <time>2021-11-20T12:29:48Z</time>
      </trkpt>
      <trkpt lat="46.57657" lon="5.54898">
        <ele>528.4</ele>
        <time>2021-11-20T12:29:49Z</time>
      </trkpt>
      <trkpt lat="46.57657" lon="5.54898">
        <ele>528.4</ele>
        <time>2021-11-20T12:29:50Z</time>
      </trkpt>
      <trkpt lat="46.57657" lon="5.54898">
        <ele>528.4</ele>
        <time>2021-11-20T12:29:51Z</time>
      </trkpt>
      <trkpt lat="46.57657" lon="5.54898">
        <ele>528.4</ele>
        <time>2021-11-20T12:29:52Z</time>
      </trkpt>
      <trkpt lat="46.57657" lon="5.54898">
        <ele>528.4</ele>
        <time>2021-11-20T12:29:53Z</time>
      </trkpt>
      <trkpt lat="46.57657" lon="5.54898">
        <ele>528.4</ele>
        <time>2021-11-20T12:29:54Z</time>
      </trkpt>
      <trkpt lat="46.57657" lon="5.54898">
        <ele>528.4</ele>
        <time>2021-11-20T12:29:55Z</time>
      </trkpt>
      <trkpt lat="46.57657" lon="5.54898">
        <ele>528.4</ele>
        <time>2021-11-20T12:29:56Z</time>
      </trkpt>
      <trkpt lat="46.57657" lon="5.54898">
        <ele>528.4</ele>
        <time>2021-11-20T12:29:57Z</time>
      </trkpt>
      <trkpt lat="46.57657" lon="5.54898">
        <ele>528.4</ele>
        <time>2021-11-20T12:29:59Z</time>
      </trkpt>
      <trkpt lat="46.57657" lon="5.54898">
        <ele>528.4</ele>
        <time>2021-11-20T12:30:00Z</time>
      </trkpt>
      <trkpt lat="46.57657" lon="5.54898">
        <ele>528.4</ele>
        <time>2021-11-20T12:30:01Z</time>
      </trkpt>
      <trkpt lat="46.57657" lon="5.54898">
        <ele>528.4</ele>
        <time>2021-11-20T12:30:02Z</time>
      </trkpt>
      <trkpt lat="46.57657" lon="5.54898">
        <ele>528.4</ele>
        <time>2021-11-20T12:30:03Z</time>
      </trkpt>
      <trkpt lat="46.57657" lon="5.54898">
        <ele>528.4</ele>
        <time>2021-11-20T12:30:07Z</time>
      </trkpt>
      <trkpt lat="46.57999" lon="5.55008">
        <ele>528.4</ele>
        <time>2021-11-20T12:30:08Z</time>
      </trkpt>
      <trkpt lat="46.57999" lon="5.55008">
        <ele>528.4</ele>
        <time>2021-11-20T12:30:09Z</time>
      </trkpt>
      <trkpt lat="46.57999" lon="5.55008">
        <ele>528.4</ele>
        <time>2021-11-20T12:30:10Z</time>
      </trkpt>
      <trkpt lat="46.57999" lon="5.55008">
        <ele>528.4</ele>
        <time>2021-11-20T12:30:11Z</time>
      </trkpt>
      <trkpt lat="46.57999" lon="5.55008">
        <ele>528.4</ele>
        <time>2021-11-20T12:30:12Z</time>
      </trkpt>
      <trkpt lat="46.57999" lon="5.55008">
        <ele>528.4</ele>
        <time>2021-11-20T12:30:13Z</time>
      </trkpt>
      <trkpt lat="46.57999" lon="5.55008">
        <ele>528.4</ele>
        <time>2021-11-20T12:30:14Z</time>
      </trkpt>
      <trkpt lat="46.57999" lon="5.55008">
        <ele>528.4</ele>
        <time>2021-11-20T12:30:15Z</time>
      </trkpt>
      <trkpt lat="46.57999" lon="5.55008">
        <ele>528.4</ele>
        <time>2021-11-20T12:30:16Z</time>
      </trkpt>
      <trkpt lat="46.57999" lon="5.55008">
        <ele>528.4</ele>
        <time>2021-11-20T12:30:17Z</time>
      </trkpt>
      <trkpt lat="46.57999" lon="5.55008">
        <ele>528.4</ele>
        <time>2021-11-20T12:30:18Z</time>
      </trkpt>
      <trkpt lat="46.57999" lon="5.55008">
        <ele>517.6</ele>
        <time>2021-11-20T12:30:19Z</time>
      </trkpt>
      <trkpt lat="46.57999" lon="5.55008">
        <ele>517.6</ele>
        <time>2021-11-20T12:30:20Z</time>
      </trkpt>
      <trkpt lat="46.57999" lon="5.55008">
        <ele>517.6</ele>
        <time>2021-11-20T12:30:21Z</time>
      </trkpt>
      <trkpt lat="46.57999" lon="5.55008">
        <ele>517.6</ele>
        <time>2021-11-20T12:30:22Z</time>
      </trkpt>
      <trkpt lat="46.57999" lon="5.55008">
        <ele>517.6</ele>
        <time>2021-11-20T12:30:23Z</time>
      </trkpt>
      <trkpt lat="46.57999" lon="5.55008">
        <ele>517.6</ele>
        <time>2021-11-20T12:30:24Z</time>
      </trkpt>
      <trkpt lat="46.57999" lon="5.55008">
        <ele>517.6</ele>
        <time>2021-11-20T12:30:25Z</time>
      </trkpt>
      <trkpt lat="46.57999" lon="5.55008">
        <ele>517.6</ele>
        <time>2021-11-20T12:30:26Z</time>
      </trkpt>
      <trkpt lat="46.57999" lon="5.55008">
        <ele>517.6</ele>
        <time>2021-11-20T12:30:27Z</time>
      </trkpt>
      <trkpt lat="46.57999" lon="5.55008">
        <ele>517.6</ele>
        <time>2021-11-20T12:30:28Z</time>
      </trkpt>
      <trkpt lat="46.57999" lon="5.55008">
        <ele>517.6</ele>
        <time>2021-11-20T12:30:29Z</time>
      </trkpt>
      <trkpt lat="46.57999" lon="5.55008">
        <ele>517.6</ele>
        <time>2021-11-20T12:30:30Z</time>
      </trkpt>
      <trkpt lat="46.57999" lon="5.55008">
        <ele>517.6</ele>
        <time>2021-11-20T12:30:31Z</time>
      </trkpt>
      <trkpt lat="46.57999" lon="5.55008">
        <ele>517.6</ele>
        <time>2021-11-20T12:30:32Z</time>
      </trkpt>
      <trkpt lat="46.57999" lon="5.55008">
        <ele>517.6</ele>
        <time>2021-11-20T12:30:33Z</time>
      </trkpt>
      <trkpt lat="46.57999" lon="5.55008">
        <ele>517.6</ele>
        <time>2021-11-20T12:30:34Z</time>
      </trkpt>
      <trkpt lat="46.57999" lon="5.55008">
        <ele>517.6</ele>
        <time>2021-11-20T12:30:35Z</time>
      </trkpt>
      <trkpt lat="46.57999" lon="5.55008">
        <ele>517.6</ele>
        <time>2021-11-20T12:30:36Z</time>
      </trkpt>
      <trkpt lat="46.57999" lon="5.55008">
        <ele>517.6</ele>
        <time>2021-11-20T12:30:37Z</time>
      </trkpt>
      <trkpt lat="46.57999" lon="5.55008">
        <ele>517.6</ele>
        <time>2021-11-20T12:30:38Z</time>
      </trkpt>
      <trkpt lat="46.57999" lon="5.55008">
        <ele>517.6</ele>
        <time>2021-11-20T12:30:39Z</time>
      </trkpt>
      <trkpt lat="46.57999" lon="5.55008">
        <ele>517.6</ele>
        <time>2021-11-20T12:30:40Z</time>
      </trkpt>
      <trkpt lat="46.57999" lon="5.55008">
        <ele>517.6</ele>
        <time>2021-11-20T12:30:41Z</time>
      </trkpt>
      <trkpt lat="46.57999" lon="5.55008">
        <ele>517.6</ele>
        <time>2021-11-20T12:30:42Z</time>
      </trkpt>
      <trkpt lat="46.57999" lon="5.55008">
        <ele>517.6</ele>
        <time>2021-11-20T12:30:43Z</time>
      </trkpt>
      <trkpt lat="46.57999" lon="5.55008">
        <ele>517.6</ele>
        <time>2021-11-20T12:30:44Z</time>
      </trkpt>
      <trkpt lat="46.57999" lon="5.55008">
        <ele>517.6</ele>
        <time>2021-11-20T12:30:45Z</time>
      </trkpt>
      <trkpt lat="46.57999" lon="5.55008">
        <ele>517.6</ele>
        <time>2021-11-20T12:30:46Z</time>
      </trkpt>
      <trkpt lat="46.57999" lon="5.55008">
        <ele>517.6</ele>
        <time>2021-11-20T12:30:47Z</time>
      </trkpt>
      <trkpt lat="46.57999" lon="5.55008">
        <ele>517.6</ele>
        <time>2021-11-20T12:30:48Z</time>
      </trkpt>
      <trkpt lat="46.57999" lon="5.55008">
        <ele>517.6</ele>
        <time>2021-11-20T12:30:49Z</time>
      </trkpt>
      <trkpt lat="46.57999" lon="5.55008">
        <ele>517.6</ele>
        <time>2021-11-20T12:30:50Z</time>
      </trkpt>
      <trkpt lat="46.57999" lon="5.55008">
        <ele>517.6</ele>
        <time>2021-11-20T12:30:51Z</time>
      </trkpt>
      <trkpt lat="46.57999" lon="5.55008">
        <ele>517.6</ele>
        <time>2021-11-20T12:30:52Z</time>
      </trkpt>
      <trkpt lat="46.57999" lon="5.55008">
        <ele>517.6</ele>
        <time>2021-11-20T12:30:53Z</time>
      </trkpt>
      <trkpt lat="46.57999" lon="5.55008">
        <ele>517.6</ele>
        <time>2021-11-20T12:30:54Z</time>
      </trkpt>
      <trkpt lat="46.57999" lon="5.55008">
        <ele>517.6</ele>
        <time>2021-11-20T12:30:55Z</time>
      </trkpt>
      <trkpt lat="46.57999" lon="5.55008">
        <ele>517.6</ele>
        <time>2021-11-20T12:30:56Z</time>
      </trkpt>
      <trkpt lat="46.57999" lon="5.55008">
        <ele>517.6</ele>
        <time>2021-11-20T12:30:57Z</time>
      </trkpt>
      <trkpt lat="46.57999" lon="5.55008">
        <ele>517.6</ele>
        <time>2021-11-20T12:30:58Z</time>
      </trkpt>
      <trkpt lat="46.57999" lon="5.55008">
        <ele>517.6</ele>
        <time>2021-11-20T12:30:59Z</time>
      </trkpt>
      <trkpt lat="46.57999" lon="5.55008">
        <ele>517.6</ele>
        <time>2021-11-20T12:31:00Z</time>
      </trkpt>
      <trkpt lat="46.57999" lon="5.55008">
        <ele>517.6</ele>
        <time>2021-11-20T12:31:01Z</time>
      </trkpt>
      <trkpt lat="46.57999" lon="5.55008">
        <ele>517.6</ele>
        <time>2021-11-20T12:31:02Z</time>
      </trkpt>
      <trkpt lat="46.57999" lon="5.55008">
        <ele>517.6</ele>
        <time>2021-11-20T12:31:03Z</time>
      </trkpt>
      <trkpt lat="46.57999" lon="5.55008">
        <ele>517.6</ele>
        <time>2021-11-20T12:31:04Z</time>
      </trkpt>
      <trkpt lat="46.57999" lon="5.55008">
        <ele>517.6</ele>
        <time>2021-11-20T12:31:05Z</time>
      </trkpt>
      <trkpt lat="46.57999" lon="5.55008">
        <ele>517.6</ele>
        <time>2021-11-20T12:31:06Z</time>
      </trkpt>
      <trkpt lat="46.57999" lon="5.55008">
        <ele>517.6</ele>
        <time>2021-11-20T12:31:07Z</time>
      </trkpt>
      <trkpt lat="46.58321" lon="5.55071">
        <ele>517.6</ele>
        <time>2021-11-20T12:31:08Z</time>
      </trkpt>
      <trkpt lat="46.58321" lon="5.55071">
        <ele>517.6</ele>
        <time>2021-11-20T12:31:09Z</time>
      </trkpt>
      <trkpt lat="46.58321" lon="5.55071">
        <ele>517.6</ele>
        <time>2021-11-20T12:31:10Z</time>
      </trkpt>
      <trkpt lat="46.58321" lon="5.55071">
        <ele>517.6</ele>
        <time>2021-11-20T12:31:11Z</time>
      </trkpt>
      <trkpt lat="46.58321" lon="5.55071">
        <ele>517.6</ele>
        <time>2021-11-20T12:31:12Z</time>
      </trkpt>
      <trkpt lat="46.58321" lon="5.55071">
        <ele>517.6</ele>
        <time>2021-11-20T12:31:13Z</time>
      </trkpt>
      <trkpt lat="46.58321" lon="5.55071">
        <ele>517.6</ele>
        <time>2021-11-20T12:31:14Z</time>
      </trkpt>
      <trkpt lat="46.58321" lon="5.55071">
        <ele>517.6</ele>
        <time>2021-11-20T12:31:15Z</time>
      </trkpt>
      <trkpt lat="46.58321" lon="5.55071">
        <ele>517.6</ele>
        <time>2021-11-20T12:31:16Z</time>
      </trkpt>
      <trkpt lat="46.58321" lon="5.55071">
        <ele>517.6</ele>
        <time>2021-11-20T12:31:17Z</time>
      </trkpt>
      <trkpt lat="46.58321" lon="5.55071">
        <ele>517.6</ele>
        <time>2021-11-20T12:31:18Z</time>
      </trkpt>
      <trkpt lat="46.58321" lon="5.55071">
        <ele>506.4</ele>
        <time>2021-11-20T12:31:19Z</time>
      </trkpt>
      <trkpt lat="46.58321" lon="5.55071">
        <ele>506.4</ele>
        <time>2021-11-20T12:31:20Z</time>
      </trkpt>
      <trkpt lat="46.58321" lon="5.55071">
        <ele>506.4</ele>
        <time>2021-11-20T12:31:21Z</time>
      </trkpt>
      <trkpt lat="46.58321" lon="5.55071">
        <ele>506.4</ele>
        <time>2021-11-20T12:31:22Z</time>
      </trkpt>
      <trkpt lat="46.58321" lon="5.55071">
        <ele>506.4</ele>
        <time>2021-11-20T12:31:23Z</time>
      </trkpt>
      <trkpt lat="46.58321" lon="5.55071">
        <ele>506.4</ele>
        <time>2021-11-20T12:31:24Z</time>
      </trkpt>
      <trkpt lat="46.58321" lon="5.55071">
        <ele>506.4</ele>
        <time>2021-11-20T12:31:25Z</time>
      </trkpt>
      <trkpt lat="46.58321" lon="5.55071">
        <ele>506.4</ele>
        <time>2021-11-20T12:31:26Z</time>
      </trkpt>
      <trkpt lat="46.58321" lon="5.55071">
        <ele>506.4</ele>
        <time>2021-11-20T12:31:27Z</time>
      </trkpt>
      <trkpt lat="46.58321" lon="5.55071">
        <ele>506.4</ele>
        <time>2021-11-20T12:31:28Z</time>
      </trkpt>
      <trkpt lat="46.58321" lon="5.55071">
        <ele>506.4</ele>
        <time>2021-11-20T12:31:29Z</time>
      </trkpt>
      <trkpt lat="46.58321" lon="5.55071">
        <ele>506.4</ele>
        <time>2021-11-20T12:31:30Z</time>
      </trkpt>
      <trkpt lat="46.58321" lon="5.55071">
        <ele>506.4</ele>
        <time>2021-11-20T12:31:31Z</time>
      </trkpt>
      <trkpt lat="46.58321" lon="5.55071">
        <ele>506.4</ele>
        <time>2021-11-20T12:31:32Z</time>
      </trkpt>
      <trkpt lat="46.58321" lon="5.55071">
        <ele>506.4</ele>
        <time>2021-11-20T12:31:33Z</time>
      </trkpt>
      <trkpt lat="46.58321" lon="5.55071">
        <ele>506.4</ele>
        <time>2021-11-20T12:31:34Z</time>
      </trkpt>
      <trkpt lat="46.58321" lon="5.55071">
        <ele>506.4</ele>
        <time>2021-11-20T12:31:35Z</time>
      </trkpt>
      <trkpt lat="46.58321" lon="5.55071">
        <ele>506.4</ele>
        <time>2021-11-20T12:31:36Z</time>
      </trkpt>
      <trkpt lat="46.58321" lon="5.55071">
        <ele>506.4</ele>
        <time>2021-11-20T12:31:37Z</time>
      </trkpt>
      <trkpt lat="46.58321" lon="5.55071">
        <ele>506.4</ele>
        <time>2021-11-20T12:31:38Z</time>
      </trkpt>
      <trkpt lat="46.58321" lon="5.55071">
        <ele>506.4</ele>
        <time>2021-11-20T12:31:39Z</time>
      </trkpt>
      <trkpt lat="46.58321" lon="5.55071">
        <ele>506.4</ele>
        <time>2021-11-20T12:31:40Z</time>
      </trkpt>
      <trkpt lat="46.58321" lon="5.55071">
        <ele>506.4</ele>
        <time>2021-11-20T12:31:41Z</time>
      </trkpt>
      <trkpt lat="46.58321" lon="5.55071">
        <ele>506.4</ele>
        <time>2021-11-20T12:31:42Z</time>
      </trkpt>
      <trkpt lat="46.58321" lon="5.55071">
        <ele>506.4</ele>
        <time>2021-11-20T12:31:43Z</time>
      </trkpt>
      <trkpt lat="46.58321" lon="5.55071">
        <ele>506.4</ele>
        <time>2021-11-20T12:31:44Z</time>
      </trkpt>
      <trkpt lat="46.58321" lon="5.55071">
        <ele>506.4</ele>
        <time>2021-11-20T12:31:45Z</time>
      </trkpt>
      <trkpt lat="46.58321" lon="5.55071">
        <ele>506.4</ele>
        <time>2021-11-20T12:31:46Z</time>
      </trkpt>
      <trkpt lat="46.58321" lon="5.55071">
        <ele>506.4</ele>
        <time>2021-11-20T12:31:47Z</time>
      </trkpt>
      <trkpt lat="46.58321" lon="5.55071">
        <ele>506.4</ele>
        <time>2021-11-20T12:31:48Z</time>
      </trkpt>
      <trkpt lat="46.58321" lon="5.55071">
        <ele>506.4</ele>
        <time>2021-11-20T12:31:49Z</time>
      </trkpt>
      <trkpt lat="46.58321" lon="5.55071">
        <ele>506.4</ele>
        <time>2021-11-20T12:31:50Z</time>
      </trkpt>
      <trkpt lat="46.58321" lon="5.55071">
        <ele>506.4</ele>
        <time>2021-11-20T12:31:51Z</time>
      </trkpt>
      <trkpt lat="46.58321" lon="5.55071">
        <ele>506.4</ele>
        <time>2021-11-20T12:31:52Z</time>
      </trkpt>
      <trkpt lat="46.58321" lon="5.55071">
        <ele>506.4</ele>
        <time>2021-11-20T12:31:53Z</time>
      </trkpt>
      <trkpt lat="46.58321" lon="5.55071">
        <ele>506.4</ele>
        <time>2021-11-20T12:31:54Z</time>
      </trkpt>
      <trkpt lat="46.58321" lon="5.55071">
        <ele>506.4</ele>
        <time>2021-11-20T12:31:55Z</time>
      </trkpt>
      <trkpt lat="46.58321" lon="5.55071">
        <ele>506.4</ele>
        <time>2021-11-20T12:31:56Z</time>
      </trkpt>
      <trkpt lat="46.58321" lon="5.55071">
        <ele>506.4</ele>
        <time>2021-11-20T12:31:57Z</time>
      </trkpt>
      <trkpt lat="46.58321" lon="5.55071">
        <ele>506.4</ele>
        <time>2021-11-20T12:31:58Z</time>
      </trkpt>
      <trkpt lat="46.58321" lon="5.55071">
        <ele>506.4</ele>
        <time>2021-11-20T12:31:59Z</time>
      </trkpt>
      <trkpt lat="46.58321" lon="5.55071">
        <ele>506.4</ele>
        <time>2021-11-20T12:32:00Z</time>
      </trkpt>
      <trkpt lat="46.58321" lon="5.55071">
        <ele>506.4</ele>
        <time>2021-11-20T12:32:01Z</time>
      </trkpt>
      <trkpt lat="46.58321" lon="5.55071">
        <ele>506.4</ele>
        <time>2021-11-20T12:32:02Z</time>
      </trkpt>
      <trkpt lat="46.58321" lon="5.55071">
        <ele>506.4</ele>
        <time>2021-11-20T12:32:03Z</time>
      </trkpt>
      <trkpt lat="46.58321" lon="5.55071">
        <ele>506.4</ele>
        <time>2021-11-20T12:32:04Z</time>
      </trkpt>
      <trkpt lat="46.58321" lon="5.55071">
        <ele>506.4</ele>
        <time>2021-11-20T12:32:05Z</time>
      </trkpt>
      <trkpt lat="46.58321" lon="5.55071">
        <ele>506.4</ele>
        <time>2021-11-20T12:32:06Z</time>
      </trkpt>
      <trkpt lat="46.58321" lon="5.55071">
        <ele>506.4</ele>
        <time>2021-11-20T12:32:07Z</time>
      </trkpt>
      <trkpt lat="46.58561" lon="5.54986">
        <ele>506.4</ele>
        <time>2021-11-20T12:32:08Z</time>
      </trkpt>
      <trkpt lat="46.58561" lon="5.54986">
        <ele>506.4</ele>
        <time>2021-11-20T12:32:09Z</time>
      </trkpt>
      <trkpt lat="46.58561" lon="5.54986">
        <ele>506.4</ele>
        <time>2021-11-20T12:32:10Z</time>
      </trkpt>
      <trkpt lat="46.58561" lon="5.54986">
        <ele>506.4</ele>
        <time>2021-11-20T12:32:11Z</time>
      </trkpt>
      <trkpt lat="46.58561" lon="5.54986">
        <ele>506.4</ele>
        <time>2021-11-20T12:32:12Z</time>
      </trkpt>
      <trkpt lat="46.58561" lon="5.54986">
        <ele>506.4</ele>
        <time>2021-11-20T12:32:13Z</time>
      </trkpt>
      <trkpt lat="46.58561" lon="5.54986">
        <ele>506.4</ele>
        <time>2021-11-20T12:32:14Z</time>
      </trkpt>
      <trkpt lat="46.58561" lon="5.54986">
        <ele>506.4</ele>
        <time>2021-11-20T12:32:15Z</time>
      </trkpt>
      <trkpt lat="46.58561" lon="5.54986">
        <ele>506.4</ele>
        <time>2021-11-20T12:32:16Z</time>
      </trkpt>
      <trkpt lat="46.58561" lon="5.54986">
        <ele>506.4</ele>
        <time>2021-11-20T12:32:17Z</time>
      </trkpt>
      <trkpt lat="46.58561" lon="5.54986">
        <ele>506.4</ele>
        <time>2021-11-20T12:32:18Z</time>
      </trkpt>
      <trkpt lat="46.58561" lon="5.54986">
        <ele>498.2</ele>
        <time>2021-11-20T12:32:19Z</time>
      </trkpt>
      <trkpt lat="46.58561" lon="5.54986">
        <ele>498.2</ele>
        <time>2021-11-20T12:32:20Z</time>
      </trkpt>
      <trkpt lat="46.58561" lon="5.54986">
        <ele>498.2</ele>
        <time>2021-11-20T12:32:21Z</time>
      </trkpt>
      <trkpt lat="46.58561" lon="5.54986">
        <ele>498.2</ele>
        <time>2021-11-20T12:32:22Z</time>
      </trkpt>
      <trkpt lat="46.58561" lon="5.54986">
        <ele>498.2</ele>
        <time>2021-11-20T12:32:23Z</time>
      </trkpt>
      <trkpt lat="46.58561" lon="5.54986">
        <ele>498.2</ele>
        <time>2021-11-20T12:32:26Z</time>
      </trkpt>
      <trkpt lat="46.58561" lon="5.54986">
        <ele>498.2</ele>
        <time>2021-11-20T12:32:27Z</time>
      </trkpt>
      <trkpt lat="46.58561" lon="5.54986">
        <ele>498.2</ele>
        <time>2021-11-20T12:32:28Z</time>
      </trkpt>
      <trkpt lat="46.58561" lon="5.54986">
        <ele>498.2</ele>
        <time>2021-11-20T12:32:29Z</time>
      </trkpt>
      <trkpt lat="46.58561" lon="5.54986">
        <ele>498.2</ele>
        <time>2021-11-20T12:32:30Z</time>
      </trkpt>
      <trkpt lat="46.58561" lon="5.54986">
        <ele>498.2</ele>
        <time>2021-11-20T12:32:31Z</time>
      </trkpt>
      <trkpt lat="46.58561" lon="5.54986">
        <ele>498.2</ele>
        <time>2021-11-20T12:32:32Z</time>
      </trkpt>
      <trkpt lat="46.58561" lon="5.54986">
        <ele>498.2</ele>
        <time>2021-11-20T12:32:33Z</time>
      </trkpt>
      <trkpt lat="46.58561" lon="5.54986">
        <ele>498.2</ele>
        <time>2021-11-20T12:32:34Z</time>
      </trkpt>
      <trkpt lat="46.58561" lon="5.54986">
        <ele>498.2</ele>
        <time>2021-11-20T12:32:35Z</time>
      </trkpt>
      <trkpt lat="46.58561" lon="5.54986">
        <ele>498.2</ele>
        <time>2021-11-20T12:32:36Z</time>
      </trkpt>
      <trkpt lat="46.58561" lon="5.54986">
        <ele>498.2</ele>
        <time>2021-11-20T12:32:37Z</time>
      </trkpt>
      <trkpt lat="46.58561" lon="5.54986">
        <ele>498.2</ele>
        <time>2021-11-20T12:32:38Z</time>
      </trkpt>
      <trkpt lat="46.58561" lon="5.54986">
        <ele>498.2</ele>
        <time>2021-11-20T12:32:39Z</time>
      </trkpt>
      <trkpt lat="46.58561" lon="5.54986">
        <ele>498.2</ele>
        <time>2021-11-20T12:32:40Z</time>
      </trkpt>
      <trkpt lat="46.58561" lon="5.54986">
        <ele>498.2</ele>
        <time>2021-11-20T12:32:41Z</time>
      </trkpt>
      <trkpt lat="46.58561" lon="5.54986">
        <ele>498.2</ele>
        <time>2021-11-20T12:32:42Z</time>
      </trkpt>
      <trkpt lat="46.58561" lon="5.54986">
        <ele>498.2</ele>
        <time>2021-11-20T12:32:43Z</time>
      </trkpt>
      <trkpt lat="46.58561" lon="5.54986">
        <ele>498.2</ele>
        <time>2021-11-20T12:32:45Z</time>
      </trkpt>
      <trkpt lat="46.58561" lon="5.54986">
        <ele>498.2</ele>
        <time>2021-11-20T12:32:46Z</time>
      </trkpt>
      <trkpt lat="46.58561" lon="5.54986">
        <ele>498.2</ele>
        <time>2021-11-20T12:32:47Z</time>
      </trkpt>
      <trkpt lat="46.58561" lon="5.54986">
        <ele>498.2</ele>
        <time>2021-11-20T12:32:48Z</time>
      </trkpt>
      <trkpt lat="46.58561" lon="5.54986">
        <ele>498.2</ele>
        <time>2021-11-20T12:32:49Z</time>
      </trkpt>
      <trkpt lat="46.58561" lon="5.54986">
        <ele>498.2</ele>
        <time>2021-11-20T12:32:50Z</time>
      </trkpt>
      <trkpt lat="46.58561" lon="5.54986">
        <ele>498.2</ele>
        <time>2021-11-20T12:32:51Z</time>
      </trkpt>
      <trkpt lat="46.58561" lon="5.54986">
        <ele>498.2</ele>
        <time>2021-11-20T12:32:52Z</time>
      </trkpt>
      <trkpt lat="46.58561" lon="5.54986">
        <ele>498.2</ele>
        <time>2021-11-20T12:32:53Z</time>
      </trkpt>
      <trkpt lat="46.58561" lon="5.54986">
        <ele>498.2</ele>
        <time>2021-11-20T12:32:54Z</time>
      </trkpt>
      <trkpt lat="46.58561" lon="5.54986">
        <ele>498.2</ele>
        <time>2021-11-20T12:32:55Z</time>
      </trkpt>
      <trkpt lat="46.58561" lon="5.54986">
        <ele>498.2</ele>
        <time>2021-11-20T12:32:56Z</time>
      </trkpt>
      <trkpt lat="46.58561" lon="5.54986">
        <ele>498.2</ele>
        <time>2021-11-20T12:32:57Z</time>
      </trkpt>
      <trkpt lat="46.58561" lon="5.54986">
        <ele>498.2</ele>
        <time>2021-11-20T12:32:58Z</time>
      </trkpt>
      <trkpt lat="46.58561" lon="5.54986">
        <ele>498.2</ele>
        <time>2021-11-20T12:32:59Z</time>
      </trkpt>
      <trkpt lat="46.58561" lon="5.54986">
        <ele>498.2</ele>
        <time>2021-11-20T12:33:00Z</time>
      </trkpt>
      <trkpt lat="46.58561" lon="5.54986">
        <ele>498.2</ele>
        <time>2021-11-20T12:33:01Z</time>
      </trkpt>
      <trkpt lat="46.58561" lon="5.54986">
        <ele>498.2</ele>
        <time>2021-11-20T12:33:02Z</time>
      </trkpt>
      <trkpt lat="46.58561" lon="5.54986">
        <ele>498.2</ele>
        <time>2021-11-20T12:33:03Z</time>
      </trkpt>
      <trkpt lat="46.58561" lon="5.54986">
        <ele>498.2</ele>
        <time>2021-11-20T12:33:04Z</time>
      </trkpt>
      <trkpt lat="46.58561" lon="5.54986">
        <ele>498.2</ele>
        <time>2021-11-20T12:33:05Z</time>
      </trkpt>
      <trkpt lat="46.58561" lon="5.54986">
        <ele>498.2</ele>
        <time>2021-11-20T12:33:06Z</time>
      </trkpt>
      <trkpt lat="46.58561" lon="5.54986">
        <ele>498.2</ele>
        <time>2021-11-20T12:33:07Z</time>
      </trkpt>
      <trkpt lat="46.58778" lon="5.55092">
        <ele>498.2</ele>
        <time>2021-11-20T12:33:08Z</time>
      </trkpt>
      <trkpt lat="46.58778" lon="5.55092">
        <ele>498.2</ele>
        <time>2021-11-20T12:33:09Z</time>
      </trkpt>
      <trkpt lat="46.58778" lon="5.55092">
        <ele>498.2</ele>
        <time>2021-11-20T12:33:10Z</time>
      </trkpt>
      <trkpt lat="46.58778" lon="5.55092">
        <ele>498.2</ele>
        <time>2021-11-20T12:33:11Z</time>
      </trkpt>
      <trkpt lat="46.58778" lon="5.55092">
        <ele>498.2</ele>
        <time>2021-11-20T12:33:12Z</time>
      </trkpt>
      <trkpt lat="46.58778" lon="5.55092">
        <ele>498.2</ele>
        <time>2021-11-20T12:33:13Z</time>
      </trkpt>
      <trkpt lat="46.58778" lon="5.55092">
        <ele>498.2</ele>
        <time>2021-11-20T12:33:14Z</time>
      </trkpt>
      <trkpt lat="46.58778" lon="5.55092">
        <ele>498.2</ele>
        <time>2021-11-20T12:33:15Z</time>
      </trkpt>
      <trkpt lat="46.58778" lon="5.55092">
        <ele>498.2</ele>
        <time>2021-11-20T12:33:16Z</time>
      </trkpt>
      <trkpt lat="46.58778" lon="5.55092">
        <ele>498.2</ele>
        <time>2021-11-20T12:33:17Z</time>
      </trkpt>
      <trkpt lat="46.58778" lon="5.55092">
        <ele>498.2</ele>
        <time>2021-11-20T12:33:18Z</time>
      </trkpt>
      <trkpt lat="46.58778" lon="5.55092">
        <ele>491.4</ele>
        <time>2021-11-20T12:33:19Z</time>
      </trkpt>
      <trkpt lat="46.58778" lon="5.55092">
        <ele>491.4</ele>
        <time>2021-11-20T12:33:20Z</time>
      </trkpt>
      <trkpt lat="46.58778" lon="5.55092">
        <ele>491.4</ele>
        <time>2021-11-20T12:33:21Z</time>
      </trkpt>
      <trkpt lat="46.58778" lon="5.55092">
        <ele>491.4</ele>
        <time>2021-11-20T12:33:22Z</time>
      </trkpt>
      <trkpt lat="46.58778" lon="5.55092">
        <ele>491.4</ele>
        <time>2021-11-20T12:33:23Z</time>
      </trkpt>
      <trkpt lat="46.58778" lon="5.55092">
        <ele>491.4</ele>
        <time>2021-11-20T12:33:24Z</time>
      </trkpt>
      <trkpt lat="46.58778" lon="5.55092">
        <ele>491.4</ele>
        <time>2021-11-20T12:33:25Z</time>
      </trkpt>
      <trkpt lat="46.58778" lon="5.55092">
        <ele>491.4</ele>
        <time>2021-11-20T12:33:26Z</time>
      </trkpt>
      <trkpt lat="46.58778" lon="5.55092">
        <ele>491.4</ele>
        <time>2021-11-20T12:33:27Z</time>
      </trkpt>
      <trkpt lat="46.58778" lon="5.55092">
        <ele>491.4</ele>
        <time>2021-11-20T12:33:28Z</time>
      </trkpt>
      <trkpt lat="46.58778" lon="5.55092">
        <ele>491.4</ele>
        <time>2021-11-20T12:33:29Z</time>
      </trkpt>
      <trkpt lat="46.58778" lon="5.55092">
        <ele>491.4</ele>
        <time>2021-11-20T12:33:30Z</time>
      </trkpt>
      <trkpt lat="46.58778" lon="5.55092">
        <ele>491.4</ele>
        <time>2021-11-20T12:33:31Z</time>
      </trkpt>
      <trkpt lat="46.58778" lon="5.55092">
        <ele>491.4</ele>
        <time>2021-11-20T12:33:32Z</time>
      </trkpt>
      <trkpt lat="46.58778" lon="5.55092">
        <ele>491.4</ele>
        <time>2021-11-20T12:33:33Z</time>
      </trkpt>
      <trkpt lat="46.58778" lon="5.55092">
        <ele>491.4</ele>
        <time>2021-11-20T12:33:34Z</time>
      </trkpt>
      <trkpt lat="46.58778" lon="5.55092">
        <ele>491.4</ele>
        <time>2021-11-20T12:33:35Z</time>
      </trkpt>
      <trkpt lat="46.58778" lon="5.55092">
        <ele>491.4</ele>
        <time>2021-11-20T12:33:36Z</time>
      </trkpt>
      <trkpt lat="46.58778" lon="5.55092">
        <ele>491.4</ele>
        <time>2021-11-20T12:33:37Z</time>
      </trkpt>
      <trkpt lat="46.58778" lon="5.55092">
        <ele>491.4</ele>
        <time>2021-11-20T12:33:38Z</time>
      </trkpt>
      <trkpt lat="46.58778" lon="5.55092">
        <ele>491.4</ele>
        <time>2021-11-20T12:33:39Z</time>
      </trkpt>
      <trkpt lat="46.58778" lon="5.55092">
        <ele>491.4</ele>
        <time>2021-11-20T12:33:40Z</time>
      </trkpt>
      <trkpt lat="46.58778" lon="5.55092">
        <ele>491.4</ele>
        <time>2021-11-20T12:33:41Z</time>
      </trkpt>
      <trkpt lat="46.58778" lon="5.55092">
        <ele>491.4</ele>
        <time>2021-11-20T12:33:42Z</time>
      </trkpt>
      <trkpt lat="46.58778" lon="5.55092">
        <ele>491.4</ele>
        <time>2021-11-20T12:33:43Z</time>
      </trkpt>
      <trkpt lat="46.58778" lon="5.55092">
        <ele>491.4</ele>
        <time>2021-11-20T12:33:44Z</time>
      </trkpt>
      <trkpt lat="46.58778" lon="5.55092">
        <ele>491.4</ele>
        <time>2021-11-20T12:33:45Z</time>
      </trkpt>
      <trkpt lat="46.58778" lon="5.55092">
        <ele>491.4</ele>
        <time>2021-11-20T12:33:46Z</time>
      </trkpt>
      <trkpt lat="46.58778" lon="5.55092">
        <ele>491.4</ele>
        <time>2021-11-20T12:33:47Z</time>
      </trkpt>
      <trkpt lat="46.58778" lon="5.55092">
        <ele>491.4</ele>
        <time>2021-11-20T12:33:48Z</time>
      </trkpt>
      <trkpt lat="46.58778" lon="5.55092">
        <ele>491.4</ele>
        <time>2021-11-20T12:33:49Z</time>
      </trkpt>
      <trkpt lat="46.58778" lon="5.55092">
        <ele>491.4</ele>
        <time>2021-11-20T12:33:50Z</time>
      </trkpt>
      <trkpt lat="46.58778" lon="5.55092">
        <ele>491.4</ele>
        <time>2021-11-20T12:33:51Z</time>
      </trkpt>
      <trkpt lat="46.58778" lon="5.55092">
        <ele>491.4</ele>
        <time>2021-11-20T12:33:52Z</time>
      </trkpt>
      <trkpt lat="46.58778" lon="5.55092">
        <ele>491.4</ele>
        <time>2021-11-20T12:33:53Z</time>
      </trkpt>
      <trkpt lat="46.58778" lon="5.55092">
        <ele>491.4</ele>
        <time>2021-11-20T12:33:54Z</time>
      </trkpt>
      <trkpt lat="46.58778" lon="5.55092">
        <ele>491.4</ele>
        <time>2021-11-20T12:33:55Z</time>
      </trkpt>
      <trkpt lat="46.58778" lon="5.55092">
        <ele>491.4</ele>
        <time>2021-11-20T12:33:56Z</time>
      </trkpt>
      <trkpt lat="46.58778" lon="5.55092">
        <ele>491.4</ele>
        <time>2021-11-20T12:33:57Z</time>
      </trkpt>
      <trkpt lat="46.58778" lon="5.55092">
        <ele>491.4</ele>
        <time>2021-11-20T12:33:58Z</time>
      </trkpt>
      <trkpt lat="46.58778" lon="5.55092">
        <ele>491.4</ele>
        <time>2021-11-20T12:33:59Z</time>
      </trkpt>
      <trkpt lat="46.58778" lon="5.55092">
        <ele>491.4</ele>
        <time>2021-11-20T12:34:00Z</time>
      </trkpt>
      <trkpt lat="46.58778" lon="5.55092">
        <ele>491.4</ele>
        <time>2021-11-20T12:34:01Z</time>
      </trkpt>
      <trkpt lat="46.58778" lon="5.55092">
        <ele>491.4</ele>
        <time>2021-11-20T12:34:02Z</time>
      </trkpt>
      <trkpt lat="46.58778" lon="5.55092">
        <ele>491.4</ele>
        <time>2021-11-20T12:34:03Z</time>
      </trkpt>
      <trkpt lat="46.58778" lon="5.55092">
        <ele>491.4</ele>
        <time>2021-11-20T12:34:04Z</time>
      </trkpt>
      <trkpt lat="46.58778" lon="5.55092">
        <ele>491.4</ele>
        <time>2021-11-20T12:34:05Z</time>
      </trkpt>
      <trkpt lat="46.58778" lon="5.55092">
        <ele>491.4</ele>
        <time>2021-11-20T12:34:06Z</time>
      </trkpt>
      <trkpt lat="46.58778" lon="5.55092">
        <ele>491.4</ele>
        <time>2021-11-20T12:34:07Z</time>
      </trkpt>
      <trkpt lat="46.58966" lon="5.55142">
        <ele>491.4</ele>
        <time>2021-11-20T12:34:08Z</time>
      </trkpt>
      <trkpt lat="46.58966" lon="5.55142">
        <ele>491.4</ele>
        <time>2021-11-20T12:34:09Z</time>
      </trkpt>
      <trkpt lat="46.58966" lon="5.55142">
        <ele>491.4</ele>
        <time>2021-11-20T12:34:10Z</time>
      </trkpt>
      <trkpt lat="46.58966" lon="5.55142">
        <ele>491.4</ele>
        <time>2021-11-20T12:34:11Z</time>
      </trkpt>
      <trkpt lat="46.58966" lon="5.55142">
        <ele>491.4</ele>
        <time>2021-11-20T12:34:12Z</time>
      </trkpt>
      <trkpt lat="46.58966" lon="5.55142">
        <ele>491.4</ele>
        <time>2021-11-20T12:34:13Z</time>
      </trkpt>
      <trkpt lat="46.58966" lon="5.55142">
        <ele>491.4</ele>
        <time>2021-11-20T12:34:14Z</time>
      </trkpt>
      <trkpt lat="46.58966" lon="5.55142">
        <ele>491.4</ele>
        <time>2021-11-20T12:34:15Z</time>
      </trkpt>
      <trkpt lat="46.58966" lon="5.55142">
        <ele>491.4</ele>
        <time>2021-11-20T12:34:16Z</time>
      </trkpt>
      <trkpt lat="46.58966" lon="5.55142">
        <ele>491.4</ele>
        <time>2021-11-20T12:34:17Z</time>
      </trkpt>
      <trkpt lat="46.58966" lon="5.55142">
        <ele>491.4</ele>
        <time>2021-11-20T12:34:18Z</time>
      </trkpt>
      <trkpt lat="46.58966" lon="5.55142">
        <ele>491.8</ele>
        <time>2021-11-20T12:34:19Z</time>
      </trkpt>
      <trkpt lat="46.58966" lon="5.55142">
        <ele>491.8</ele>
        <time>2021-11-20T12:34:22Z</time>
      </trkpt>
      <trkpt lat="46.58966" lon="5.55142">
        <ele>491.8</ele>
        <time>2021-11-20T12:34:23Z</time>
      </trkpt>
      <trkpt lat="46.58966" lon="5.55142">
        <ele>491.8</ele>
        <time>2021-11-20T12:34:24Z</time>
      </trkpt>
      <trkpt lat="46.58966" lon="5.55142">
        <ele>491.8</ele>
        <time>2021-11-20T12:34:25Z</time>
      </trkpt>
      <trkpt lat="46.58966" lon="5.55142">
        <ele>491.8</ele>
        <time>2021-11-20T12:34:26Z</time>
      </trkpt>
      <trkpt lat="46.58966" lon="5.55142">
        <ele>491.8</ele>
        <time>2021-11-20T12:34:27Z</time>
      </trkpt>
      <trkpt lat="46.58966" lon="5.55142">
        <ele>491.8</ele>
        <time>2021-11-20T12:34:28Z</time>
      </trkpt>
      <trkpt lat="46.58966" lon="5.55142">
        <ele>491.8</ele>
        <time>2021-11-20T12:34:29Z</time>
      </trkpt>
      <trkpt lat="46.58966" lon="5.55142">
        <ele>491.8</ele>
        <time>2021-11-20T12:34:30Z</time>
      </trkpt>
      <trkpt lat="46.58966" lon="5.55142">
        <ele>491.8</ele>
        <time>2021-11-20T12:34:31Z</time>
      </trkpt>
      <trkpt lat="46.58966" lon="5.55142">
        <ele>491.8</ele>
        <time>2021-11-20T12:34:32Z</time>
      </trkpt>
      <trkpt lat="46.58966" lon="5.55142">
        <ele>491.8</ele>
        <time>2021-11-20T12:34:33Z</time>
      </trkpt>
      <trkpt lat="46.58966" lon="5.55142">
        <ele>491.8</ele>
        <time>2021-11-20T12:34:34Z</time>
      </trkpt>
      <trkpt lat="46.58966" lon="5.55142">
        <ele>491.8</ele>
        <time>2021-11-20T12:34:35Z</time>
      </trkpt>
      <trkpt lat="46.58966" lon="5.55142">
        <ele>491.8</ele>
        <time>2021-11-20T12:34:36Z</time>
      </trkpt>
      <trkpt lat="46.58966" lon="5.55142">
        <ele>491.8</ele>
        <time>2021-11-20T12:34:37Z</time>
      </trkpt>
      <trkpt lat="46.58966" lon="5.55142">
        <ele>491.8</ele>
        <time>2021-11-20T12:34:38Z</time>
      </trkpt>
      <trkpt lat="46.58966" lon="5.55142">
        <ele>491.8</ele>
        <time>2021-11-20T12:34:39Z</time>
      </trkpt>
      <trkpt lat="46.58966" lon="5.55142">
        <ele>491.8</ele>
        <time>2021-11-20T12:34:40Z</time>
      </trkpt>
      <trkpt lat="46.58966" lon="5.55142">
        <ele>491.8</ele>
        <time>2021-11-20T12:34:41Z</time>
      </trkpt>
      <trkpt lat="46.58966" lon="5.55142">
        <ele>491.8</ele>
        <time>2021-11-20T12:34:42Z</time>
      </trkpt>
      <trkpt lat="46.58966" lon="5.55142">
        <ele>491.8</ele>
        <time>2021-11-20T12:34:43Z</time>
      </trkpt>
      <trkpt lat="46.58966" lon="5.55142">
        <ele>491.8</ele>
        <time>2021-11-20T12:34:44Z</time>
      </trkpt>
      <trkpt lat="46.58966" lon="5.55142">
        <ele>491.8</ele>
        <time>2021-11-20T12:34:45Z</time>
      </trkpt>
      <trkpt lat="46.58966" lon="5.55142">
        <ele>491.8</ele>
        <time>2021-11-20T12:34:46Z</time>
      </trkpt>
      <trkpt lat="46.58966" lon="5.55142">
        <ele>491.8</ele>
        <time>2021-11-20T12:34:47Z</time>
      </trkpt>
      <trkpt lat="46.58966" lon="5.55142">
        <ele>491.8</ele>
        <time>2021-11-20T12:34:48Z</time>
      </trkpt>
      <trkpt lat="46.58966" lon="5.55142">
        <ele>491.8</ele>
        <time>2021-11-20T12:34:49Z</time>
      </trkpt>
      <trkpt lat="46.58966" lon="5.55142">
        <ele>491.8</ele>
        <time>2021-11-20T12:34:50Z</time>
      </trkpt>
      <trkpt lat="46.58966" lon="5.55142">
        <ele>491.8</ele>
        <time>2021-11-20T12:34:51Z</time>
      </trkpt>
      <trkpt lat="46.58966" lon="5.55142">
        <ele>491.8</ele>
        <time>2021-11-20T12:34:52Z</time>
      </trkpt>
      <trkpt lat="46.58966" lon="5.55142">
        <ele>491.8</ele>
        <time>2021-11-20T12:34:53Z</time>
      </trkpt>
      <trkpt lat="46.58966" lon="5.55142">
        <ele>491.8</ele>
        <time>2021-11-20T12:34:54Z</time>
      </trkpt>
      <trkpt lat="46.58966" lon="5.55142">
        <ele>491.8</ele>
        <time>2021-11-20T12:34:55Z</time>
      </trkpt>
      <trkpt lat="46.58966" lon="5.55142">
        <ele>491.8</ele>
        <time>2021-11-20T12:34:56Z</time>
      </trkpt>
      <trkpt lat="46.58966" lon="5.55142">
        <ele>491.8</ele>
        <time>2021-11-20T12:34:57Z</time>
      </trkpt>
      <trkpt lat="46.58966" lon="5.55142">
        <ele>491.8</ele>
        <time>2021-11-20T12:34:58Z</time>
      </trkpt>
      <trkpt lat="46.58966" lon="5.55142">
        <ele>491.8</ele>
        <time>2021-11-20T12:34:59Z</time>
      </trkpt>
      <trkpt lat="46.58966" lon="5.55142">
        <ele>491.8</ele>
        <time>2021-11-20T12:35:00Z</time>
      </trkpt>
      <trkpt lat="46.58966" lon="5.55142">
        <ele>491.8</ele>
        <time>2021-11-20T12:35:01Z</time>
      </trkpt>
      <trkpt lat="46.58966" lon="5.55142">
        <ele>491.8</ele>
        <time>2021-11-20T12:35:02Z</time>
      </trkpt>
      <trkpt lat="46.58966" lon="5.55142">
        <ele>491.8</ele>
        <time>2021-11-20T12:35:03Z</time>
      </trkpt>
      <trkpt lat="46.58966" lon="5.55142">
        <ele>491.8</ele>
        <time>2021-11-20T12:35:04Z</time>
      </trkpt>
      <trkpt lat="46.58966" lon="5.55142">
        <ele>491.8</ele>
        <time>2021-11-20T12:35:05Z</time>
      </trkpt>
      <trkpt lat="46.58966" lon="5.55142">
        <ele>491.8</ele>
        <time>2021-11-20T12:35:06Z</time>
      </trkpt>
      <trkpt lat="46.58966" lon="5.55142">
        <ele>491.8</ele>
        <time>2021-11-20T12:35:07Z</time>
      </trkpt>
      <trkpt lat="46.59042" lon="5.55247">
        <ele>491.8</ele>
        <time>2021-11-20T12:35:08Z</time>
      </trkpt>
      <trkpt lat="46.59042" lon="5.55247">
        <ele>491.8</ele>
        <time>2021-11-20T12:35:09Z</time>
      </trkpt>
      <trkpt lat="46.59042" lon="5.55247">
        <ele>491.8</ele>
        <time>2021-11-20T12:35:10Z</time>
      </trkpt>
      <trkpt lat="46.59042" lon="5.55247">
        <ele>491.8</ele>
        <time>2021-11-20T12:35:11Z</time>
      </trkpt>
      <trkpt lat="46.59042" lon="5.55247">
        <ele>491.8</ele>
        <time>2021-11-20T12:35:12Z</time>
      </trkpt>
      <trkpt lat="46.59042" lon="5.55247">
        <ele>491.8</ele>
        <time>2021-11-20T12:35:13Z</time>
      </trkpt>
      <trkpt lat="46.59042" lon="5.55247">
        <ele>491.8</ele>
        <time>2021-11-20T12:35:14Z</time>
      </trkpt>
      <trkpt lat="46.59042" lon="5.55247">
        <ele>491.8</ele>
        <time>2021-11-20T12:35:15Z</time>
      </trkpt>
      <trkpt lat="46.59042" lon="5.55247">
        <ele>491.8</ele>
        <time>2021-11-20T12:35:16Z</time>
      </trkpt>
      <trkpt lat="46.59042" lon="5.55247">
        <ele>491.8</ele>
        <time>2021-11-20T12:35:17Z</time>
      </trkpt>
      <trkpt lat="46.59042" lon="5.55247">
        <ele>491.8</ele>
        <time>2021-11-20T12:35:18Z</time>
      </trkpt>
      <trkpt lat="46.59042" lon="5.55247">
        <ele>496.8</ele>
        <time>2021-11-20T12:35:19Z</time>
      </trkpt>
      <trkpt lat="46.59042" lon="5.55247">
        <ele>496.8</ele>
        <time>2021-11-20T12:35:20Z</time>
      </trkpt>
      <trkpt lat="46.59042" lon="5.55247">
        <ele>496.8</ele>
        <time>2021-11-20T12:35:21Z</time>
      </trkpt>
      <trkpt lat="46.59042" lon="5.55247">
        <ele>496.8</ele>
        <time>2021-11-20T12:35:22Z</time>
      </trkpt>
      <trkpt lat="46.59042" lon="5.55247">
        <ele>496.8</ele>
        <time>2021-11-20T12:35:23Z</time>
      </trkpt>
      <trkpt lat="46.59042" lon="5.55247">
        <ele>496.8</ele>
        <time>2021-11-20T12:35:24Z</time>
      </trkpt>
      <trkpt lat="46.59042" lon="5.55247">
        <ele>496.8</ele>
        <time>2021-11-20T12:35:25Z</time>
      </trkpt>
      <trkpt lat="46.59042" lon="5.55247">
        <ele>496.8</ele>
        <time>2021-11-20T12:35:26Z</time>
      </trkpt>
      <trkpt lat="46.59042" lon="5.55247">
        <ele>496.8</ele>
        <time>2021-11-20T12:35:27Z</time>
      </trkpt>
      <trkpt lat="46.59042" lon="5.55247">
        <ele>496.8</ele>
        <time>2021-11-20T12:35:28Z</time>
      </trkpt>
      <trkpt lat="46.59042" lon="5.55247">
        <ele>496.8</ele>
        <time>2021-11-20T12:35:29Z</time>
      </trkpt>
      <trkpt lat="46.59042" lon="5.55247">
        <ele>496.8</ele>
        <time>2021-11-20T12:35:30Z</time>
      </trkpt>
      <trkpt lat="46.59042" lon="5.55247">
        <ele>496.8</ele>
        <time>2021-11-20T12:35:31Z</time>
      </trkpt>
      <trkpt lat="46.59042" lon="5.55247">
        <ele>496.8</ele>
        <time>2021-11-20T12:35:32Z</time>
      </trkpt>
      <trkpt lat="46.59042" lon="5.55247">
        <ele>496.8</ele>
        <time>2021-11-20T12:35:33Z</time>
      </trkpt>
      <trkpt lat="46.59042" lon="5.55247">
        <ele>496.8</ele>
        <time>2021-11-20T12:35:34Z</time>
      </trkpt>
      <trkpt lat="46.59042" lon="5.55247">
        <ele>496.8</ele>
        <time>2021-11-20T12:35:35Z</time>
      </trkpt>
      <trkpt lat="46.59042" lon="5.55247">
        <ele>496.8</ele>
        <time>2021-11-20T12:35:36Z</time>
      </trkpt>
      <trkpt lat="46.59042" lon="5.55247">
        <ele>496.8</ele>
        <time>2021-11-20T12:35:37Z</time>
      </trkpt>
      <trkpt lat="46.59042" lon="5.55247">
        <ele>496.8</ele>
        <time>2021-11-20T12:35:38Z</time>
      </trkpt>
      <trkpt lat="46.59042" lon="5.55247">
        <ele>496.8</ele>
        <time>2021-11-20T12:35:39Z</time>
      </trkpt>
      <trkpt lat="46.59042" lon="5.55247">
        <ele>496.8</ele>
        <time>2021-11-20T12:35:40Z</time>
      </trkpt>
      <trkpt lat="46.59042" lon="5.55247">
        <ele>496.8</ele>
        <time>2021-11-20T12:35:41Z</time>
      </trkpt>
      <trkpt lat="46.59042" lon="5.55247">
        <ele>496.8</ele>
        <time>2021-11-20T12:35:42Z</time>
      </trkpt>
      <trkpt lat="46.59042" lon="5.55247">
        <ele>496.8</ele>
        <time>2021-11-20T12:35:43Z</time>
      </trkpt>
      <trkpt lat="46.59042" lon="5.55247">
        <ele>496.8</ele>
        <time>2021-11-20T12:35:44Z</time>
      </trkpt>
      <trkpt lat="46.59042" lon="5.55247">
        <ele>496.8</ele>
        <time>2021-11-20T12:35:45Z</time>
      </trkpt>
      <trkpt lat="46.59042" lon="5.55247">
        <ele>496.8</ele>
        <time>2021-11-20T12:35:46Z</time>
      </trkpt>
      <trkpt lat="46.59042" lon="5.55247">
        <ele>496.8</ele>
        <time>2021-11-20T12:35:47Z</time>
      </trkpt>
      <trkpt lat="46.59042" lon="5.55247">
        <ele>496.8</ele>
        <time>2021-11-20T12:35:48Z</time>
      </trkpt>
      <trkpt lat="46.59042" lon="5.55247">
        <ele>496.8</ele>
        <time>2021-11-20T12:35:49Z</time>
      </trkpt>
      <trkpt lat="46.59042" lon="5.55247">
        <ele>496.8</ele>
        <time>2021-11-20T12:35:50Z</time>
      </trkpt>
      <trkpt lat="46.59042" lon="5.55247">
        <ele>496.8</ele>
        <time>2021-11-20T12:35:51Z</time>
      </trkpt>
      <trkpt lat="46.59042" lon="5.55247">
        <ele>496.8</ele>
        <time>2021-11-20T12:35:52Z</time>
      </trkpt>
      <trkpt lat="46.59042" lon="5.55247">
        <ele>496.8</ele>
        <time>2021-11-20T12:35:53Z</time>
      </trkpt>
      <trkpt lat="46.59042" lon="5.55247">
        <ele>496.8</ele>
        <time>2021-11-20T12:35:54Z</time>
      </trkpt>
      <trkpt lat="46.59042" lon="5.55247">
        <ele>496.8</ele>
        <time>2021-11-20T12:35:55Z</time>
      </trkpt>
      <trkpt lat="46.59042" lon="5.55247">
        <ele>496.8</ele>
        <time>2021-11-20T12:35:56Z</time>
      </trkpt>
      <trkpt lat="46.59042" lon="5.55247">
        <ele>496.8</ele>
        <time>2021-11-20T12:35:57Z</time>
      </trkpt>
      <trkpt lat="46.59042" lon="5.55247">
        <ele>496.8</ele>
        <time>2021-11-20T12:35:58Z</time>
      </trkpt>
      <trkpt lat="46.59042" lon="5.55247">
        <ele>496.8</ele>
        <time>2021-11-20T12:35:59Z</time>
      </trkpt>
      <trkpt lat="46.59042" lon="5.55247">
        <ele>496.8</ele>
        <time>2021-11-20T12:36:00Z</time>
      </trkpt>
      <trkpt lat="46.59042" lon="5.55247">
        <ele>496.8</ele>
        <time>2021-11-20T12:36:01Z</time>
      </trkpt>
      <trkpt lat="46.59042" lon="5.55247">
        <ele>496.8</ele>
        <time>2021-11-20T12:36:02Z</time>
      </trkpt>
      <trkpt lat="46.59042" lon="5.55247">
        <ele>496.8</ele>
        <time>2021-11-20T12:36:03Z</time>
      </trkpt>
      <trkpt lat="46.59042" lon="5.55247">
        <ele>496.8</ele>
        <time>2021-11-20T12:36:04Z</time>
      </trkpt>
      <trkpt lat="46.59042" lon="5.55247">
        <ele>496.8</ele>
        <time>2021-11-20T12:36:05Z</time>
      </trkpt>
      <trkpt lat="46.59042" lon="5.55247">
        <ele>496.8</ele>
        <time>2021-11-20T12:36:06Z</time>
      </trkpt>
      <trkpt lat="46.59042" lon="5.55247">
        <ele>496.8</ele>
        <time>2021-11-20T12:36:07Z</time>
      </trkpt>
      <trkpt lat="46.59115" lon="5.55316">
        <ele>496.8</ele>
        <time>2021-11-20T12:36:08Z</time>
      </trkpt>
      <trkpt lat="46.59115" lon="5.55316">
        <ele>496.8</ele>
        <time>2021-11-20T12:36:09Z</time>
      </trkpt>
      <trkpt lat="46.59115" lon="5.55316">
        <ele>496.8</ele>
        <time>2021-11-20T12:36:10Z</time>
      </trkpt>
      <trkpt lat="46.59115" lon="5.55316">
        <ele>496.8</ele>
        <time>2021-11-20T12:36:11Z</time>
      </trkpt>
      <trkpt lat="46.59115" lon="5.55316">
        <ele>496.8</ele>
        <time>2021-11-20T12:36:12Z</time>
      </trkpt>
      <trkpt lat="46.59115" lon="5.55316">
        <ele>496.8</ele>
        <time>2021-11-20T12:36:13Z</time>
      </trkpt>
      <trkpt lat="46.59115" lon="5.55316">
        <ele>496.8</ele>
        <time>2021-11-20T12:36:14Z</time>
      </trkpt>
      <trkpt lat="46.59115" lon="5.55316">
        <ele>496.8</ele>
        <time>2021-11-20T12:36:15Z</time>
      </trkpt>
      <trkpt lat="46.59115" lon="5.55316">
        <ele>496.8</ele>
        <time>2021-11-20T12:36:16Z</time>
      </trkpt>
      <trkpt lat="46.59115" lon="5.55316">
        <ele>496.8</ele>
        <time>2021-11-20T12:36:17Z</time>
      </trkpt>
      <trkpt lat="46.59115" lon="5.55316">
        <ele>496.8</ele>
        <time>2021-11-20T12:36:18Z</time>
      </trkpt>
      <trkpt lat="46.59115" lon="5.55316">
        <ele>504</ele>
        <time>2021-11-20T12:36:19Z</time>
      </trkpt>
      <trkpt lat="46.59115" lon="5.55316">
        <ele>504</ele>
        <time>2021-11-20T12:36:20Z</time>
      </trkpt>
      <trkpt lat="46.59115" lon="5.55316">
        <ele>504</ele>
        <time>2021-11-20T12:36:21Z</time>
      </trkpt>
      <trkpt lat="46.59115" lon="5.55316">
        <ele>504</ele>
        <time>2021-11-20T12:36:22Z</time>
      </trkpt>
      <trkpt lat="46.59115" lon="5.55316">
        <ele>504</ele>
        <time>2021-11-20T12:36:23Z</time>
      </trkpt>
      <trkpt lat="46.59115" lon="5.55316">
        <ele>504</ele>
        <time>2021-11-20T12:36:24Z</time>
      </trkpt>
      <trkpt lat="46.59115" lon="5.55316">
        <ele>504</ele>
        <time>2021-11-20T12:36:25Z</time>
      </trkpt>
      <trkpt lat="46.59115" lon="5.55316">
        <ele>504</ele>
        <time>2021-11-20T12:36:26Z</time>
      </trkpt>
      <trkpt lat="46.59115" lon="5.55316">
        <ele>504</ele>
        <time>2021-11-20T12:36:27Z</time>
      </trkpt>
      <trkpt lat="46.59115" lon="5.55316">
        <ele>504</ele>
        <time>2021-11-20T12:36:28Z</time>
      </trkpt>
      <trkpt lat="46.59115" lon="5.55316">
        <ele>504</ele>
        <time>2021-11-20T12:36:29Z</time>
      </trkpt>
      <trkpt lat="46.59115" lon="5.55316">
        <ele>504</ele>
        <time>2021-11-20T12:36:30Z</time>
      </trkpt>
      <trkpt lat="46.59115" lon="5.55316">
        <ele>504</ele>
        <time>2021-11-20T12:36:31Z</time>
      </trkpt>
      <trkpt lat="46.59115" lon="5.55316">
        <ele>504</ele>
        <time>2021-11-20T12:36:32Z</time>
      </trkpt>
      <trkpt lat="46.59115" lon="5.55316">
        <ele>504</ele>
        <time>2021-11-20T12:36:33Z</time>
      </trkpt>
      <trkpt lat="46.59115" lon="5.55316">
        <ele>504</ele>
        <time>2021-11-20T12:36:34Z</time>
      </trkpt>
      <trkpt lat="46.59115" lon="5.55316">
        <ele>504</ele>
        <time>2021-11-20T12:36:35Z</time>
      </trkpt>
      <trkpt lat="46.59115" lon="5.55316">
        <ele>504</ele>
        <time>2021-11-20T12:36:36Z</time>
      </trkpt>
      <trkpt lat="46.59115" lon="5.55316">
        <ele>504</ele>
        <time>2021-11-20T12:36:37Z</time>
      </trkpt>
      <trkpt lat="46.59115" lon="5.55316">
        <ele>504</ele>
        <time>2021-11-20T12:36:38Z</time>
      </trkpt>
      <trkpt lat="46.59115" lon="5.55316">
        <ele>504</ele>
        <time>2021-11-20T12:36:39Z</time>
      </trkpt>
      <trkpt lat="46.59115" lon="5.55316">
        <ele>504</ele>
        <time>2021-11-20T12:36:40Z</time>
      </trkpt>
      <trkpt lat="46.59115" lon="5.55316">
        <ele>504</ele>
        <time>2021-11-20T12:36:41Z</time>
      </trkpt>
      <trkpt lat="46.59115" lon="5.55316">
        <ele>504</ele>
        <time>2021-11-20T12:36:42Z</time>
      </trkpt>
      <trkpt lat="46.59115" lon="5.55316">
        <ele>504</ele>
        <time>2021-11-20T12:36:43Z</time>
      </trkpt>
      <trkpt lat="46.59115" lon="5.55316">
        <ele>504</ele>
        <time>2021-11-20T12:36:44Z</time>
      </trkpt>
      <trkpt lat="46.59115" lon="5.55316">
        <ele>504</ele>
        <time>2021-11-20T12:36:45Z</time>
      </trkpt>
      <trkpt lat="46.59115" lon="5.55316">
        <ele>504</ele>
        <time>2021-11-20T12:36:46Z</time>
      </trkpt>
      <trkpt lat="46.59115" lon="5.55316">
        <ele>504</ele>
        <time>2021-11-20T12:36:47Z</time>
      </trkpt>
      <trkpt lat="46.59115" lon="5.55316">
        <ele>504</ele>
        <time>2021-11-20T12:36:48Z</time>
      </trkpt>
      <trkpt lat="46.59115" lon="5.55316">
        <ele>504</ele>
        <time>2021-11-20T12:36:49Z</time>
      </trkpt>
      <trkpt lat="46.59115" lon="5.55316">
        <ele>504</ele>
        <time>2021-11-20T12:36:50Z</time>
      </trkpt>
      <trkpt lat="46.59115" lon="5.55316">
        <ele>504</ele>
        <time>2021-11-20T12:36:51Z</time>
      </trkpt>
      <trkpt lat="46.59115" lon="5.55316">
        <ele>504</ele>
        <time>2021-11-20T12:36:52Z</time>
      </trkpt>
      <trkpt lat="46.59115" lon="5.55316">
        <ele>504</ele>
        <time>2021-11-20T12:36:53Z</time>
      </trkpt>
      <trkpt lat="46.59115" lon="5.55316">
        <ele>504</ele>
        <time>2021-11-20T12:36:54Z</time>
      </trkpt>
      <trkpt lat="46.59115" lon="5.55316">
        <ele>504</ele>
        <time>2021-11-20T12:36:55Z</time>
      </trkpt>
      <trkpt lat="46.59115" lon="5.55316">
        <ele>504</ele>
        <time>2021-11-20T12:36:56Z</time>
      </trkpt>
      <trkpt lat="46.59115" lon="5.55316">
        <ele>504</ele>
        <time>2021-11-20T12:36:57Z</time>
      </trkpt>
      <trkpt lat="46.59115" lon="5.55316">
        <ele>504</ele>
        <time>2021-11-20T12:36:58Z</time>
      </trkpt>
      <trkpt lat="46.59115" lon="5.55316">
        <ele>504</ele>
        <time>2021-11-20T12:36:59Z</time>
      </trkpt>
      <trkpt lat="46.59115" lon="5.55316">
        <ele>504</ele>
        <time>2021-11-20T12:37:00Z</time>
      </trkpt>
      <trkpt lat="46.59115" lon="5.55316">
        <ele>504</ele>
        <time>2021-11-20T12:37:01Z</time>
      </trkpt>
      <trkpt lat="46.59115" lon="5.55316">
        <ele>504</ele>
        <time>2021-11-20T12:37:02Z</time>
      </trkpt>
      <trkpt lat="46.59115" lon="5.55316">
        <ele>504</ele>
        <time>2021-11-20T12:37:03Z</time>
      </trkpt>
      <trkpt lat="46.59115" lon="5.55316">
        <ele>504</ele>
        <time>2021-11-20T12:37:04Z</time>
      </trkpt>
      <trkpt lat="46.59115" lon="5.55316">
        <ele>504</ele>
        <time>2021-11-20T12:37:05Z</time>
      </trkpt>
      <trkpt lat="46.59115" lon="5.55316">
        <ele>504</ele>
        <time>2021-11-20T12:37:06Z</time>
      </trkpt>
      <trkpt lat="46.59115" lon="5.55316">
        <ele>504</ele>
        <time>2021-11-20T12:37:07Z</time>
      </trkpt>
      <trkpt lat="46.59203" lon="5.55404">
        <ele>504</ele>
        <time>2021-11-20T12:37:08Z</time>
      </trkpt>
      <trkpt lat="46.59203" lon="5.55404">
        <ele>504</ele>
        <time>2021-11-20T12:37:09Z</time>
      </trkpt>
      <trkpt lat="46.59203" lon="5.55404">
        <ele>504</ele>
        <time>2021-11-20T12:37:10Z</time>
      </trkpt>
      <trkpt lat="46.59203" lon="5.55404">
        <ele>504</ele>
        <time>2021-11-20T12:37:11Z</time>
      </trkpt>
      <trkpt lat="46.59203" lon="5.55404">
        <ele>504</ele>
        <time>2021-11-20T12:37:12Z</time>
      </trkpt>
      <trkpt lat="46.59203" lon="5.55404">
        <ele>504</ele>
        <time>2021-11-20T12:37:13Z</time>
      </trkpt>
      <trkpt lat="46.59203" lon="5.55404">
        <ele>504</ele>
        <time>2021-11-20T12:37:14Z</time>
      </trkpt>
      <trkpt lat="46.59203" lon="5.55404">
        <ele>504</ele>
        <time>2021-11-20T12:37:15Z</time>
      </trkpt>
      <trkpt lat="46.59203" lon="5.55404">
        <ele>504</ele>
        <time>2021-11-20T12:37:16Z</time>
      </trkpt>
      <trkpt lat="46.59203" lon="5.55404">
        <ele>504</ele>
        <time>2021-11-20T12:37:17Z</time>
      </trkpt>
      <trkpt lat="46.59203" lon="5.55404">
        <ele>504</ele>
        <time>2021-11-20T12:37:18Z</time>
      </trkpt>
      <trkpt lat="46.59203" lon="5.55404">
        <ele>513</ele>
        <time>2021-11-20T12:37:19Z</time>
      </trkpt>
      <trkpt lat="46.59203" lon="5.55404">
        <ele>513</ele>
        <time>2021-11-20T12:37:20Z</time>
      </trkpt>
      <trkpt lat="46.59203" lon="5.55404">
        <ele>513</ele>
        <time>2021-11-20T12:37:21Z</time>
      </trkpt>
      <trkpt lat="46.59203" lon="5.55404">
        <ele>513</ele>
        <time>2021-11-20T12:37:22Z</time>
      </trkpt>
      <trkpt lat="46.59203" lon="5.55404">
        <ele>513</ele>
        <time>2021-11-20T12:37:23Z</time>
      </trkpt>
      <trkpt lat="46.59203" lon="5.55404">
        <ele>513</ele>
        <time>2021-11-20T12:37:24Z</time>
      </trkpt>
      <trkpt lat="46.59203" lon="5.55404">
        <ele>513</ele>
        <time>2021-11-20T12:37:25Z</time>
      </trkpt>
      <trkpt lat="46.59203" lon="5.55404">
        <ele>513</ele>
        <time>2021-11-20T12:37:26Z</time>
      </trkpt>
      <trkpt lat="46.59203" lon="5.55404">
        <ele>513</ele>
        <time>2021-11-20T12:37:27Z</time>
      </trkpt>
      <trkpt lat="46.59203" lon="5.55404">
        <ele>513</ele>
        <time>2021-11-20T12:37:28Z</time>
      </trkpt>
      <trkpt lat="46.59203" lon="5.55404">
        <ele>513</ele>
        <time>2021-11-20T12:37:29Z</time>
      </trkpt>
      <trkpt lat="46.59203" lon="5.55404">
        <ele>513</ele>
        <time>2021-11-20T12:37:30Z</time>
      </trkpt>
      <trkpt lat="46.59203" lon="5.55404">
        <ele>513</ele>
        <time>2021-11-20T12:37:31Z</time>
      </trkpt>
      <trkpt lat="46.59203" lon="5.55404">
        <ele>513</ele>
        <time>2021-11-20T12:37:32Z</time>
      </trkpt>
      <trkpt lat="46.59203" lon="5.55404">
        <ele>513</ele>
        <time>2021-11-20T12:37:33Z</time>
      </trkpt>
      <trkpt lat="46.59203" lon="5.55404">
        <ele>513</ele>
        <time>2021-11-20T12:37:34Z</time>
      </trkpt>
      <trkpt lat="46.59203" lon="5.55404">
        <ele>513</ele>
        <time>2021-11-20T12:37:35Z</time>
      </trkpt>
      <trkpt lat="46.59203" lon="5.55404">
        <ele>513</ele>
        <time>2021-11-20T12:37:36Z</time>
      </trkpt>
      <trkpt lat="46.59203" lon="5.55404">
        <ele>513</ele>
        <time>2021-11-20T12:37:37Z</time>
      </trkpt>
      <trkpt lat="46.59203" lon="5.55404">
        <ele>513</ele>
        <time>2021-11-20T12:37:38Z</time>
      </trkpt>
      <trkpt lat="46.59203" lon="5.55404">
        <ele>513</ele>
        <time>2021-11-20T12:37:39Z</time>
      </trkpt>
      <trkpt lat="46.59203" lon="5.55404">
        <ele>513</ele>
        <time>2021-11-20T12:37:40Z</time>
      </trkpt>
      <trkpt lat="46.59203" lon="5.55404">
        <ele>513</ele>
        <time>2021-11-20T12:37:41Z</time>
      </trkpt>
      <trkpt lat="46.59203" lon="5.55404">
        <ele>513</ele>
        <time>2021-11-20T12:37:42Z</time>
      </trkpt>
      <trkpt lat="46.59203" lon="5.55404">
        <ele>513</ele>
        <time>2021-11-20T12:37:43Z</time>
      </trkpt>
      <trkpt lat="46.59203" lon="5.55404">
        <ele>513</ele>
        <time>2021-11-20T12:37:44Z</time>
      </trkpt>
      <trkpt lat="46.59203" lon="5.55404">
        <ele>513</ele>
        <time>2021-11-20T12:37:45Z</time>
      </trkpt>
      <trkpt lat="46.59203" lon="5.55404">
        <ele>513</ele>
        <time>2021-11-20T12:37:46Z</time>
      </trkpt>
      <trkpt lat="46.59203" lon="5.55404">
        <ele>513</ele>
        <time>2021-11-20T12:37:47Z</time>
      </trkpt>
      <trkpt lat="46.59203" lon="5.55404">
        <ele>513</ele>
        <time>2021-11-20T12:37:48Z</time>
      </trkpt>
      <trkpt lat="46.59203" lon="5.55404">
        <ele>513</ele>
        <time>2021-11-20T12:37:49Z</time>
      </trkpt>
      <trkpt lat="46.59203" lon="5.55404">
        <ele>513</ele>
        <time>2021-11-20T12:37:50Z</time>
      </trkpt>
      <trkpt lat="46.59203" lon="5.55404">
        <ele>513</ele>
        <time>2021-11-20T12:37:51Z</time>
      </trkpt>
      <trkpt lat="46.59203" lon="5.55404">
        <ele>513</ele>
        <time>2021-11-20T12:37:52Z</time>
      </trkpt>
      <trkpt lat="46.59203" lon="5.55404">
        <ele>513</ele>
        <time>2021-11-20T12:37:53Z</time>
      </trkpt>
      <trkpt lat="46.59203" lon="5.55404">
        <ele>513</ele>
        <time>2021-11-20T12:37:54Z</time>
      </trkpt>
      <trkpt lat="46.59203" lon="5.55404">
        <ele>513</ele>
        <time>2021-11-20T12:37:55Z</time>
      </trkpt>
      <trkpt lat="46.59203" lon="5.55404">
        <ele>513</ele>
        <time>2021-11-20T12:37:56Z</time>
      </trkpt>
      <trkpt lat="46.59203" lon="5.55404">
        <ele>513</ele>
        <time>2021-11-20T12:37:57Z</time>
      </trkpt>
      <trkpt lat="46.59203" lon="5.55404">
        <ele>513</ele>
        <time>2021-11-20T12:37:58Z</time>
      </trkpt>
      <trkpt lat="46.59203" lon="5.55404">
        <ele>513</ele>
        <time>2021-11-20T12:37:59Z</time>
      </trkpt>
      <trkpt lat="46.59203" lon="5.55404">
        <ele>513</ele>
        <time>2021-11-20T12:38:00Z</time>
      </trkpt>
      <trkpt lat="46.59203" lon="5.55404">
        <ele>513</ele>
        <time>2021-11-20T12:38:01Z</time>
      </trkpt>
      <trkpt lat="46.59203" lon="5.55404">
        <ele>513</ele>
        <time>2021-11-20T12:38:02Z</time>
      </trkpt>
      <trkpt lat="46.59203" lon="5.55404">
        <ele>513</ele>
        <time>2021-11-20T12:38:03Z</time>
      </trkpt>
      <trkpt lat="46.59203" lon="5.55404">
        <ele>513</ele>
        <time>2021-11-20T12:38:04Z</time>
      </trkpt>
      <trkpt lat="46.59203" lon="5.55404">
        <ele>513</ele>
        <time>2021-11-20T12:38:05Z</time>
      </trkpt>
      <trkpt lat="46.59203" lon="5.55404">
        <ele>513</ele>
        <time>2021-11-20T12:38:06Z</time>
      </trkpt>
      <trkpt lat="46.59203" lon="5.55404">
        <ele>513</ele>
        <time>2021-11-20T12:38:07Z</time>
      </trkpt>
      <trkpt lat="46.5931" lon="5.55475">
        <ele>513</ele>
        <time>2021-11-20T12:38:08Z</time>
      </trkpt>
      <trkpt lat="46.5931" lon="5.55475">
        <ele>513</ele>
        <time>2021-11-20T12:38:09Z</time>
      </trkpt>
      <trkpt lat="46.5931" lon="5.55475">
        <ele>513</ele>
        <time>2021-11-20T12:38:10Z</time>
      </trkpt>
      <trkpt lat="46.5931" lon="5.55475">
        <ele>513</ele>
        <time>2021-11-20T12:38:11Z</time>
      </trkpt>
      <trkpt lat="46.5931" lon="5.55475">
        <ele>513</ele>
        <time>2021-11-20T12:38:12Z</time>
      </trkpt>
      <trkpt lat="46.5931" lon="5.55475">
        <ele>513</ele>
        <time>2021-11-20T12:38:13Z</time>
      </trkpt>
      <trkpt lat="46.5931" lon="5.55475">
        <ele>513</ele>
        <time>2021-11-20T12:38:14Z</time>
      </trkpt>
      <trkpt lat="46.5931" lon="5.55475">
        <ele>513</ele>
        <time>2021-11-20T12:38:15Z</time>
      </trkpt>
      <trkpt lat="46.5931" lon="5.55475">
        <ele>513</ele>
        <time>2021-11-20T12:38:16Z</time>
      </trkpt>
      <trkpt lat="46.5931" lon="5.55475">
        <ele>513</ele>
        <time>2021-11-20T12:38:17Z</time>
      </trkpt>
      <trkpt lat="46.5931" lon="5.55475">
        <ele>513</ele>
        <time>2021-11-20T12:38:18Z</time>
      </trkpt>
      <trkpt lat="46.5931" lon="5.55475">
        <ele>512.2</ele>
        <time>2021-11-20T12:38:19Z</time>
      </trkpt>
      <trkpt lat="46.5931" lon="5.55475">
        <ele>512.2</ele>
        <time>2021-11-20T12:38:20Z</time>
      </trkpt>
      <trkpt lat="46.5931" lon="5.55475">
        <ele>512.2</ele>
        <time>2021-11-20T12:38:21Z</time>
      </trkpt>
      <trkpt lat="46.5931" lon="5.55475">
        <ele>512.2</ele>
        <time>2021-11-20T12:38:22Z</time>
      </trkpt>
      <trkpt lat="46.5931" lon="5.55475">
        <ele>512.2</ele>
        <time>2021-11-20T12:38:23Z</time>
      </trkpt>
      <trkpt lat="46.5931" lon="5.55475">
        <ele>512.2</ele>
        <time>2021-11-20T12:38:24Z</time>
      </trkpt>
      <trkpt lat="46.5931" lon="5.55475">
        <ele>512.2</ele>
        <time>2021-11-20T12:38:25Z</time>
      </trkpt>
      <trkpt lat="46.5931" lon="5.55475">
        <ele>512.2</ele>
        <time>2021-11-20T12:38:26Z</time>
      </trkpt>
      <trkpt lat="46.5931" lon="5.55475">
        <ele>512.2</ele>
        <time>2021-11-20T12:38:27Z</time>
      </trkpt>
      <trkpt lat="46.5931" lon="5.55475">
        <ele>512.2</ele>
        <time>2021-11-20T12:38:28Z</time>
      </trkpt>
      <trkpt lat="46.5931" lon="5.55475">
        <ele>512.2</ele>
        <time>2021-11-20T12:38:29Z</time>
      </trkpt>
      <trkpt lat="46.5931" lon="5.55475">
        <ele>512.2</ele>
        <time>2021-11-20T12:38:30Z</time>
      </trkpt>
      <trkpt lat="46.5931" lon="5.55475">
        <ele>512.2</ele>
        <time>2021-11-20T12:38:31Z</time>
      </trkpt>
      <trkpt lat="46.5931" lon="5.55475">
        <ele>512.2</ele>
        <time>2021-11-20T12:38:32Z</time>
      </trkpt>
      <trkpt lat="46.5931" lon="5.55475">
        <ele>512.2</ele>
        <time>2021-11-20T12:38:33Z</time>
      </trkpt>
      <trkpt lat="46.5931" lon="5.55475">
        <ele>512.2</ele>
        <time>2021-11-20T12:38:34Z</time>
      </trkpt>
      <trkpt lat="46.5931" lon="5.55475">
        <ele>512.2</ele>
        <time>2021-11-20T12:38:35Z</time>
      </trkpt>
      <trkpt lat="46.5931" lon="5.55475">
        <ele>512.2</ele>
        <time>2021-11-20T12:38:36Z</time>
      </trkpt>
      <trkpt lat="46.5931" lon="5.55475">
        <ele>512.2</ele>
        <time>2021-11-20T12:38:37Z</time>
      </trkpt>
      <trkpt lat="46.5931" lon="5.55475">
        <ele>512.2</ele>
        <time>2021-11-20T12:38:38Z</time>
      </trkpt>
      <trkpt lat="46.5931" lon="5.55475">
        <ele>512.2</ele>
        <time>2021-11-20T12:38:39Z</time>
      </trkpt>
      <trkpt lat="46.5931" lon="5.55475">
        <ele>512.2</ele>
        <time>2021-11-20T12:38:40Z</time>
      </trkpt>
      <trkpt lat="46.5931" lon="5.55475">
        <ele>512.2</ele>
        <time>2021-11-20T12:38:41Z</time>
      </trkpt>
      <trkpt lat="46.5931" lon="5.55475">
        <ele>512.2</ele>
        <time>2021-11-20T12:38:42Z</time>
      </trkpt>
      <trkpt lat="46.5931" lon="5.55475">
        <ele>512.2</ele>
        <time>2021-11-20T12:38:43Z</time>
      </trkpt>
      <trkpt lat="46.5931" lon="5.55475">
        <ele>512.2</ele>
        <time>2021-11-20T12:38:44Z</time>
      </trkpt>
      <trkpt lat="46.5931" lon="5.55475">
        <ele>512.2</ele>
        <time>2021-11-20T12:38:45Z</time>
      </trkpt>
      <trkpt lat="46.5931" lon="5.55475">
        <ele>512.2</ele>
        <time>2021-11-20T12:38:46Z</time>
      </trkpt>
      <trkpt lat="46.5931" lon="5.55475">
        <ele>512.2</ele>
        <time>2021-11-20T12:38:47Z</time>
      </trkpt>
      <trkpt lat="46.5931" lon="5.55475">
        <ele>512.2</ele>
        <time>2021-11-20T12:38:48Z</time>
      </trkpt>
      <trkpt lat="46.5931" lon="5.55475">
        <ele>512.2</ele>
        <time>2021-11-20T12:38:49Z</time>
      </trkpt>
      <trkpt lat="46.5931" lon="5.55475">
        <ele>512.2</ele>
        <time>2021-11-20T12:38:50Z</time>
      </trkpt>
      <trkpt lat="46.5931" lon="5.55475">
        <ele>512.2</ele>
        <time>2021-11-20T12:38:51Z</time>
      </trkpt>
      <trkpt lat="46.5931" lon="5.55475">
        <ele>512.2</ele>
        <time>2021-11-20T12:38:52Z</time>
      </trkpt>
      <trkpt lat="46.5931" lon="5.55475">
        <ele>512.2</ele>
        <time>2021-11-20T12:38:53Z</time>
      </trkpt>
      <trkpt lat="46.5931" lon="5.55475">
        <ele>512.2</ele>
        <time>2021-11-20T12:38:54Z</time>
      </trkpt>
      <trkpt lat="46.5931" lon="5.55475">
        <ele>512.2</ele>
        <time>2021-11-20T12:38:55Z</time>
      </trkpt>
      <trkpt lat="46.5931" lon="5.55475">
        <ele>512.2</ele>
        <time>2021-11-20T12:38:56Z</time>
      </trkpt>
      <trkpt lat="46.5931" lon="5.55475">
        <ele>512.2</ele>
        <time>2021-11-20T12:38:57Z</time>
      </trkpt>
      <trkpt lat="46.5931" lon="5.55475">
        <ele>512.2</ele>
        <time>2021-11-20T12:38:58Z</time>
      </trkpt>
      <trkpt lat="46.5931" lon="5.55475">
        <ele>512.2</ele>
        <time>2021-11-20T12:38:59Z</time>
      </trkpt>
      <trkpt lat="46.5931" lon="5.55475">
        <ele>512.2</ele>
        <time>2021-11-20T12:39:00Z</time>
      </trkpt>
      <trkpt lat="46.5931" lon="5.55475">
        <ele>512.2</ele>
        <time>2021-11-20T12:39:01Z</time>
      </trkpt>
      <trkpt lat="46.5931" lon="5.55475">
        <ele>512.2</ele>
        <time>2021-11-20T12:39:02Z</time>
      </trkpt>
      <trkpt lat="46.5931" lon="5.55475">
        <ele>512.2</ele>
        <time>2021-11-20T12:39:03Z</time>
      </trkpt>
      <trkpt lat="46.5931" lon="5.55475">
        <ele>512.2</ele>
        <time>2021-11-20T12:39:04Z</time>
      </trkpt>
      <trkpt lat="46.5931" lon="5.55475">
        <ele>512.2</ele>
        <time>2021-11-20T12:39:05Z</time>
      </trkpt>
      <trkpt lat="46.5931" lon="5.55475">
        <ele>512.2</ele>
        <time>2021-11-20T12:39:06Z</time>
      </trkpt>
      <trkpt lat="46.5931" lon="5.55475">
        <ele>512.2</ele>
        <time>2021-11-20T12:39:07Z</time>
      </trkpt>
      <trkpt lat="46.59407" lon="5.55525">
        <ele>512.2</ele>
        <time>2021-11-20T12:39:08Z</time>
      </trkpt>
      <trkpt lat="46.59407" lon="5.55525">
        <ele>512.2</ele>
        <time>2021-11-20T12:39:09Z</time>
      </trkpt>
      <trkpt lat="46.59407" lon="5.55525">
        <ele>512.2</ele>
        <time>2021-11-20T12:39:10Z</time>
      </trkpt>
      <trkpt lat="46.59407" lon="5.55525">
        <ele>512.2</ele>
        <time>2021-11-20T12:39:11Z</time>
      </trkpt>
      <trkpt lat="46.59407" lon="5.55525">
        <ele>512.2</ele>
        <time>2021-11-20T12:39:12Z</time>
      </trkpt>
      <trkpt lat="46.59407" lon="5.55525">
        <ele>512.2</ele>
        <time>2021-11-20T12:39:13Z</time>
      </trkpt>
      <trkpt lat="46.59407" lon="5.55525">
        <ele>512.2</ele>
        <time>2021-11-20T12:39:14Z</time>
      </trkpt>
      <trkpt lat="46.59407" lon="5.55525">
        <ele>512.2</ele>
        <time>2021-11-20T12:39:15Z</time>
      </trkpt>
      <trkpt lat="46.59407" lon="5.55525">
        <ele>512.2</ele>
        <time>2021-11-20T12:39:16Z</time>
      </trkpt>
      <trkpt lat="46.59407" lon="5.55525">
        <ele>512.2</ele>
        <time>2021-11-20T12:39:17Z</time>
      </trkpt>
      <trkpt lat="46.59407" lon="5.55525">
        <ele>512.2</ele>
        <time>2021-11-20T12:39:18Z</time>
      </trkpt>
      <trkpt lat="46.59407" lon="5.55525">
        <ele>509</ele>
        <time>2021-11-20T12:39:19Z</time>
      </trkpt>
      <trkpt lat="46.59407" lon="5.55525">
        <ele>509</ele>
        <time>2021-11-20T12:39:20Z</time>
      </trkpt>
      <trkpt lat="46.59407" lon="5.55525">
        <ele>509</ele>
        <time>2021-11-20T12:39:21Z</time>
      </trkpt>
      <trkpt lat="46.59407" lon="5.55525">
        <ele>509</ele>
        <time>2021-11-20T12:39:22Z</time>
      </trkpt>
      <trkpt lat="46.59407" lon="5.55525">
        <ele>509</ele>
        <time>2021-11-20T12:39:23Z</time>
      </trkpt>
      <trkpt lat="46.59407" lon="5.55525">
        <ele>509</ele>
        <time>2021-11-20T12:39:24Z</time>
      </trkpt>
      <trkpt lat="46.59407" lon="5.55525">
        <ele>509</ele>
        <time>2021-11-20T12:39:25Z</time>
      </trkpt>
      <trkpt lat="46.59407" lon="5.55525">
        <ele>509</ele>
        <time>2021-11-20T12:39:26Z</time>
      </trkpt>
      <trkpt lat="46.59407" lon="5.55525">
        <ele>509</ele>
        <time>2021-11-20T12:39:27Z</time>
      </trkpt>
      <trkpt lat="46.59407" lon="5.55525">
        <ele>509</ele>
        <time>2021-11-20T12:39:28Z</time>
      </trkpt>
      <trkpt lat="46.59407" lon="5.55525">
        <ele>509</ele>
        <time>2021-11-20T12:39:29Z</time>
      </trkpt>
      <trkpt lat="46.59407" lon="5.55525">
        <ele>509</ele>
        <time>2021-11-20T12:39:30Z</time>
      </trkpt>
      <trkpt lat="46.59407" lon="5.55525">
        <ele>509</ele>
        <time>2021-11-20T12:39:31Z</time>
      </trkpt>
      <trkpt lat="46.59407" lon="5.55525">
        <ele>509</ele>
        <time>2021-11-20T12:39:32Z</time>
      </trkpt>
      <trkpt lat="46.59407" lon="5.55525">
        <ele>509</ele>
        <time>2021-11-20T12:39:33Z</time>
      </trkpt>
      <trkpt lat="46.59407" lon="5.55525">
        <ele>509</ele>
        <time>2021-11-20T12:39:34Z</time>
      </trkpt>
      <trkpt lat="46.59407" lon="5.55525">
        <ele>509</ele>
        <time>2021-11-20T12:39:35Z</time>
      </trkpt>
      <trkpt lat="46.59407" lon="5.55525">
        <ele>509</ele>
        <time>2021-11-20T12:39:36Z</time>
      </trkpt>
      <trkpt lat="46.59407" lon="5.55525">
        <ele>509</ele>
        <time>2021-11-20T12:39:37Z</time>
      </trkpt>
      <trkpt lat="46.59407" lon="5.55525">
        <ele>509</ele>
        <time>2021-11-20T12:39:38Z</time>
      </trkpt>
      <trkpt lat="46.59407" lon="5.55525">
        <ele>509</ele>
        <time>2021-11-20T12:39:39Z</time>
      </trkpt>
      <trkpt lat="46.59407" lon="5.55525">
        <ele>509</ele>
        <time>2021-11-20T12:39:40Z</time>
      </trkpt>
      <trkpt lat="46.59407" lon="5.55525">
        <ele>509</ele>
        <time>2021-11-20T12:39:41Z</time>
      </trkpt>
      <trkpt lat="46.59407" lon="5.55525">
        <ele>509</ele>
        <time>2021-11-20T12:39:42Z</time>
      </trkpt>
      <trkpt lat="46.59407" lon="5.55525">
        <ele>509</ele>
        <time>2021-11-20T12:39:43Z</time>
      </trkpt>
      <trkpt lat="46.59407" lon="5.55525">
        <ele>509</ele>
        <time>2021-11-20T12:39:44Z</time>
      </trkpt>
      <trkpt lat="46.59407" lon="5.55525">
        <ele>509</ele>
        <time>2021-11-20T12:39:45Z</time>
      </trkpt>
      <trkpt lat="46.59407" lon="5.55525">
        <ele>509</ele>
        <time>2021-11-20T12:39:46Z</time>
      </trkpt>
      <trkpt lat="46.59407" lon="5.55525">
        <ele>509</ele>
        <time>2021-11-20T12:39:47Z</time>
      </trkpt>
      <trkpt lat="46.59407" lon="5.55525">
        <ele>509</ele>
        <time>2021-11-20T12:39:48Z</time>
      </trkpt>
      <trkpt lat="46.59407" lon="5.55525">
        <ele>509</ele>
        <time>2021-11-20T12:39:49Z</time>
      </trkpt>
      <trkpt lat="46.59407" lon="5.55525">
        <ele>509</ele>
        <time>2021-11-20T12:39:50Z</time>
      </trkpt>
      <trkpt lat="46.59407" lon="5.55525">
        <ele>509</ele>
        <time>2021-11-20T12:39:51Z</time>
      </trkpt>
      <trkpt lat="46.59407" lon="5.55525">
        <ele>509</ele>
        <time>2021-11-20T12:39:52Z</time>
      </trkpt>
      <trkpt lat="46.59407" lon="5.55525">
        <ele>509</ele>
        <time>2021-11-20T12:39:53Z</time>
      </trkpt>
      <trkpt lat="46.59407" lon="5.55525">
        <ele>509</ele>
        <time>2021-11-20T12:39:54Z</time>
      </trkpt>
      <trkpt lat="46.59407" lon="5.55525">
        <ele>509</ele>
        <time>2021-11-20T12:39:55Z</time>
      </trkpt>
      <trkpt lat="46.59407" lon="5.55525">
        <ele>509</ele>
        <time>2021-11-20T12:39:56Z</time>
      </trkpt>
      <trkpt lat="46.59407" lon="5.55525">
        <ele>509</ele>
        <time>2021-11-20T12:39:57Z</time>
      </trkpt>
      <trkpt lat="46.59407" lon="5.55525">
        <ele>509</ele>
        <time>2021-11-20T12:39:58Z</time>
      </trkpt>
      <trkpt lat="46.59407" lon="5.55525">
        <ele>509</ele>
        <time>2021-11-20T12:39:59Z</time>
      </trkpt>
      <trkpt lat="46.59407" lon="5.55525">
        <ele>509</ele>
        <time>2021-11-20T12:40:00Z</time>
      </trkpt>
      <trkpt lat="46.59407" lon="5.55525">
        <ele>509</ele>
        <time>2021-11-20T12:40:01Z</time>
      </trkpt>
      <trkpt lat="46.59407" lon="5.55525">
        <ele>509</ele>
        <time>2021-11-20T12:40:02Z</time>
      </trkpt>
      <trkpt lat="46.59407" lon="5.55525">
        <ele>509</ele>
        <time>2021-11-20T12:40:03Z</time>
      </trkpt>
      <trkpt lat="46.59407" lon="5.55525">
        <ele>509</ele>
        <time>2021-11-20T12:40:04Z</time>
      </trkpt>
      <trkpt lat="46.59407" lon="5.55525">
        <ele>509</ele>
        <time>2021-11-20T12:40:05Z</time>
      </trkpt>
      <trkpt lat="46.59407" lon="5.55525">
        <ele>509</ele>
        <time>2021-11-20T12:40:06Z</time>
      </trkpt>
      <trkpt lat="46.59407" lon="5.55525">
        <ele>509</ele>
        <time>2021-11-20T12:40:07Z</time>
      </trkpt>
      <trkpt lat="46.59504" lon="5.55588">
        <ele>509</ele>
        <time>2021-11-20T12:40:08Z</time>
      </trkpt>
      <trkpt lat="46.59504" lon="5.55588">
        <ele>509</ele>
        <time>2021-11-20T12:40:09Z</time>
      </trkpt>
      <trkpt lat="46.59504" lon="5.55588">
        <ele>509</ele>
        <time>2021-11-20T12:40:10Z</time>
      </trkpt>
      <trkpt lat="46.59504" lon="5.55588">
        <ele>509</ele>
        <time>2021-11-20T12:40:11Z</time>
      </trkpt>
      <trkpt lat="46.59504" lon="5.55588">
        <ele>509</ele>
        <time>2021-11-20T12:40:12Z</time>
      </trkpt>
      <trkpt lat="46.59504" lon="5.55588">
        <ele>509</ele>
        <time>2021-11-20T12:40:13Z</time>
      </trkpt>
      <trkpt lat="46.59504" lon="5.55588">
        <ele>509</ele>
        <time>2021-11-20T12:40:14Z</time>
      </trkpt>
      <trkpt lat="46.59504" lon="5.55588">
        <ele>509</ele>
        <time>2021-11-20T12:40:15Z</time>
      </trkpt>
      <trkpt lat="46.59504" lon="5.55588">
        <ele>509</ele>
        <time>2021-11-20T12:40:16Z</time>
      </trkpt>
      <trkpt lat="46.59504" lon="5.55588">
        <ele>509</ele>
        <time>2021-11-20T12:40:17Z</time>
      </trkpt>
      <trkpt lat="46.59504" lon="5.55588">
        <ele>509</ele>
        <time>2021-11-20T12:40:18Z</time>
      </trkpt>
      <trkpt lat="46.59504" lon="5.55588">
        <ele>505.8</ele>
        <time>2021-11-20T12:40:19Z</time>
      </trkpt>
      <trkpt lat="46.59504" lon="5.55588">
        <ele>505.8</ele>
        <time>2021-11-20T12:40:20Z</time>
      </trkpt>
      <trkpt lat="46.59504" lon="5.55588">
        <ele>505.8</ele>
        <time>2021-11-20T12:40:21Z</time>
      </trkpt>
      <trkpt lat="46.59504" lon="5.55588">
        <ele>505.8</ele>
        <time>2021-11-20T12:40:22Z</time>
      </trkpt>
      <trkpt lat="46.59504" lon="5.55588">
        <ele>505.8</ele>
        <time>2021-11-20T12:40:23Z</time>
      </trkpt>
      <trkpt lat="46.59504" lon="5.55588">
        <ele>505.8</ele>
        <time>2021-11-20T12:40:24Z</time>
      </trkpt>
      <trkpt lat="46.59504" lon="5.55588">
        <ele>505.8</ele>
        <time>2021-11-20T12:40:25Z</time>
      </trkpt>
      <trkpt lat="46.59504" lon="5.55588">
        <ele>505.8</ele>
        <time>2021-11-20T12:40:26Z</time>
      </trkpt>
      <trkpt lat="46.59504" lon="5.55588">
        <ele>505.8</ele>
        <time>2021-11-20T12:40:27Z</time>
      </trkpt>
      <trkpt lat="46.59504" lon="5.55588">
        <ele>505.8</ele>
        <time>2021-11-20T12:40:28Z</time>
      </trkpt>
      <trkpt lat="46.59504" lon="5.55588">
        <ele>505.8</ele>
        <time>2021-11-20T12:40:29Z</time>
      </trkpt>
      <trkpt lat="46.59504" lon="5.55588">
        <ele>505.8</ele>
        <time>2021-11-20T12:40:30Z</time>
      </trkpt>
      <trkpt lat="46.59504" lon="5.55588">
        <ele>505.8</ele>
        <time>2021-11-20T12:40:31Z</time>
      </trkpt>
      <trkpt lat="46.59504" lon="5.55588">
        <ele>505.8</ele>
        <time>2021-11-20T12:40:32Z</time>
      </trkpt>
      <trkpt lat="46.59504" lon="5.55588">
        <ele>505.8</ele>
        <time>2021-11-20T12:40:33Z</time>
      </trkpt>
      <trkpt lat="46.59504" lon="5.55588">
        <ele>505.8</ele>
        <time>2021-11-20T12:40:34Z</time>
      </trkpt>
      <trkpt lat="46.59504" lon="5.55588">
        <ele>505.8</ele>
        <time>2021-11-20T12:40:35Z</time>
      </trkpt>
      <trkpt lat="46.59504" lon="5.55588">
        <ele>505.8</ele>
        <time>2021-11-20T12:40:36Z</time>
      </trkpt>
      <trkpt lat="46.59504" lon="5.55588">
        <ele>505.8</ele>
        <time>2021-11-20T12:40:37Z</time>
      </trkpt>
      <trkpt lat="46.59504" lon="5.55588">
        <ele>505.8</ele>
        <time>2021-11-20T12:40:38Z</time>
      </trkpt>
      <trkpt lat="46.59504" lon="5.55588">
        <ele>505.8</ele>
        <time>2021-11-20T12:40:39Z</time>
      </trkpt>
      <trkpt lat="46.59504" lon="5.55588">
        <ele>505.8</ele>
        <time>2021-11-20T12:40:40Z</time>
      </trkpt>
      <trkpt lat="46.59504" lon="5.55588">
        <ele>505.8</ele>
        <time>2021-11-20T12:40:41Z</time>
      </trkpt>
      <trkpt lat="46.59504" lon="5.55588">
        <ele>505.8</ele>
        <time>2021-11-20T12:40:42Z</time>
      </trkpt>
      <trkpt lat="46.59504" lon="5.55588">
        <ele>505.8</ele>
        <time>2021-11-20T12:40:43Z</time>
      </trkpt>
      <trkpt lat="46.59504" lon="5.55588">
        <ele>505.8</ele>
        <time>2021-11-20T12:40:44Z</time>
      </trkpt>
      <trkpt lat="46.59504" lon="5.55588">
        <ele>505.8</ele>
        <time>2021-11-20T12:40:45Z</time>
      </trkpt>
      <trkpt lat="46.59504" lon="5.55588">
        <ele>505.8</ele>
        <time>2021-11-20T12:40:46Z</time>
      </trkpt>
      <trkpt lat="46.59504" lon="5.55588">
        <ele>505.8</ele>
        <time>2021-11-20T12:40:47Z</time>
      </trkpt>
      <trkpt lat="46.59504" lon="5.55588">
        <ele>505.8</ele>
        <time>2021-11-20T12:40:48Z</time>
      </trkpt>
      <trkpt lat="46.59504" lon="5.55588">
        <ele>505.8</ele>
        <time>2021-11-20T12:40:49Z</time>
      </trkpt>
      <trkpt lat="46.59504" lon="5.55588">
        <ele>505.8</ele>
        <time>2021-11-20T12:40:50Z</time>
      </trkpt>
      <trkpt lat="46.59504" lon="5.55588">
        <ele>505.8</ele>
        <time>2021-11-20T12:40:51Z</time>
      </trkpt>
      <trkpt lat="46.59504" lon="5.55588">
        <ele>505.8</ele>
        <time>2021-11-20T12:40:52Z</time>
      </trkpt>
      <trkpt lat="46.59504" lon="5.55588">
        <ele>505.8</ele>
        <time>2021-11-20T12:40:53Z</time>
      </trkpt>
      <trkpt lat="46.59504" lon="5.55588">
        <ele>505.8</ele>
        <time>2021-11-20T12:40:54Z</time>
      </trkpt>
      <trkpt lat="46.59504" lon="5.55588">
        <ele>505.8</ele>
        <time>2021-11-20T12:40:55Z</time>
      </trkpt>
      <trkpt lat="46.59504" lon="5.55588">
        <ele>505.8</ele>
        <time>2021-11-20T12:40:56Z</time>
      </trkpt>
      <trkpt lat="46.59504" lon="5.55588">
        <ele>505.8</ele>
        <time>2021-11-20T12:40:57Z</time>
      </trkpt>
      <trkpt lat="46.59504" lon="5.55588">
        <ele>505.8</ele>
        <time>2021-11-20T12:40:58Z</time>
      </trkpt>
      <trkpt lat="46.59504" lon="5.55588">
        <ele>505.8</ele>
        <time>2021-11-20T12:40:59Z</time>
      </trkpt>
      <trkpt lat="46.59504" lon="5.55588">
        <ele>505.8</ele>
        <time>2021-11-20T12:41:00Z</time>
      </trkpt>
      <trkpt lat="46.59504" lon="5.55588">
        <ele>505.8</ele>
        <time>2021-11-20T12:41:01Z</time>
      </trkpt>
      <trkpt lat="46.59504" lon="5.55588">
        <ele>505.8</ele>
        <time>2021-11-20T12:41:02Z</time>
      </trkpt>
      <trkpt lat="46.59504" lon="5.55588">
        <ele>505.8</ele>
        <time>2021-11-20T12:41:03Z</time>
      </trkpt>
      <trkpt lat="46.59504" lon="5.55588">
        <ele>505.8</ele>
        <time>2021-11-20T12:41:04Z</time>
      </trkpt>
      <trkpt lat="46.59504" lon="5.55588">
        <ele>505.8</ele>
        <time>2021-11-20T12:41:05Z</time>
      </trkpt>
      <trkpt lat="46.59504" lon="5.55588">
        <ele>505.8</ele>
        <time>2021-11-20T12:41:06Z</time>
      </trkpt>
      <trkpt lat="46.59504" lon="5.55588">
        <ele>505.8</ele>
        <time>2021-11-20T12:41:07Z</time>
      </trkpt>
      <trkpt lat="46.59655" lon="5.55661">
        <ele>505.8</ele>
        <time>2021-11-20T12:41:08Z</time>
      </trkpt>
      <trkpt lat="46.59655" lon="5.55661">
        <ele>505.8</ele>
        <time>2021-11-20T12:41:09Z</time>
      </trkpt>
      <trkpt lat="46.59655" lon="5.55661">
        <ele>505.8</ele>
        <time>2021-11-20T12:41:10Z</time>
      </trkpt>
      <trkpt lat="46.59655" lon="5.55661">
        <ele>505.8</ele>
        <time>2021-11-20T12:41:11Z</time>
      </trkpt>
      <trkpt lat="46.59655" lon="5.55661">
        <ele>505.8</ele>
        <time>2021-11-20T12:41:12Z</time>
      </trkpt>
      <trkpt lat="46.59655" lon="5.55661">
        <ele>505.8</ele>
        <time>2021-11-20T12:41:13Z</time>
      </trkpt>
      <trkpt lat="46.59655" lon="5.55661">
        <ele>505.8</ele>
        <time>2021-11-20T12:41:14Z</time>
      </trkpt>
      <trkpt lat="46.59655" lon="5.55661">
        <ele>505.8</ele>
        <time>2021-11-20T12:41:15Z</time>
      </trkpt>
      <trkpt lat="46.59655" lon="5.55661">
        <ele>505.8</ele>
        <time>2021-11-20T12:41:16Z</time>
      </trkpt>
      <trkpt lat="46.59655" lon="5.55661">
        <ele>505.8</ele>
        <time>2021-11-20T12:41:17Z</time>
      </trkpt>
      <trkpt lat="46.59655" lon="5.55661">
        <ele>505.8</ele>
        <time>2021-11-20T12:41:18Z</time>
      </trkpt>
      <trkpt lat="46.59655" lon="5.55661">
        <ele>503.6</ele>
        <time>2021-11-20T12:41:19Z</time>
      </trkpt>
      <trkpt lat="46.59655" lon="5.55661">
        <ele>503.6</ele>
        <time>2021-11-20T12:41:20Z</time>
      </trkpt>
      <trkpt lat="46.59655" lon="5.55661">
        <ele>503.6</ele>
        <time>2021-11-20T12:41:21Z</time>
      </trkpt>
      <trkpt lat="46.59655" lon="5.55661">
        <ele>503.6</ele>
        <time>2021-11-20T12:41:22Z</time>
      </trkpt>
      <trkpt lat="46.59655" lon="5.55661">
        <ele>503.6</ele>
        <time>2021-11-20T12:41:23Z</time>
      </trkpt>
      <trkpt lat="46.59655" lon="5.55661">
        <ele>503.6</ele>
        <time>2021-11-20T12:41:24Z</time>
      </trkpt>
      <trkpt lat="46.59655" lon="5.55661">
        <ele>503.6</ele>
        <time>2021-11-20T12:41:25Z</time>
      </trkpt>
      <trkpt lat="46.59655" lon="5.55661">
        <ele>503.6</ele>
        <time>2021-11-20T12:41:26Z</time>
      </trkpt>
      <trkpt lat="46.59655" lon="5.55661">
        <ele>503.6</ele>
        <time>2021-11-20T12:41:27Z</time>
      </trkpt>
      <trkpt lat="46.59655" lon="5.55661">
        <ele>503.6</ele>
        <time>2021-11-20T12:41:28Z</time>
      </trkpt>
      <trkpt lat="46.59655" lon="5.55661">
        <ele>503.6</ele>
        <time>2021-11-20T12:41:29Z</time>
      </trkpt>
      <trkpt lat="46.59655" lon="5.55661">
        <ele>503.6</ele>
        <time>2021-11-20T12:41:30Z</time>
      </trkpt>
      <trkpt lat="46.59655" lon="5.55661">
        <ele>503.6</ele>
        <time>2021-11-20T12:41:31Z</time>
      </trkpt>
      <trkpt lat="46.59655" lon="5.55661">
        <ele>503.6</ele>
        <time>2021-11-20T12:41:32Z</time>
      </trkpt>
      <trkpt lat="46.59655" lon="5.55661">
        <ele>503.6</ele>
        <time>2021-11-20T12:41:33Z</time>
      </trkpt>
      <trkpt lat="46.59655" lon="5.55661">
        <ele>503.6</ele>
        <time>2021-11-20T12:41:34Z</time>
      </trkpt>
      <trkpt lat="46.59655" lon="5.55661">
        <ele>503.6</ele>
        <time>2021-11-20T12:41:35Z</time>
      </trkpt>
      <trkpt lat="46.59655" lon="5.55661">
        <ele>503.6</ele>
        <time>2021-11-20T12:41:36Z</time>
      </trkpt>
      <trkpt lat="46.59655" lon="5.55661">
        <ele>503.6</ele>
        <time>2021-11-20T12:41:37Z</time>
      </trkpt>
      <trkpt lat="46.59655" lon="5.55661">
        <ele>503.6</ele>
        <time>2021-11-20T12:41:38Z</time>
      </trkpt>
      <trkpt lat="46.59655" lon="5.55661">
        <ele>503.6</ele>
        <time>2021-11-20T12:41:39Z</time>
      </trkpt>
      <trkpt lat="46.59655" lon="5.55661">
        <ele>503.6</ele>
        <time>2021-11-20T12:41:40Z</time>
      </trkpt>
      <trkpt lat="46.59655" lon="5.55661">
        <ele>503.6</ele>
        <time>2021-11-20T12:41:41Z</time>
      </trkpt>
      <trkpt lat="46.59655" lon="5.55661">
        <ele>503.6</ele>
        <time>2021-11-20T12:41:42Z</time>
      </trkpt>
      <trkpt lat="46.59655" lon="5.55661">
        <ele>503.6</ele>
        <time>2021-11-20T12:41:43Z</time>
      </trkpt>
      <trkpt lat="46.59655" lon="5.55661">
        <ele>503.6</ele>
        <time>2021-11-20T12:41:44Z</time>
      </trkpt>
      <trkpt lat="46.59655" lon="5.55661">
        <ele>503.6</ele>
        <time>2021-11-20T12:41:45Z</time>
      </trkpt>
      <trkpt lat="46.59655" lon="5.55661">
        <ele>503.6</ele>
        <time>2021-11-20T12:41:46Z</time>
      </trkpt>
      <trkpt lat="46.59655" lon="5.55661">
        <ele>503.6</ele>
        <time>2021-11-20T12:41:47Z</time>
      </trkpt>
      <trkpt lat="46.59655" lon="5.55661">
        <ele>503.6</ele>
        <time>2021-11-20T12:41:48Z</time>
      </trkpt>
      <trkpt lat="46.59655" lon="5.55661">
        <ele>503.6</ele>
        <time>2021-11-20T12:41:49Z</time>
      </trkpt>
      <trkpt lat="46.59655" lon="5.55661">
        <ele>503.6</ele>
        <time>2021-11-20T12:41:50Z</time>
      </trkpt>
      <trkpt lat="46.59655" lon="5.55661">
        <ele>503.6</ele>
        <time>2021-11-20T12:41:51Z</time>
      </trkpt>
      <trkpt lat="46.59655" lon="5.55661">
        <ele>503.6</ele>
        <time>2021-11-20T12:41:52Z</time>
      </trkpt>
      <trkpt lat="46.59655" lon="5.55661">
        <ele>503.6</ele>
        <time>2021-11-20T12:41:53Z</time>
      </trkpt>
      <trkpt lat="46.59655" lon="5.55661">
        <ele>503.6</ele>
        <time>2021-11-20T12:41:54Z</time>
      </trkpt>
      <trkpt lat="46.59655" lon="5.55661">
        <ele>503.6</ele>
        <time>2021-11-20T12:41:55Z</time>
      </trkpt>
      <trkpt lat="46.59655" lon="5.55661">
        <ele>503.6</ele>
        <time>2021-11-20T12:41:56Z</time>
      </trkpt>
      <trkpt lat="46.59655" lon="5.55661">
        <ele>503.6</ele>
        <time>2021-11-20T12:41:57Z</time>
      </trkpt>
      <trkpt lat="46.59655" lon="5.55661">
        <ele>503.6</ele>
        <time>2021-11-20T12:41:58Z</time>
      </trkpt>
      <trkpt lat="46.59655" lon="5.55661">
        <ele>503.6</ele>
        <time>2021-11-20T12:41:59Z</time>
      </trkpt>
      <trkpt lat="46.59655" lon="5.55661">
        <ele>503.6</ele>
        <time>2021-11-20T12:42:00Z</time>
      </trkpt>
      <trkpt lat="46.59655" lon="5.55661">
        <ele>503.6</ele>
        <time>2021-11-20T12:42:01Z</time>
      </trkpt>
      <trkpt lat="46.59655" lon="5.55661">
        <ele>503.6</ele>
        <time>2021-11-20T12:42:02Z</time>
      </trkpt>
      <trkpt lat="46.59655" lon="5.55661">
        <ele>503.6</ele>
        <time>2021-11-20T12:42:03Z</time>
      </trkpt>
      <trkpt lat="46.59655" lon="5.55661">
        <ele>503.6</ele>
        <time>2021-11-20T12:42:04Z</time>
      </trkpt>
      <trkpt lat="46.59655" lon="5.55661">
        <ele>503.6</ele>
        <time>2021-11-20T12:42:05Z</time>
      </trkpt>
      <trkpt lat="46.59655" lon="5.55661">
        <ele>503.6</ele>
        <time>2021-11-20T12:42:06Z</time>
      </trkpt>
      <trkpt lat="46.59655" lon="5.55661">
        <ele>503.6</ele>
        <time>2021-11-20T12:42:07Z</time>
      </trkpt>
      <trkpt lat="46.59733" lon="5.55713">
        <ele>503.6</ele>
        <time>2021-11-20T12:42:08Z</time>
      </trkpt>
      <trkpt lat="46.59733" lon="5.55713">
        <ele>503.6</ele>
        <time>2021-11-20T12:42:09Z</time>
      </trkpt>
      <trkpt lat="46.59733" lon="5.55713">
        <ele>503.6</ele>
        <time>2021-11-20T12:42:10Z</time>
      </trkpt>
      <trkpt lat="46.59733" lon="5.55713">
        <ele>503.6</ele>
        <time>2021-11-20T12:42:11Z</time>
      </trkpt>
      <trkpt lat="46.59733" lon="5.55713">
        <ele>503.6</ele>
        <time>2021-11-20T12:42:12Z</time>
      </trkpt>
      <trkpt lat="46.59733" lon="5.55713">
        <ele>503.6</ele>
        <time>2021-11-20T12:42:13Z</time>
      </trkpt>
      <trkpt lat="46.59733" lon="5.55713">
        <ele>503.6</ele>
        <time>2021-11-20T12:42:14Z</time>
      </trkpt>
      <trkpt lat="46.59733" lon="5.55713">
        <ele>503.6</ele>
        <time>2021-11-20T12:42:15Z</time>
      </trkpt>
      <trkpt lat="46.59733" lon="5.55713">
        <ele>503.6</ele>
        <time>2021-11-20T12:42:16Z</time>
      </trkpt>
      <trkpt lat="46.59733" lon="5.55713">
        <ele>503.6</ele>
        <time>2021-11-20T12:42:17Z</time>
      </trkpt>
      <trkpt lat="46.59733" lon="5.55713">
        <ele>503.6</ele>
        <time>2021-11-20T12:42:18Z</time>
      </trkpt>
      <trkpt lat="46.59733" lon="5.55713">
        <ele>500.2</ele>
        <time>2021-11-20T12:42:19Z</time>
      </trkpt>
      <trkpt lat="46.59733" lon="5.55713">
        <ele>500.2</ele>
        <time>2021-11-20T12:42:20Z</time>
      </trkpt>
      <trkpt lat="46.59733" lon="5.55713">
        <ele>500.2</ele>
        <time>2021-11-20T12:42:21Z</time>
      </trkpt>
      <trkpt lat="46.59733" lon="5.55713">
        <ele>500.2</ele>
        <time>2021-11-20T12:42:22Z</time>
      </trkpt>
      <trkpt lat="46.59733" lon="5.55713">
        <ele>500.2</ele>
        <time>2021-11-20T12:42:23Z</time>
      </trkpt>
      <trkpt lat="46.59733" lon="5.55713">
        <ele>500.2</ele>
        <time>2021-11-20T12:42:24Z</time>
      </trkpt>
      <trkpt lat="46.59733" lon="5.55713">
        <ele>500.2</ele>
        <time>2021-11-20T12:42:25Z</time>
      </trkpt>
      <trkpt lat="46.59733" lon="5.55713">
        <ele>500.2</ele>
        <time>2021-11-20T12:42:26Z</time>
      </trkpt>
      <trkpt lat="46.59733" lon="5.55713">
        <ele>500.2</ele>
        <time>2021-11-20T12:42:27Z</time>
      </trkpt>
      <trkpt lat="46.59733" lon="5.55713">
        <ele>500.2</ele>
        <time>2021-11-20T12:42:28Z</time>
      </trkpt>
      <trkpt lat="46.59733" lon="5.55713">
        <ele>500.2</ele>
        <time>2021-11-20T12:42:29Z</time>
      </trkpt>
      <trkpt lat="46.59733" lon="5.55713">
        <ele>500.2</ele>
        <time>2021-11-20T12:42:30Z</time>
      </trkpt>
      <trkpt lat="46.59733" lon="5.55713">
        <ele>500.2</ele>
        <time>2021-11-20T12:42:31Z</time>
      </trkpt>
      <trkpt lat="46.59733" lon="5.55713">
        <ele>500.2</ele>
        <time>2021-11-20T12:42:32Z</time>
      </trkpt>
      <trkpt lat="46.59733" lon="5.55713">
        <ele>500.2</ele>
        <time>2021-11-20T12:42:33Z</time>
      </trkpt>
      <trkpt lat="46.59733" lon="5.55713">
        <ele>500.2</ele>
        <time>2021-11-20T12:42:34Z</time>
      </trkpt>
      <trkpt lat="46.59733" lon="5.55713">
        <ele>500.2</ele>
        <time>2021-11-20T12:42:35Z</time>
      </trkpt>
      <trkpt lat="46.59733" lon="5.55713">
        <ele>500.2</ele>
        <time>2021-11-20T12:42:36Z</time>
      </trkpt>
      <trkpt lat="46.59733" lon="5.55713">
        <ele>500.2</ele>
        <time>2021-11-20T12:42:37Z</time>
      </trkpt>
      <trkpt lat="46.59733" lon="5.55713">
        <ele>500.2</ele>
        <time>2021-11-20T12:42:38Z</time>
      </trkpt>
      <trkpt lat="46.59733" lon="5.55713">
        <ele>500.2</ele>
        <time>2021-11-20T12:42:39Z</time>
      </trkpt>
      <trkpt lat="46.59733" lon="5.55713">
        <ele>500.2</ele>
        <time>2021-11-20T12:42:40Z</time>
      </trkpt>
      <trkpt lat="46.59733" lon="5.55713">
        <ele>500.2</ele>
        <time>2021-11-20T12:42:41Z</time>
      </trkpt>
      <trkpt lat="46.59733" lon="5.55713">
        <ele>500.2</ele>
        <time>2021-11-20T12:42:42Z</time>
      </trkpt>
      <trkpt lat="46.59733" lon="5.55713">
        <ele>500.2</ele>
        <time>2021-11-20T12:42:43Z</time>
      </trkpt>
      <trkpt lat="46.59733" lon="5.55713">
        <ele>500.2</ele>
        <time>2021-11-20T12:42:44Z</time>
      </trkpt>
      <trkpt lat="46.59733" lon="5.55713">
        <ele>500.2</ele>
        <time>2021-11-20T12:42:45Z</time>
      </trkpt>
      <trkpt lat="46.59733" lon="5.55713">
        <ele>500.2</ele>
        <time>2021-11-20T12:42:46Z</time>
      </trkpt>
      <trkpt lat="46.59733" lon="5.55713">
        <ele>500.2</ele>
        <time>2021-11-20T12:42:47Z</time>
      </trkpt>
      <trkpt lat="46.59733" lon="5.55713">
        <ele>500.2</ele>
        <time>2021-11-20T12:42:48Z</time>
      </trkpt>
      <trkpt lat="46.59733" lon="5.55713">
        <ele>500.2</ele>
        <time>2021-11-20T12:42:49Z</time>
      </trkpt>
      <trkpt lat="46.59733" lon="5.55713">
        <ele>500.2</ele>
        <time>2021-11-20T12:42:50Z</time>
      </trkpt>
      <trkpt lat="46.59733" lon="5.55713">
        <ele>500.2</ele>
        <time>2021-11-20T12:42:51Z</time>
      </trkpt>
      <trkpt lat="46.59733" lon="5.55713">
        <ele>500.2</ele>
        <time>2021-11-20T12:42:52Z</time>
      </trkpt>
      <trkpt lat="46.59733" lon="5.55713">
        <ele>500.2</ele>
        <time>2021-11-20T12:42:53Z</time>
      </trkpt>
      <trkpt lat="46.59733" lon="5.55713">
        <ele>500.2</ele>
        <time>2021-11-20T12:42:54Z</time>
      </trkpt>
      <trkpt lat="46.59733" lon="5.55713">
        <ele>500.2</ele>
        <time>2021-11-20T12:42:55Z</time>
      </trkpt>
      <trkpt lat="46.59733" lon="5.55713">
        <ele>500.2</ele>
        <time>2021-11-20T12:42:56Z</time>
      </trkpt>
      <trkpt lat="46.59733" lon="5.55713">
        <ele>500.2</ele>
        <time>2021-11-20T12:42:57Z</time>
      </trkpt>
      <trkpt lat="46.59733" lon="5.55713">
        <ele>500.2</ele>
        <time>2021-11-20T12:42:58Z</time>
      </trkpt>
      <trkpt lat="46.59733" lon="5.55713">
        <ele>500.2</ele>
        <time>2021-11-20T12:42:59Z</time>
      </trkpt>
      <trkpt lat="46.59733" lon="5.55713">
        <ele>500.2</ele>
        <time>2021-11-20T12:43:00Z</time>
      </trkpt>
      <trkpt lat="46.59733" lon="5.55713">
        <ele>500.2</ele>
        <time>2021-11-20T12:43:01Z</time>
      </trkpt>
      <trkpt lat="46.59733" lon="5.55713">
        <ele>500.2</ele>
        <time>2021-11-20T12:43:02Z</time>
      </trkpt>
      <trkpt lat="46.59733" lon="5.55713">
        <ele>500.2</ele>
        <time>2021-11-20T12:43:03Z</time>
      </trkpt>
      <trkpt lat="46.59733" lon="5.55713">
        <ele>500.2</ele>
        <time>2021-11-20T12:43:04Z</time>
      </trkpt>
      <trkpt lat="46.59733" lon="5.55713">
        <ele>500.2</ele>
        <time>2021-11-20T12:43:05Z</time>
      </trkpt>
      <trkpt lat="46.59733" lon="5.55713">
        <ele>500.2</ele>
        <time>2021-11-20T12:43:06Z</time>
      </trkpt>
      <trkpt lat="46.59733" lon="5.55713">
        <ele>500.2</ele>
        <time>2021-11-20T12:43:07Z</time>
      </trkpt>
      <trkpt lat="46.59755" lon="5.55604">
        <ele>500.2</ele>
        <time>2021-11-20T12:43:08Z</time>
      </trkpt>
      <trkpt lat="46.59755" lon="5.55604">
        <ele>500.2</ele>
        <time>2021-11-20T12:43:09Z</time>
      </trkpt>
      <trkpt lat="46.59755" lon="5.55604">
        <ele>500.2</ele>
        <time>2021-11-20T12:43:10Z</time>
      </trkpt>
      <trkpt lat="46.59755" lon="5.55604">
        <ele>500.2</ele>
        <time>2021-11-20T12:43:11Z</time>
      </trkpt>
      <trkpt lat="46.59755" lon="5.55604">
        <ele>500.2</ele>
        <time>2021-11-20T12:43:12Z</time>
      </trkpt>
      <trkpt lat="46.59755" lon="5.55604">
        <ele>500.2</ele>
        <time>2021-11-20T12:43:13Z</time>
      </trkpt>
      <trkpt lat="46.59755" lon="5.55604">
        <ele>500.2</ele>
        <time>2021-11-20T12:43:14Z</time>
      </trkpt>
      <trkpt lat="46.59755" lon="5.55604">
        <ele>500.2</ele>
        <time>2021-11-20T12:43:15Z</time>
      </trkpt>
      <trkpt lat="46.59755" lon="5.55604">
        <ele>500.2</ele>
        <time>2021-11-20T12:43:16Z</time>
      </trkpt>
      <trkpt lat="46.59755" lon="5.55604">
        <ele>500.2</ele>
        <time>2021-11-20T12:43:17Z</time>
      </trkpt>
      <trkpt lat="46.59755" lon="5.55604">
        <ele>500.2</ele>
        <time>2021-11-20T12:43:18Z</time>
      </trkpt>
      <trkpt lat="46.59755" lon="5.55604">
        <ele>495.8</ele>
        <time>2021-11-20T12:43:19Z</time>
      </trkpt>
      <trkpt lat="46.59754" lon="5.55603">
        <ele>495.8</ele>
        <time>2021-11-20T12:43:20Z</time>
      </trkpt>
      <trkpt lat="46.59753" lon="5.55602">
        <ele>495.8</ele>
        <time>2021-11-20T12:43:21Z</time>
      </trkpt>
      <trkpt lat="46.59752" lon="5.55601">
        <ele>495.8</ele>
        <time>2021-11-20T12:43:22Z</time>
      </trkpt>
      <trkpt lat="46.59751" lon="5.556">
        <ele>495.8</ele>
        <time>2021-11-20T12:43:23Z</time>
      </trkpt>
      <trkpt lat="46.5975" lon="5.55598">
        <ele>495.8</ele>
        <time>2021-11-20T12:43:24Z</time>
      </trkpt>
      <trkpt lat="46.59749" lon="5.55597">
        <ele>495.8</ele>
        <time>2021-11-20T12:43:25Z</time>
      </trkpt>
      <trkpt lat="46.59748" lon="5.55596">
        <ele>495.8</ele>
        <time>2021-11-20T12:43:26Z</time>
      </trkpt>
      <trkpt lat="46.59747" lon="5.55595">
        <ele>495.8</ele>
        <time>2021-11-20T12:43:27Z</time>
      </trkpt>
      <trkpt lat="46.59746" lon="5.55594">
        <ele>495.8</ele>
        <time>2021-11-20T12:43:28Z</time>
      </trkpt>
      <trkpt lat="46.59745" lon="5.55593">
        <ele>495.8</ele>
        <time>2021-11-20T12:43:29Z</time>
      </trkpt>
      <trkpt lat="46.59744" lon="5.55592">
        <ele>495.8</ele>
        <time>2021-11-20T12:43:30Z</time>
      </trkpt>
      <trkpt lat="46.59743" lon="5.55591">
        <ele>495.8</ele>
        <time>2021-11-20T12:43:31Z</time>
      </trkpt>
      <trkpt lat="46.59742" lon="5.5559">
        <ele>495.8</ele>
        <time>2021-11-20T12:43:32Z</time>
      </trkpt>
      <trkpt lat="46.59741" lon="5.55589">
        <ele>495.8</ele>
        <time>2021-11-20T12:43:33Z</time>
      </trkpt>
      <trkpt lat="46.5974" lon="5.55587">
        <ele>495.8</ele>
        <time>2021-11-20T12:43:34Z</time>
      </trkpt>
      <trkpt lat="46.59739" lon="5.55586">
        <ele>495.8</ele>
        <time>2021-11-20T12:43:35Z</time>
      </trkpt>
      <trkpt lat="46.59738" lon="5.55585">
        <ele>495.8</ele>
        <time>2021-11-20T12:43:36Z</time>
      </trkpt>
      <trkpt lat="46.59737" lon="5.55584">
        <ele>495.8</ele>
        <time>2021-11-20T12:43:37Z</time>
      </trkpt>
      <trkpt lat="46.59736" lon="5.55583">
        <ele>495.8</ele>
        <time>2021-11-20T12:43:38Z</time>
      </trkpt>
      <trkpt lat="46.59735" lon="5.55582">
        <ele>495.8</ele>
        <time>2021-11-20T12:43:39Z</time>
      </trkpt>
      <trkpt lat="46.59734" lon="5.55581">
        <ele>495.8</ele>
        <time>2021-11-20T12:43:40Z</time>
      </trkpt>
      <trkpt lat="46.59733" lon="5.5558">
        <ele>495.8</ele>
        <time>2021-11-20T12:43:41Z</time>
      </trkpt>
      <trkpt lat="46.59732" lon="5.55579">
        <ele>495.8</ele>
        <time>2021-11-20T12:43:42Z</time>
      </trkpt>
      <trkpt lat="46.59731" lon="5.55578">
        <ele>495.8</ele>
        <time>2021-11-20T12:43:43Z</time>
      </trkpt>
      <trkpt lat="46.5973" lon="5.55577">
        <ele>495.8</ele>
        <time>2021-11-20T12:43:44Z</time>
      </trkpt>
      <trkpt lat="46.59729" lon="5.55575">
        <ele>495.8</ele>
        <time>2021-11-20T12:43:45Z</time>
      </trkpt>
      <trkpt lat="46.59728" lon="5.55574">
        <ele>495.8</ele>
        <time>2021-11-20T12:43:46Z</time>
      </trkpt>
      <trkpt lat="46.59727" lon="5.55573">
        <ele>495.8</ele>
        <time>2021-11-20T12:43:47Z</time>
      </trkpt>
      <trkpt lat="46.59726" lon="5.55572">
        <ele>495.8</ele>
        <time>2021-11-20T12:43:48Z</time>
      </trkpt>
      <trkpt lat="46.59725" lon="5.55571">
        <ele>495.8</ele>
        <time>2021-11-20T12:43:49Z</time>
      </trkpt>
      <trkpt lat="46.59724" lon="5.5557">
        <ele>495.8</ele>
        <time>2021-11-20T12:43:50Z</time>
      </trkpt>
      <trkpt lat="46.59723" lon="5.55569">
        <ele>495.8</ele>
        <time>2021-11-20T12:43:51Z</time>
      </trkpt>
      <trkpt lat="46.59722" lon="5.55568">
        <ele>495.8</ele>
        <time>2021-11-20T12:43:52Z</time>
      </trkpt>
      <trkpt lat="46.59721" lon="5.55567">
        <ele>495.8</ele>
        <time>2021-11-20T12:43:53Z</time>
      </trkpt>
      <trkpt lat="46.5972" lon="5.55566">
        <ele>495.8</ele>
        <time>2021-11-20T12:43:54Z</time>
      </trkpt>
      <trkpt lat="46.59719" lon="5.55565">
        <ele>495.8</ele>
        <time>2021-11-20T12:43:55Z</time>
      </trkpt>
      <trkpt lat="46.59718" lon="5.55563">
        <ele>495.8</ele>
        <time>2021-11-20T12:43:56Z</time>
      </trkpt>
      <trkpt lat="46.59717" lon="5.55562">
        <ele>495.8</ele>
        <time>2021-11-20T12:43:57Z</time>
      </trkpt>
      <trkpt lat="46.59716" lon="5.55561">
        <ele>495.8</ele>
        <time>2021-11-20T12:43:58Z</time>
      </trkpt>
      <trkpt lat="46.59715" lon="5.5556">
        <ele>495.8</ele>
        <time>2021-11-20T12:43:59Z</time>
      </trkpt>
      <trkpt lat="46.59714" lon="5.55559">
        <ele>495.8</ele>
        <time>2021-11-20T12:44:00Z</time>
      </trkpt>
      <trkpt lat="46.59713" lon="5.55558">
        <ele>495.8</ele>
        <time>2021-11-20T12:44:01Z</time>
      </trkpt>
      <trkpt lat="46.59712" lon="5.55557">
        <ele>495.8</ele>
        <time>2021-11-20T12:44:02Z</time>
      </trkpt>
      <trkpt lat="46.59711" lon="5.55556">
        <ele>495.8</ele>
        <time>2021-11-20T12:44:03Z</time>
      </trkpt>
      <trkpt lat="46.5971" lon="5.55555">
        <ele>495.8</ele>
        <time>2021-11-20T12:44:07Z</time>
      </trkpt>
      <trkpt lat="46.59709" lon="5.55554">
        <ele>495.8</ele>
        <time>2021-11-20T12:44:08Z</time>
      </trkpt>
      <trkpt lat="46.59708" lon="5.55553">
        <ele>495.8</ele>
        <time>2021-11-20T12:44:09Z</time>
      </trkpt>
      <trkpt lat="46.59707" lon="5.55551">
        <ele>495.8</ele>
        <time>2021-11-20T12:44:10Z</time>
      </trkpt>
      <trkpt lat="46.59706" lon="5.5555">
        <ele>495.8</ele>
        <time>2021-11-20T12:44:11Z</time>
      </trkpt>
      <trkpt lat="46.59705" lon="5.55549">
        <ele>495.8</ele>
        <time>2021-11-20T12:44:12Z</time>
      </trkpt>
      <trkpt lat="46.59704" lon="5.55548">
        <ele>495.8</ele>
        <time>2021-11-20T12:44:13Z</time>
      </trkpt>
      <trkpt lat="46.59703" lon="5.55547">
        <ele>495.8</ele>
        <time>2021-11-20T12:44:14Z</time>
      </trkpt>
      <trkpt lat="46.59702" lon="5.55546">
        <ele>495.8</ele>
        <time>2021-11-20T12:44:15Z</time>
      </trkpt>
      <trkpt lat="46.59701" lon="5.55545">
        <ele>495.8</ele>
        <time>2021-11-20T12:44:16Z</time>
      </trkpt>
      <trkpt lat="46.597" lon="5.55544">
        <ele>495.8</ele>
        <time>2021-11-20T12:44:17Z</time>
      </trkpt>
      <trkpt lat="46.59699" lon="5.55543">
        <ele>495.8</ele>
        <time>2021-11-20T12:44:18Z</time>
      </trkpt>
      <trkpt lat="46.59698" lon="5.55542">
        <ele>487.2</ele>
        <time>2021-11-20T12:44:19Z</time>
      </trkpt>
      <trkpt lat="46.59698" lon="5.55542">
        <ele>487.2</ele>
        <time>2021-11-20T12:44:20Z</time>
      </trkpt>
      <trkpt lat="46.59698" lon="5.55542">
        <ele>487.2</ele>
        <time>2021-11-20T12:44:21Z</time>
      </trkpt>
      <trkpt lat="46.59698" lon="5.55542">
        <ele>487.2</ele>
        <time>2021-11-20T12:44:22Z</time>
      </trkpt>
      <trkpt lat="46.59698" lon="5.55542">
        <ele>487.2</ele>
        <time>2021-11-20T12:44:23Z</time>
      </trkpt>
      <trkpt lat="46.59698" lon="5.55542">
        <ele>487.2</ele>
        <time>2021-11-20T12:44:24Z</time>
      </trkpt>
      <trkpt lat="46.59698" lon="5.55542">
        <ele>487.2</ele>
        <time>2021-11-20T12:44:25Z</time>
      </trkpt>
      <trkpt lat="46.59698" lon="5.55542">
        <ele>487.2</ele>
        <time>2021-11-20T12:44:26Z</time>
      </trkpt>
      <trkpt lat="46.59698" lon="5.55542">
        <ele>487.2</ele>
        <time>2021-11-20T12:44:27Z</time>
      </trkpt>
      <trkpt lat="46.59698" lon="5.55542">
        <ele>487.2</ele>
        <time>2021-11-20T12:44:28Z</time>
      </trkpt>
      <trkpt lat="46.59698" lon="5.55542">
        <ele>487.2</ele>
        <time>2021-11-20T12:44:29Z</time>
      </trkpt>
      <trkpt lat="46.59698" lon="5.55542">
        <ele>487.2</ele>
        <time>2021-11-20T12:44:30Z</time>
      </trkpt>
      <trkpt lat="46.59698" lon="5.55542">
        <ele>487.2</ele>
        <time>2021-11-20T12:44:31Z</time>
      </trkpt>
      <trkpt lat="46.59698" lon="5.55542">
        <ele>487.2</ele>
        <time>2021-11-20T12:44:32Z</time>
      </trkpt>
      <trkpt lat="46.59698" lon="5.55542">
        <ele>487.2</ele>
        <time>2021-11-20T12:44:33Z</time>
      </trkpt>
      <trkpt lat="46.59698" lon="5.55542">
        <ele>487.2</ele>
        <time>2021-11-20T12:44:34Z</time>
      </trkpt>
      <trkpt lat="46.59698" lon="5.55542">
        <ele>487.2</ele>
        <time>2021-11-20T12:44:35Z</time>
      </trkpt>
      <trkpt lat="46.59698" lon="5.55542">
        <ele>487.2</ele>
        <time>2021-11-20T12:44:36Z</time>
      </trkpt>
      <trkpt lat="46.59698" lon="5.55542">
        <ele>487.2</ele>
        <time>2021-11-20T12:44:37Z</time>
      </trkpt>
      <trkpt lat="46.59698" lon="5.55542">
        <ele>487.2</ele>
        <time>2021-11-20T12:44:38Z</time>
      </trkpt>
      <trkpt lat="46.59698" lon="5.55542">
        <ele>487.2</ele>
        <time>2021-11-20T12:44:39Z</time>
      </trkpt>
      <trkpt lat="46.59698" lon="5.55542">
        <ele>487.2</ele>
        <time>2021-11-20T12:44:40Z</time>
      </trkpt>
      <trkpt lat="46.59698" lon="5.55542">
        <ele>487.2</ele>
        <time>2021-11-20T12:44:41Z</time>
      </trkpt>
      <trkpt lat="46.59698" lon="5.55542">
        <ele>487.2</ele>
        <time>2021-11-20T12:44:42Z</time>
      </trkpt>
      <trkpt lat="46.59698" lon="5.55542">
        <ele>487.2</ele>
        <time>2021-11-20T12:44:43Z</time>
      </trkpt>
      <trkpt lat="46.59698" lon="5.55542">
        <ele>487.2</ele>
        <time>2021-11-20T12:44:44Z</time>
      </trkpt>
      <trkpt lat="46.59698" lon="5.55542">
        <ele>487.2</ele>
        <time>2021-11-20T12:44:45Z</time>
      </trkpt>
      <trkpt lat="46.59698" lon="5.55542">
        <ele>487.2</ele>
        <time>2021-11-20T12:44:46Z</time>
      </trkpt>
      <trkpt lat="46.59698" lon="5.55542">
        <ele>487.2</ele>
        <time>2021-11-20T12:44:47Z</time>
      </trkpt>
      <trkpt lat="46.59698" lon="5.55542">
        <ele>487.2</ele>
        <time>2021-11-20T12:44:48Z</time>
      </trkpt>
      <trkpt lat="46.59698" lon="5.55542">
        <ele>487.2</ele>
        <time>2021-11-20T12:44:49Z</time>
      </trkpt>
      <trkpt lat="46.59698" lon="5.55542">
        <ele>487.2</ele>
        <time>2021-11-20T12:44:50Z</time>
      </trkpt>
      <trkpt lat="46.59698" lon="5.55542">
        <ele>487.2</ele>
        <time>2021-11-20T12:44:51Z</time>
      </trkpt>
      <trkpt lat="46.59698" lon="5.55542">
        <ele>487.2</ele>
        <time>2021-11-20T12:44:52Z</time>
      </trkpt>
      <trkpt lat="46.59698" lon="5.55542">
        <ele>487.2</ele>
        <time>2021-11-20T12:44:53Z</time>
      </trkpt>
      <trkpt lat="46.59698" lon="5.55542">
        <ele>487.2</ele>
        <time>2021-11-20T12:44:54Z</time>
      </trkpt>
      <trkpt lat="46.59698" lon="5.55542">
        <ele>487.2</ele>
        <time>2021-11-20T12:44:55Z</time>
      </trkpt>
      <trkpt lat="46.59698" lon="5.55542">
        <ele>487.2</ele>
        <time>2021-11-20T12:44:56Z</time>
      </trkpt>
      <trkpt lat="46.59698" lon="5.55542">
        <ele>487.2</ele>
        <time>2021-11-20T12:44:57Z</time>
      </trkpt>
      <trkpt lat="46.59698" lon="5.55542">
        <ele>487.2</ele>
        <time>2021-11-20T12:44:58Z</time>
      </trkpt>
      <trkpt lat="46.59698" lon="5.55542">
        <ele>487.2</ele>
        <time>2021-11-20T12:44:59Z</time>
      </trkpt>
      <trkpt lat="46.59698" lon="5.55542">
        <ele>487.2</ele>
        <time>2021-11-20T12:45:00Z</time>
      </trkpt>
      <trkpt lat="46.59698" lon="5.55542">
        <ele>487.2</ele>
        <time>2021-11-20T12:45:01Z</time>
      </trkpt>
      <trkpt lat="46.59698" lon="5.55542">
        <ele>487.2</ele>
        <time>2021-11-20T12:45:02Z</time>
      </trkpt>
      <trkpt lat="46.59698" lon="5.55542">
        <ele>487.2</ele>
        <time>2021-11-20T12:45:03Z</time>
      </trkpt>
      <trkpt lat="46.59698" lon="5.55542">
        <ele>487.2</ele>
        <time>2021-11-20T12:45:04Z</time>
      </trkpt>
      <trkpt lat="46.59698" lon="5.55542">
        <ele>487.2</ele>
        <time>2021-11-20T12:45:05Z</time>
      </trkpt>
      <trkpt lat="46.59698" lon="5.55542">
        <ele>487.2</ele>
        <time>2021-11-20T12:45:06Z</time>
      </trkpt>
      <trkpt lat="46.59698" lon="5.55542">
        <ele>487.2</ele>
        <time>2021-11-20T12:45:07Z</time>
      </trkpt>
      <trkpt lat="46.59724" lon="5.55407">
        <ele>487.2</ele>
        <time>2021-11-20T12:45:08Z</time>
      </trkpt>
      <trkpt lat="46.59724" lon="5.55407">
        <ele>487.2</ele>
        <time>2021-11-20T12:45:09Z</time>
      </trkpt>
      <trkpt lat="46.59724" lon="5.55407">
        <ele>487.2</ele>
        <time>2021-11-20T12:45:10Z</time>
      </trkpt>
      <trkpt lat="46.59724" lon="5.55407">
        <ele>487.2</ele>
        <time>2021-11-20T12:45:11Z</time>
      </trkpt>
      <trkpt lat="46.59724" lon="5.55407">
        <ele>487.2</ele>
        <time>2021-11-20T12:45:12Z</time>
      </trkpt>
      <trkpt lat="46.59724" lon="5.55407">
        <ele>487.2</ele>
        <time>2021-11-20T12:45:13Z</time>
      </trkpt>
      <trkpt lat="46.59724" lon="5.55407">
        <ele>487.2</ele>
        <time>2021-11-20T12:45:14Z</time>
      </trkpt>
      <trkpt lat="46.59724" lon="5.55407">
        <ele>487.2</ele>
        <time>2021-11-20T12:45:15Z</time>
      </trkpt>
      <trkpt lat="46.59724" lon="5.55407">
        <ele>487.2</ele>
        <time>2021-11-20T12:45:16Z</time>
      </trkpt>
      <trkpt lat="46.59724" lon="5.55407">
        <ele>487.2</ele>
        <time>2021-11-20T12:45:17Z</time>
      </trkpt>
      <trkpt lat="46.59724" lon="5.55407">
        <ele>487.2</ele>
        <time>2021-11-20T12:45:18Z</time>
      </trkpt>
      <trkpt lat="46.59724" lon="5.55407">
        <ele>485.4</ele>
        <time>2021-11-20T12:45:19Z</time>
      </trkpt>
      <trkpt lat="46.59724" lon="5.55407">
        <ele>485.4</ele>
        <time>2021-11-20T12:45:20Z</time>
      </trkpt>
      <trkpt lat="46.59724" lon="5.55407">
        <ele>485.4</ele>
        <time>2021-11-20T12:45:21Z</time>
      </trkpt>
      <trkpt lat="46.59724" lon="5.55407">
        <ele>485.4</ele>
        <time>2021-11-20T12:45:22Z</time>
      </trkpt>
      <trkpt lat="46.59724" lon="5.55407">
        <ele>485.4</ele>
        <time>2021-11-20T12:45:23Z</time>
      </trkpt>
      <trkpt lat="46.59724" lon="5.55407">
        <ele>485.4</ele>
        <time>2021-11-20T12:45:24Z</time>
      </trkpt>
      <trkpt lat="46.59724" lon="5.55407">
        <ele>485.4</ele>
        <time>2021-11-20T12:45:25Z</time>
      </trkpt>
      <trkpt lat="46.59724" lon="5.55407">
        <ele>485.4</ele>
        <time>2021-11-20T12:45:26Z</time>
      </trkpt>
      <trkpt lat="46.59724" lon="5.55407">
        <ele>485.4</ele>
        <time>2021-11-20T12:45:27Z</time>
      </trkpt>
      <trkpt lat="46.59724" lon="5.55407">
        <ele>485.4</ele>
        <time>2021-11-20T12:45:28Z</time>
      </trkpt>
      <trkpt lat="46.59724" lon="5.55407">
        <ele>485.4</ele>
        <time>2021-11-20T12:45:29Z</time>
      </trkpt>
      <trkpt lat="46.59724" lon="5.55407">
        <ele>485.4</ele>
        <time>2021-11-20T12:45:30Z</time>
      </trkpt>
      <trkpt lat="46.59724" lon="5.55407">
        <ele>485.4</ele>
        <time>2021-11-20T12:45:31Z</time>
      </trkpt>
      <trkpt lat="46.59724" lon="5.55407">
        <ele>485.4</ele>
        <time>2021-11-20T12:45:32Z</time>
      </trkpt>
      <trkpt lat="46.59724" lon="5.55407">
        <ele>485.4</ele>
        <time>2021-11-20T12:45:33Z</time>
      </trkpt>
      <trkpt lat="46.59724" lon="5.55407">
        <ele>485.4</ele>
        <time>2021-11-20T12:45:34Z</time>
      </trkpt>
      <trkpt lat="46.59724" lon="5.55407">
        <ele>485.4</ele>
        <time>2021-11-20T12:45:35Z</time>
      </trkpt>
      <trkpt lat="46.59724" lon="5.55407">
        <ele>485.4</ele>
        <time>2021-11-20T12:45:36Z</time>
      </trkpt>
      <trkpt lat="46.59724" lon="5.55407">
        <ele>485.4</ele>
        <time>2021-11-20T12:45:37Z</time>
      </trkpt>
      <trkpt lat="46.59724" lon="5.55407">
        <ele>485.4</ele>
        <time>2021-11-20T12:45:38Z</time>
      </trkpt>
      <trkpt lat="46.59724" lon="5.55407">
        <ele>485.4</ele>
        <time>2021-11-20T12:45:39Z</time>
      </trkpt>
      <trkpt lat="46.59724" lon="5.55407">
        <ele>485.4</ele>
        <time>2021-11-20T12:45:40Z</time>
      </trkpt>
      <trkpt lat="46.59724" lon="5.55407">
        <ele>485.4</ele>
        <time>2021-11-20T12:45:41Z</time>
      </trkpt>
      <trkpt lat="46.59724" lon="5.55407">
        <ele>485.4</ele>
        <time>2021-11-20T12:45:42Z</time>
      </trkpt>
      <trkpt lat="46.59724" lon="5.55407">
        <ele>485.4</ele>
        <time>2021-11-20T12:45:43Z</time>
      </trkpt>
      <trkpt lat="46.59724" lon="5.55407">
        <ele>485.4</ele>
        <time>2021-11-20T12:45:44Z</time>
      </trkpt>
      <trkpt lat="46.59724" lon="5.55407">
        <ele>485.4</ele>
        <time>2021-11-20T12:45:45Z</time>
      </trkpt>
      <trkpt lat="46.59724" lon="5.55407">
        <ele>485.4</ele>
        <time>2021-11-20T12:45:46Z</time>
      </trkpt>
      <trkpt lat="46.59724" lon="5.55407">
        <ele>485.4</ele>
        <time>2021-11-20T12:45:47Z</time>
      </trkpt>
      <trkpt lat="46.59724" lon="5.55407">
        <ele>485.4</ele>
        <time>2021-11-20T12:45:48Z</time>
      </trkpt>
      <trkpt lat="46.59724" lon="5.55407">
        <ele>485.4</ele>
        <time>2021-11-20T12:45:49Z</time>
      </trkpt>
      <trkpt lat="46.59724" lon="5.55407">
        <ele>485.4</ele>
        <time>2021-11-20T12:45:50Z</time>
      </trkpt>
      <trkpt lat="46.59724" lon="5.55407">
        <ele>485.4</ele>
        <time>2021-11-20T12:45:51Z</time>
      </trkpt>
      <trkpt lat="46.59724" lon="5.55407">
        <ele>485.4</ele>
        <time>2021-11-20T12:45:52Z</time>
      </trkpt>
      <trkpt lat="46.59724" lon="5.55407">
        <ele>485.4</ele>
        <time>2021-11-20T12:45:53Z</time>
      </trkpt>
      <trkpt lat="46.59724" lon="5.55407">
        <ele>485.4</ele>
        <time>2021-11-20T12:45:54Z</time>
      </trkpt>
      <trkpt lat="46.59724" lon="5.55407">
        <ele>485.4</ele>
        <time>2021-11-20T12:45:55Z</time>
      </trkpt>
      <trkpt lat="46.59724" lon="5.55407">
        <ele>485.4</ele>
        <time>2021-11-20T12:45:56Z</time>
      </trkpt>
      <trkpt lat="46.59724" lon="5.55407">
        <ele>485.4</ele>
        <time>2021-11-20T12:45:57Z</time>
      </trkpt>
      <trkpt lat="46.59724" lon="5.55407">
        <ele>485.4</ele>
        <time>2021-11-20T12:45:58Z</time>
      </trkpt>
      <trkpt lat="46.59724" lon="5.55407">
        <ele>485.4</ele>
        <time>2021-11-20T12:45:59Z</time>
      </trkpt>
      <trkpt lat="46.59724" lon="5.55407">
        <ele>485.4</ele>
        <time>2021-11-20T12:46:00Z</time>
      </trkpt>
      <trkpt lat="46.59724" lon="5.55407">
        <ele>485.4</ele>
        <time>2021-11-20T12:46:01Z</time>
      </trkpt>
      <trkpt lat="46.59724" lon="5.55407">
        <ele>485.4</ele>
        <time>2021-11-20T12:46:02Z</time>
      </trkpt>
      <trkpt lat="46.59724" lon="5.55407">
        <ele>485.4</ele>
        <time>2021-11-20T12:46:03Z</time>
      </trkpt>
      <trkpt lat="46.59724" lon="5.55407">
        <ele>485.4</ele>
        <time>2021-11-20T12:46:04Z</time>
      </trkpt>
      <trkpt lat="46.59724" lon="5.55407">
        <ele>485.4</ele>
        <time>2021-11-20T12:46:05Z</time>
      </trkpt>
      <trkpt lat="46.59724" lon="5.55407">
        <ele>485.4</ele>
        <time>2021-11-20T12:46:06Z</time>
      </trkpt>
      <trkpt lat="46.59724" lon="5.55407">
        <ele>485.4</ele>
        <time>2021-11-20T12:46:07Z</time>
      </trkpt>
      <trkpt lat="46.59776" lon="5.55225">
        <ele>485.4</ele>
        <time>2021-11-20T12:46:08Z</time>
      </trkpt>
      <trkpt lat="46.59776" lon="5.55225">
        <ele>485.4</ele>
        <time>2021-11-20T12:46:09Z</time>
      </trkpt>
      <trkpt lat="46.59776" lon="5.55225">
        <ele>485.4</ele>
        <time>2021-11-20T12:46:10Z</time>
      </trkpt>
      <trkpt lat="46.59776" lon="5.55225">
        <ele>485.4</ele>
        <time>2021-11-20T12:46:11Z</time>
      </trkpt>
      <trkpt lat="46.59776" lon="5.55225">
        <ele>485.4</ele>
        <time>2021-11-20T12:46:12Z</time>
      </trkpt>
      <trkpt lat="46.59776" lon="5.55225">
        <ele>485.4</ele>
        <time>2021-11-20T12:46:13Z</time>
      </trkpt>
      <trkpt lat="46.59776" lon="5.55225">
        <ele>485.4</ele>
        <time>2021-11-20T12:46:14Z</time>
      </trkpt>
      <trkpt lat="46.59776" lon="5.55225">
        <ele>485.4</ele>
        <time>2021-11-20T12:46:15Z</time>
      </trkpt>
      <trkpt lat="46.59776" lon="5.55225">
        <ele>485.4</ele>
        <time>2021-11-20T12:46:16Z</time>
      </trkpt>
      <trkpt lat="46.59776" lon="5.55225">
        <ele>485.4</ele>
        <time>2021-11-20T12:46:17Z</time>
      </trkpt>
      <trkpt lat="46.59776" lon="5.55225">
        <ele>485.4</ele>
        <time>2021-11-20T12:46:18Z</time>
      </trkpt>
      <trkpt lat="46.59776" lon="5.55225">
        <ele>480.2</ele>
        <time>2021-11-20T12:46:19Z</time>
      </trkpt>
      <trkpt lat="46.59776" lon="5.55225">
        <ele>480.2</ele>
        <time>2021-11-20T12:46:20Z</time>
      </trkpt>
      <trkpt lat="46.59776" lon="5.55225">
        <ele>480.2</ele>
        <time>2021-11-20T12:46:21Z</time>
      </trkpt>
      <trkpt lat="46.59776" lon="5.55225">
        <ele>480.2</ele>
        <time>2021-11-20T12:46:22Z</time>
      </trkpt>
      <trkpt lat="46.59776" lon="5.55225">
        <ele>480.2</ele>
        <time>2021-11-20T12:46:23Z</time>
      </trkpt>
      <trkpt lat="46.59776" lon="5.55225">
        <ele>480.2</ele>
        <time>2021-11-20T12:46:24Z</time>
      </trkpt>
      <trkpt lat="46.59776" lon="5.55225">
        <ele>480.2</ele>
        <time>2021-11-20T12:46:25Z</time>
      </trkpt>
      <trkpt lat="46.59776" lon="5.55225">
        <ele>480.2</ele>
        <time>2021-11-20T12:46:26Z</time>
      </trkpt>
      <trkpt lat="46.59776" lon="5.55225">
        <ele>480.2</ele>
        <time>2021-11-20T12:46:27Z</time>
      </trkpt>
      <trkpt lat="46.59776" lon="5.55225">
        <ele>480.2</ele>
        <time>2021-11-20T12:46:28Z</time>
      </trkpt>
      <trkpt lat="46.59776" lon="5.55225">
        <ele>480.2</ele>
        <time>2021-11-20T12:46:29Z</time>
      </trkpt>
      <trkpt lat="46.59776" lon="5.55225">
        <ele>480.2</ele>
        <time>2021-11-20T12:46:30Z</time>
      </trkpt>
      <trkpt lat="46.59776" lon="5.55225">
        <ele>480.2</ele>
        <time>2021-11-20T12:46:31Z</time>
      </trkpt>
      <trkpt lat="46.59776" lon="5.55225">
        <ele>480.2</ele>
        <time>2021-11-20T12:46:32Z</time>
      </trkpt>
      <trkpt lat="46.59776" lon="5.55225">
        <ele>480.2</ele>
        <time>2021-11-20T12:46:33Z</time>
      </trkpt>
      <trkpt lat="46.59776" lon="5.55225">
        <ele>480.2</ele>
        <time>2021-11-20T12:46:34Z</time>
      </trkpt>
      <trkpt lat="46.59776" lon="5.55225">
        <ele>480.2</ele>
        <time>2021-11-20T12:46:35Z</time>
      </trkpt>
      <trkpt lat="46.59776" lon="5.55225">
        <ele>480.2</ele>
        <time>2021-11-20T12:46:36Z</time>
      </trkpt>
      <trkpt lat="46.59776" lon="5.55225">
        <ele>480.2</ele>
        <time>2021-11-20T12:46:37Z</time>
      </trkpt>
      <trkpt lat="46.59776" lon="5.55225">
        <ele>480.2</ele>
        <time>2021-11-20T12:46:38Z</time>
      </trkpt>
      <trkpt lat="46.59776" lon="5.55225">
        <ele>480.2</ele>
        <time>2021-11-20T12:46:39Z</time>
      </trkpt>
      <trkpt lat="46.59776" lon="5.55225">
        <ele>480.2</ele>
        <time>2021-11-20T12:46:40Z</time>
      </trkpt>
      <trkpt lat="46.59776" lon="5.55225">
        <ele>480.2</ele>
        <time>2021-11-20T12:46:41Z</time>
      </trkpt>
      <trkpt lat="46.59776" lon="5.55225">
        <ele>480.2</ele>
        <time>2021-11-20T12:46:42Z</time>
      </trkpt>
      <trkpt lat="46.59776" lon="5.55225">
        <ele>480.2</ele>
        <time>2021-11-20T12:46:43Z</time>
      </trkpt>
      <trkpt lat="46.59776" lon="5.55225">
        <ele>480.2</ele>
        <time>2021-11-20T12:46:44Z</time>
      </trkpt>
      <trkpt lat="46.59776" lon="5.55225">
        <ele>480.2</ele>
        <time>2021-11-20T12:46:45Z</time>
      </trkpt>
      <trkpt lat="46.59776" lon="5.55225">
        <ele>480.2</ele>
        <time>2021-11-20T12:46:46Z</time>
      </trkpt>
      <trkpt lat="46.59776" lon="5.55225">
        <ele>480.2</ele>
        <time>2021-11-20T12:46:47Z</time>
      </trkpt>
      <trkpt lat="46.59776" lon="5.55225">
        <ele>480.2</ele>
        <time>2021-11-20T12:46:48Z</time>
      </trkpt>
      <trkpt lat="46.59776" lon="5.55225">
        <ele>480.2</ele>
        <time>2021-11-20T12:46:49Z</time>
      </trkpt>
      <trkpt lat="46.59776" lon="5.55225">
        <ele>480.2</ele>
        <time>2021-11-20T12:46:50Z</time>
      </trkpt>
      <trkpt lat="46.59776" lon="5.55225">
        <ele>480.2</ele>
        <time>2021-11-20T12:46:51Z</time>
      </trkpt>
      <trkpt lat="46.59776" lon="5.55225">
        <ele>480.2</ele>
        <time>2021-11-20T12:46:52Z</time>
      </trkpt>
      <trkpt lat="46.59776" lon="5.55225">
        <ele>480.2</ele>
        <time>2021-11-20T12:46:53Z</time>
      </trkpt>
      <trkpt lat="46.59776" lon="5.55225">
        <ele>480.2</ele>
        <time>2021-11-20T12:46:54Z</time>
      </trkpt>
      <trkpt lat="46.59776" lon="5.55225">
        <ele>480.2</ele>
        <time>2021-11-20T12:46:55Z</time>
      </trkpt>
      <trkpt lat="46.59776" lon="5.55225">
        <ele>480.2</ele>
        <time>2021-11-20T12:46:56Z</time>
      </trkpt>
      <trkpt lat="46.59776" lon="5.55225">
        <ele>480.2</ele>
        <time>2021-11-20T12:46:57Z</time>
      </trkpt>
      <trkpt lat="46.59776" lon="5.55225">
        <ele>480.2</ele>
        <time>2021-11-20T12:46:58Z</time>
      </trkpt>
      <trkpt lat="46.59776" lon="5.55225">
        <ele>480.2</ele>
        <time>2021-11-20T12:46:59Z</time>
      </trkpt>
      <trkpt lat="46.59776" lon="5.55225">
        <ele>480.2</ele>
        <time>2021-11-20T12:47:00Z</time>
      </trkpt>
      <trkpt lat="46.59776" lon="5.55225">
        <ele>480.2</ele>
        <time>2021-11-20T12:47:01Z</time>
      </trkpt>
      <trkpt lat="46.59776" lon="5.55225">
        <ele>480.2</ele>
        <time>2021-11-20T12:47:02Z</time>
      </trkpt>
      <trkpt lat="46.59776" lon="5.55225">
        <ele>480.2</ele>
        <time>2021-11-20T12:47:03Z</time>
      </trkpt>
      <trkpt lat="46.59776" lon="5.55225">
        <ele>480.2</ele>
        <time>2021-11-20T12:47:04Z</time>
      </trkpt>
      <trkpt lat="46.59776" lon="5.55225">
        <ele>480.2</ele>
        <time>2021-11-20T12:47:05Z</time>
      </trkpt>
      <trkpt lat="46.59776" lon="5.55225">
        <ele>480.2</ele>
        <time>2021-11-20T12:47:06Z</time>
      </trkpt>
      <trkpt lat="46.59776" lon="5.55225">
        <ele>480.2</ele>
        <time>2021-11-20T12:47:07Z</time>
      </trkpt>
      <trkpt lat="46.59776" lon="5.55225">
        <ele>480.2</ele>
        <time>2021-11-20T12:47:09Z</time>
      </trkpt>
      <trkpt lat="46.59776" lon="5.55225">
        <ele>480.2</ele>
        <time>2021-11-20T12:47:10Z</time>
      </trkpt>
      <trkpt lat="46.59776" lon="5.55225">
        <ele>480.2</ele>
        <time>2021-11-20T12:47:11Z</time>
      </trkpt>
      <trkpt lat="46.59776" lon="5.55225">
        <ele>480.2</ele>
        <time>2021-11-20T12:47:12Z</time>
      </trkpt>
      <trkpt lat="46.59776" lon="5.55225">
        <ele>480.2</ele>
        <time>2021-11-20T12:47:13Z</time>
      </trkpt>
      <trkpt lat="46.59776" lon="5.55225">
        <ele>480.2</ele>
        <time>2021-11-20T12:47:14Z</time>
      </trkpt>
      <trkpt lat="46.59776" lon="5.55225">
        <ele>480.2</ele>
        <time>2021-11-20T12:47:15Z</time>
      </trkpt>
      <trkpt lat="46.59776" lon="5.55225">
        <ele>480.2</ele>
        <time>2021-11-20T12:47:16Z</time>
      </trkpt>
      <trkpt lat="46.59776" lon="5.55225">
        <ele>480.2</ele>
        <time>2021-11-20T12:47:17Z</time>
      </trkpt>
      <trkpt lat="46.59776" lon="5.55225">
        <ele>480.2</ele>
        <time>2021-11-20T12:47:18Z</time>
      </trkpt>
      <trkpt lat="46.59776" lon="5.55225">
        <ele>475.6</ele>
        <time>2021-11-20T12:47:19Z</time>
      </trkpt>
      <trkpt lat="46.59776" lon="5.55225">
        <ele>475.6</ele>
        <time>2021-11-20T12:47:20Z</time>
      </trkpt>
      <trkpt lat="46.59776" lon="5.55225">
        <ele>475.6</ele>
        <time>2021-11-20T12:47:21Z</time>
      </trkpt>
      <trkpt lat="46.59776" lon="5.55225">
        <ele>475.6</ele>
        <time>2021-11-20T12:47:22Z</time>
      </trkpt>
      <trkpt lat="46.59776" lon="5.55225">
        <ele>475.6</ele>
        <time>2021-11-20T12:47:23Z</time>
      </trkpt>
      <trkpt lat="46.59776" lon="5.55225">
        <ele>475.6</ele>
        <time>2021-11-20T12:47:24Z</time>
      </trkpt>
      <trkpt lat="46.59776" lon="5.55225">
        <ele>475.6</ele>
        <time>2021-11-20T12:47:25Z</time>
      </trkpt>
      <trkpt lat="46.59776" lon="5.55225">
        <ele>475.6</ele>
        <time>2021-11-20T12:47:26Z</time>
      </trkpt>
      <trkpt lat="46.59776" lon="5.55225">
        <ele>475.6</ele>
        <time>2021-11-20T12:47:29Z</time>
      </trkpt>
      <trkpt lat="46.59776" lon="5.55225">
        <ele>475.6</ele>
        <time>2021-11-20T12:47:30Z</time>
      </trkpt>
      <trkpt lat="46.59776" lon="5.55225">
        <ele>475.6</ele>
        <time>2021-11-20T12:47:31Z</time>
      </trkpt>
      <trkpt lat="46.59776" lon="5.55225">
        <ele>475.6</ele>
        <time>2021-11-20T12:47:32Z</time>
      </trkpt>
      <trkpt lat="46.59776" lon="5.55225">
        <ele>475.6</ele>
        <time>2021-11-20T12:47:33Z</time>
      </trkpt>
      <trkpt lat="46.59776" lon="5.55225">
        <ele>475.6</ele>
        <time>2021-11-20T12:47:34Z</time>
      </trkpt>
      <trkpt lat="46.59776" lon="5.55225">
        <ele>475.6</ele>
        <time>2021-11-20T12:47:35Z</time>
      </trkpt>
      <trkpt lat="46.59776" lon="5.55225">
        <ele>475.6</ele>
        <time>2021-11-20T12:47:36Z</time>
      </trkpt>
      <trkpt lat="46.59776" lon="5.55225">
        <ele>475.6</ele>
        <time>2021-11-20T12:47:37Z</time>
      </trkpt>
      <trkpt lat="46.59776" lon="5.55225">
        <ele>475.6</ele>
        <time>2021-11-20T12:47:39Z</time>
      </trkpt>
      <trkpt lat="46.59776" lon="5.55225">
        <ele>475.6</ele>
        <time>2021-11-20T12:47:40Z</time>
      </trkpt>
      <trkpt lat="46.59776" lon="5.55225">
        <ele>475.6</ele>
        <time>2021-11-20T12:47:41Z</time>
      </trkpt>
      <trkpt lat="46.59776" lon="5.55225">
        <ele>475.6</ele>
        <time>2021-11-20T12:47:42Z</time>
      </trkpt>
      <trkpt lat="46.59776" lon="5.55225">
        <ele>475.6</ele>
        <time>2021-11-20T12:47:43Z</time>
      </trkpt>
      <trkpt lat="46.59776" lon="5.55225">
        <ele>475.6</ele>
        <time>2021-11-20T12:47:44Z</time>
      </trkpt>
      <trkpt lat="46.59776" lon="5.55225">
        <ele>475.6</ele>
        <time>2021-11-20T12:47:45Z</time>
      </trkpt>
      <trkpt lat="46.59776" lon="5.55225">
        <ele>475.6</ele>
        <time>2021-11-20T12:47:46Z</time>
      </trkpt>
      <trkpt lat="46.59776" lon="5.55225">
        <ele>475.6</ele>
        <time>2021-11-20T12:47:47Z</time>
      </trkpt>
      <trkpt lat="46.59776" lon="5.55225">
        <ele>475.6</ele>
        <time>2021-11-20T12:47:48Z</time>
      </trkpt>
      <trkpt lat="46.59776" lon="5.55225">
        <ele>475.6</ele>
        <time>2021-11-20T12:47:49Z</time>
      </trkpt>
      <trkpt lat="46.59776" lon="5.55225">
        <ele>475.6</ele>
        <time>2021-11-20T12:47:50Z</time>
      </trkpt>
      <trkpt lat="46.59776" lon="5.55225">
        <ele>475.6</ele>
        <time>2021-11-20T12:47:51Z</time>
      </trkpt>
      <trkpt lat="46.59776" lon="5.55225">
        <ele>475.6</ele>
        <time>2021-11-20T12:47:52Z</time>
      </trkpt>
      <trkpt lat="46.59776" lon="5.55225">
        <ele>475.6</ele>
        <time>2021-11-20T12:47:53Z</time>
      </trkpt>
      <trkpt lat="46.59776" lon="5.55225">
        <ele>475.6</ele>
        <time>2021-11-20T12:47:54Z</time>
      </trkpt>
      <trkpt lat="46.59776" lon="5.55225">
        <ele>475.6</ele>
        <time>2021-11-20T12:47:55Z</time>
      </trkpt>
      <trkpt lat="46.59776" lon="5.55225">
        <ele>475.6</ele>
        <time>2021-11-20T12:47:56Z</time>
      </trkpt>
      <trkpt lat="46.59776" lon="5.55225">
        <ele>475.6</ele>
        <time>2021-11-20T12:47:57Z</time>
      </trkpt>
      <trkpt lat="46.59776" lon="5.55225">
        <ele>475.6</ele>
        <time>2021-11-20T12:47:58Z</time>
      </trkpt>
      <trkpt lat="46.59776" lon="5.55225">
        <ele>475.6</ele>
        <time>2021-11-20T12:47:59Z</time>
      </trkpt>
      <trkpt lat="46.59776" lon="5.55225">
        <ele>475.6</ele>
        <time>2021-11-20T12:48:00Z</time>
      </trkpt>
      <trkpt lat="46.59776" lon="5.55225">
        <ele>475.6</ele>
        <time>2021-11-20T12:48:01Z</time>
      </trkpt>
      <trkpt lat="46.59776" lon="5.55225">
        <ele>475.6</ele>
        <time>2021-11-20T12:48:02Z</time>
      </trkpt>
      <trkpt lat="46.59776" lon="5.55225">
        <ele>475.6</ele>
        <time>2021-11-20T12:48:03Z</time>
      </trkpt>
      <trkpt lat="46.59776" lon="5.55225">
        <ele>475.6</ele>
        <time>2021-11-20T12:48:04Z</time>
      </trkpt>
      <trkpt lat="46.59776" lon="5.55225">
        <ele>475.6</ele>
        <time>2021-11-20T12:48:05Z</time>
      </trkpt>
      <trkpt lat="46.59776" lon="5.55225">
        <ele>475.6</ele>
        <time>2021-11-20T12:48:06Z</time>
      </trkpt>
      <trkpt lat="46.59776" lon="5.55225">
        <ele>475.6</ele>
        <time>2021-11-20T12:48:07Z</time>
      </trkpt>
      <trkpt lat="46.59895" lon="5.55132">
        <ele>475.6</ele>
        <time>2021-11-20T12:48:08Z</time>
      </trkpt>
      <trkpt lat="46.59895" lon="5.55132">
        <ele>475.6</ele>
        <time>2021-11-20T12:48:09Z</time>
      </trkpt>
      <trkpt lat="46.59895" lon="5.55132">
        <ele>475.6</ele>
        <time>2021-11-20T12:48:10Z</time>
      </trkpt>
      <trkpt lat="46.59895" lon="5.55132">
        <ele>475.6</ele>
        <time>2021-11-20T12:48:11Z</time>
      </trkpt>
      <trkpt lat="46.59895" lon="5.55132">
        <ele>475.6</ele>
        <time>2021-11-20T12:48:12Z</time>
      </trkpt>
      <trkpt lat="46.59895" lon="5.55132">
        <ele>475.6</ele>
        <time>2021-11-20T12:48:13Z</time>
      </trkpt>
      <trkpt lat="46.59895" lon="5.55132">
        <ele>475.6</ele>
        <time>2021-11-20T12:48:14Z</time>
      </trkpt>
      <trkpt lat="46.59895" lon="5.55132">
        <ele>475.6</ele>
        <time>2021-11-20T12:48:15Z</time>
      </trkpt>
      <trkpt lat="46.59895" lon="5.55132">
        <ele>475.6</ele>
        <time>2021-11-20T12:48:16Z</time>
      </trkpt>
      <trkpt lat="46.59895" lon="5.55132">
        <ele>475.6</ele>
        <time>2021-11-20T12:48:17Z</time>
      </trkpt>
      <trkpt lat="46.59895" lon="5.55132">
        <ele>475.6</ele>
        <time>2021-11-20T12:48:18Z</time>
      </trkpt>
      <trkpt lat="46.59895" lon="5.55132">
        <ele>472.8</ele>
        <time>2021-11-20T12:48:19Z</time>
      </trkpt>
      <trkpt lat="46.59895" lon="5.55132">
        <ele>472.8</ele>
        <time>2021-11-20T12:48:20Z</time>
      </trkpt>
      <trkpt lat="46.59895" lon="5.55132">
        <ele>472.8</ele>
        <time>2021-11-20T12:48:21Z</time>
      </trkpt>
      <trkpt lat="46.59895" lon="5.55132">
        <ele>472.8</ele>
        <time>2021-11-20T12:48:22Z</time>
      </trkpt>
      <trkpt lat="46.59895" lon="5.55132">
        <ele>472.8</ele>
        <time>2021-11-20T12:48:23Z</time>
      </trkpt>
      <trkpt lat="46.59895" lon="5.55132">
        <ele>472.8</ele>
        <time>2021-11-20T12:48:24Z</time>
      </trkpt>
      <trkpt lat="46.59895" lon="5.55132">
        <ele>472.8</ele>
        <time>2021-11-20T12:48:25Z</time>
      </trkpt>
      <trkpt lat="46.59895" lon="5.55132">
        <ele>472.8</ele>
        <time>2021-11-20T12:48:26Z</time>
      </trkpt>
      <trkpt lat="46.59895" lon="5.55132">
        <ele>472.8</ele>
        <time>2021-11-20T12:48:27Z</time>
      </trkpt>
      <trkpt lat="46.59895" lon="5.55132">
        <ele>472.8</ele>
        <time>2021-11-20T12:48:28Z</time>
      </trkpt>
      <trkpt lat="46.59895" lon="5.55132">
        <ele>472.8</ele>
        <time>2021-11-20T12:48:29Z</time>
      </trkpt>
      <trkpt lat="46.59895" lon="5.55132">
        <ele>472.8</ele>
        <time>2021-11-20T12:48:30Z</time>
      </trkpt>
      <trkpt lat="46.59895" lon="5.55132">
        <ele>472.8</ele>
        <time>2021-11-20T12:48:31Z</time>
      </trkpt>
      <trkpt lat="46.59895" lon="5.55132">
        <ele>472.8</ele>
        <time>2021-11-20T12:48:32Z</time>
      </trkpt>
      <trkpt lat="46.59895" lon="5.55132">
        <ele>472.8</ele>
        <time>2021-11-20T12:48:33Z</time>
      </trkpt>
      <trkpt lat="46.59895" lon="5.55132">
        <ele>472.8</ele>
        <time>2021-11-20T12:48:34Z</time>
      </trkpt>
      <trkpt lat="46.59895" lon="5.55132">
        <ele>472.8</ele>
        <time>2021-11-20T12:48:35Z</time>
      </trkpt>
      <trkpt lat="46.59895" lon="5.55132">
        <ele>472.8</ele>
        <time>2021-11-20T12:48:36Z</time>
      </trkpt>
      <trkpt lat="46.59895" lon="5.55132">
        <ele>472.8</ele>
        <time>2021-11-20T12:48:37Z</time>
      </trkpt>
      <trkpt lat="46.59895" lon="5.55132">
        <ele>472.8</ele>
        <time>2021-11-20T12:48:38Z</time>
      </trkpt>
      <trkpt lat="46.59895" lon="5.55132">
        <ele>472.8</ele>
        <time>2021-11-20T12:48:39Z</time>
      </trkpt>
      <trkpt lat="46.59895" lon="5.55132">
        <ele>472.8</ele>
        <time>2021-11-20T12:48:40Z</time>
      </trkpt>
      <trkpt lat="46.59895" lon="5.55132">
        <ele>472.8</ele>
        <time>2021-11-20T12:48:41Z</time>
      </trkpt>
      <trkpt lat="46.59895" lon="5.55132">
        <ele>472.8</ele>
        <time>2021-11-20T12:48:42Z</time>
      </trkpt>
      <trkpt lat="46.59895" lon="5.55132">
        <ele>472.8</ele>
        <time>2021-11-20T12:48:43Z</time>
      </trkpt>
      <trkpt lat="46.59895" lon="5.55132">
        <ele>472.8</ele>
        <time>2021-11-20T12:48:44Z</time>
      </trkpt>
      <trkpt lat="46.59895" lon="5.55132">
        <ele>472.8</ele>
        <time>2021-11-20T12:48:45Z</time>
      </trkpt>
      <trkpt lat="46.59895" lon="5.55132">
        <ele>472.8</ele>
        <time>2021-11-20T12:48:46Z</time>
      </trkpt>
      <trkpt lat="46.59895" lon="5.55132">
        <ele>472.8</ele>
        <time>2021-11-20T12:48:47Z</time>
      </trkpt>
      <trkpt lat="46.59895" lon="5.55132">
        <ele>472.8</ele>
        <time>2021-11-20T12:48:48Z</time>
      </trkpt>
      <trkpt lat="46.59895" lon="5.55132">
        <ele>472.8</ele>
        <time>2021-11-20T12:48:49Z</time>
      </trkpt>
      <trkpt lat="46.59895" lon="5.55132">
        <ele>472.8</ele>
        <time>2021-11-20T12:48:50Z</time>
      </trkpt>
      <trkpt lat="46.59895" lon="5.55132">
        <ele>472.8</ele>
        <time>2021-11-20T12:48:51Z</time>
      </trkpt>
      <trkpt lat="46.59895" lon="5.55132">
        <ele>472.8</ele>
        <time>2021-11-20T12:48:52Z</time>
      </trkpt>
      <trkpt lat="46.59895" lon="5.55132">
        <ele>472.8</ele>
        <time>2021-11-20T12:48:53Z</time>
      </trkpt>
      <trkpt lat="46.59895" lon="5.55132">
        <ele>472.8</ele>
        <time>2021-11-20T12:48:54Z</time>
      </trkpt>
      <trkpt lat="46.59895" lon="5.55132">
        <ele>472.8</ele>
        <time>2021-11-20T12:48:55Z</time>
      </trkpt>
      <trkpt lat="46.59895" lon="5.55132">
        <ele>472.8</ele>
        <time>2021-11-20T12:48:56Z</time>
      </trkpt>
      <trkpt lat="46.59895" lon="5.55132">
        <ele>472.8</ele>
        <time>2021-11-20T12:48:57Z</time>
      </trkpt>
      <trkpt lat="46.59895" lon="5.55132">
        <ele>472.8</ele>
        <time>2021-11-20T12:48:58Z</time>
      </trkpt>
      <trkpt lat="46.59895" lon="5.55132">
        <ele>472.8</ele>
        <time>2021-11-20T12:48:59Z</time>
      </trkpt>
      <trkpt lat="46.59895" lon="5.55132">
        <ele>472.8</ele>
        <time>2021-11-20T12:49:00Z</time>
      </trkpt>
      <trkpt lat="46.59895" lon="5.55132">
        <ele>472.8</ele>
        <time>2021-11-20T12:49:01Z</time>
      </trkpt>
      <trkpt lat="46.59895" lon="5.55132">
        <ele>472.8</ele>
        <time>2021-11-20T12:49:02Z</time>
      </trkpt>
      <trkpt lat="46.59895" lon="5.55132">
        <ele>472.8</ele>
        <time>2021-11-20T12:49:03Z</time>
      </trkpt>
      <trkpt lat="46.59895" lon="5.55132">
        <ele>472.8</ele>
        <time>2021-11-20T12:49:04Z</time>
      </trkpt>
      <trkpt lat="46.59895" lon="5.55132">
        <ele>472.8</ele>
        <time>2021-11-20T12:49:05Z</time>
      </trkpt>
      <trkpt lat="46.59895" lon="5.55132">
        <ele>472.8</ele>
        <time>2021-11-20T12:49:06Z</time>
      </trkpt>
      <trkpt lat="46.59895" lon="5.55132">
        <ele>472.8</ele>
        <time>2021-11-20T12:49:07Z</time>
      </trkpt>
      <trkpt lat="46.60124" lon="5.55131">
        <ele>472.8</ele>
        <time>2021-11-20T12:49:08Z</time>
      </trkpt>
      <trkpt lat="46.60124" lon="5.55131">
        <ele>472.8</ele>
        <time>2021-11-20T12:49:09Z</time>
      </trkpt>
      <trkpt lat="46.60124" lon="5.55131">
        <ele>472.8</ele>
        <time>2021-11-20T12:49:10Z</time>
      </trkpt>
      <trkpt lat="46.60124" lon="5.55131">
        <ele>472.8</ele>
        <time>2021-11-20T12:49:11Z</time>
      </trkpt>
      <trkpt lat="46.60124" lon="5.55131">
        <ele>472.8</ele>
        <time>2021-11-20T12:49:12Z</time>
      </trkpt>
      <trkpt lat="46.60124" lon="5.55131">
        <ele>472.8</ele>
        <time>2021-11-20T12:49:13Z</time>
      </trkpt>
      <trkpt lat="46.60124" lon="5.55131">
        <ele>472.8</ele>
        <time>2021-11-20T12:49:14Z</time>
      </trkpt>
      <trkpt lat="46.60124" lon="5.55131">
        <ele>472.8</ele>
        <time>2021-11-20T12:49:15Z</time>
      </trkpt>
      <trkpt lat="46.60124" lon="5.55131">
        <ele>472.8</ele>
        <time>2021-11-20T12:49:16Z</time>
      </trkpt>
      <trkpt lat="46.60124" lon="5.55131">
        <ele>472.8</ele>
        <time>2021-11-20T12:49:17Z</time>
      </trkpt>
      <trkpt lat="46.60124" lon="5.55131">
        <ele>472.8</ele>
        <time>2021-11-20T12:49:18Z</time>
      </trkpt>
      <trkpt lat="46.60124" lon="5.55131">
        <ele>470</ele>
        <time>2021-11-20T12:49:19Z</time>
      </trkpt>
      <trkpt lat="46.60124" lon="5.55131">
        <ele>470</ele>
        <time>2021-11-20T12:49:20Z</time>
      </trkpt>
      <trkpt lat="46.60124" lon="5.55131">
        <ele>470</ele>
        <time>2021-11-20T12:49:21Z</time>
      </trkpt>
      <trkpt lat="46.60124" lon="5.55131">
        <ele>470</ele>
        <time>2021-11-20T12:49:22Z</time>
      </trkpt>
      <trkpt lat="46.60124" lon="5.55131">
        <ele>470</ele>
        <time>2021-11-20T12:49:23Z</time>
      </trkpt>
      <trkpt lat="46.60124" lon="5.55131">
        <ele>470</ele>
        <time>2021-11-20T12:49:24Z</time>
      </trkpt>
      <trkpt lat="46.60124" lon="5.55131">
        <ele>470</ele>
        <time>2021-11-20T12:49:25Z</time>
      </trkpt>
      <trkpt lat="46.60124" lon="5.55131">
        <ele>470</ele>
        <time>2021-11-20T12:49:26Z</time>
      </trkpt>
      <trkpt lat="46.60124" lon="5.55131">
        <ele>470</ele>
        <time>2021-11-20T12:49:27Z</time>
      </trkpt>
      <trkpt lat="46.60124" lon="5.55131">
        <ele>470</ele>
        <time>2021-11-20T12:49:28Z</time>
      </trkpt>
      <trkpt lat="46.60124" lon="5.55131">
        <ele>470</ele>
        <time>2021-11-20T12:49:29Z</time>
      </trkpt>
      <trkpt lat="46.60124" lon="5.55131">
        <ele>470</ele>
        <time>2021-11-20T12:49:30Z</time>
      </trkpt>
      <trkpt lat="46.60124" lon="5.55131">
        <ele>470</ele>
        <time>2021-11-20T12:49:31Z</time>
      </trkpt>
      <trkpt lat="46.60124" lon="5.55131">
        <ele>470</ele>
        <time>2021-11-20T12:49:32Z</time>
      </trkpt>
      <trkpt lat="46.60124" lon="5.55131">
        <ele>470</ele>
        <time>2021-11-20T12:49:33Z</time>
      </trkpt>
      <trkpt lat="46.60124" lon="5.55131">
        <ele>470</ele>
        <time>2021-11-20T12:49:34Z</time>
      </trkpt>
      <trkpt lat="46.60124" lon="5.55131">
        <ele>470</ele>
        <time>2021-11-20T12:49:35Z</time>
      </trkpt>
      <trkpt lat="46.60124" lon="5.55131">
        <ele>470</ele>
        <time>2021-11-20T12:49:36Z</time>
      </trkpt>
      <trkpt lat="46.60124" lon="5.55131">
        <ele>470</ele>
        <time>2021-11-20T12:49:37Z</time>
      </trkpt>
      <trkpt lat="46.60124" lon="5.55131">
        <ele>470</ele>
        <time>2021-11-20T12:49:38Z</time>
      </trkpt>
      <trkpt lat="46.60124" lon="5.55131">
        <ele>470</ele>
        <time>2021-11-20T12:49:39Z</time>
      </trkpt>
      <trkpt lat="46.60124" lon="5.55131">
        <ele>470</ele>
        <time>2021-11-20T12:49:40Z</time>
      </trkpt>
      <trkpt lat="46.60124" lon="5.55131">
        <ele>470</ele>
        <time>2021-11-20T12:49:41Z</time>
      </trkpt>
      <trkpt lat="46.60124" lon="5.55131">
        <ele>470</ele>
        <time>2021-11-20T12:49:42Z</time>
      </trkpt>
      <trkpt lat="46.60124" lon="5.55131">
        <ele>470</ele>
        <time>2021-11-20T12:49:43Z</time>
      </trkpt>
      <trkpt lat="46.60124" lon="5.55131">
        <ele>470</ele>
        <time>2021-11-20T12:49:44Z</time>
      </trkpt>
      <trkpt lat="46.60124" lon="5.55131">
        <ele>470</ele>
        <time>2021-11-20T12:49:45Z</time>
      </trkpt>
      <trkpt lat="46.60124" lon="5.55131">
        <ele>470</ele>
        <time>2021-11-20T12:49:46Z</time>
      </trkpt>
      <trkpt lat="46.60124" lon="5.55131">
        <ele>470</ele>
        <time>2021-11-20T12:49:47Z</time>
      </trkpt>
      <trkpt lat="46.60124" lon="5.55131">
        <ele>470</ele>
        <time>2021-11-20T12:49:48Z</time>
      </trkpt>
      <trkpt lat="46.60124" lon="5.55131">
        <ele>470</ele>
        <time>2021-11-20T12:49:49Z</time>
      </trkpt>
      <trkpt lat="46.60124" lon="5.55131">
        <ele>470</ele>
        <time>2021-11-20T12:49:50Z</time>
      </trkpt>
      <trkpt lat="46.60124" lon="5.55131">
        <ele>470</ele>
        <time>2021-11-20T12:49:51Z</time>
      </trkpt>
      <trkpt lat="46.60124" lon="5.55131">
        <ele>470</ele>
        <time>2021-11-20T12:49:52Z</time>
      </trkpt>
      <trkpt lat="46.60124" lon="5.55131">
        <ele>470</ele>
        <time>2021-11-20T12:49:53Z</time>
      </trkpt>
      <trkpt lat="46.60124" lon="5.55131">
        <ele>470</ele>
        <time>2021-11-20T12:49:54Z</time>
      </trkpt>
      <trkpt lat="46.60124" lon="5.55131">
        <ele>470</ele>
        <time>2021-11-20T12:49:55Z</time>
      </trkpt>
      <trkpt lat="46.60124" lon="5.55131">
        <ele>470</ele>
        <time>2021-11-20T12:49:56Z</time>
      </trkpt>
      <trkpt lat="46.60124" lon="5.55131">
        <ele>470</ele>
        <time>2021-11-20T12:49:57Z</time>
      </trkpt>
      <trkpt lat="46.60124" lon="5.55131">
        <ele>470</ele>
        <time>2021-11-20T12:49:58Z</time>
      </trkpt>
      <trkpt lat="46.60124" lon="5.55131">
        <ele>470</ele>
        <time>2021-11-20T12:49:59Z</time>
      </trkpt>
      <trkpt lat="46.60124" lon="5.55131">
        <ele>470</ele>
        <time>2021-11-20T12:50:00Z</time>
      </trkpt>
      <trkpt lat="46.60124" lon="5.55131">
        <ele>470</ele>
        <time>2021-11-20T12:50:01Z</time>
      </trkpt>
      <trkpt lat="46.60124" lon="5.55131">
        <ele>470</ele>
        <time>2021-11-20T12:50:02Z</time>
      </trkpt>
      <trkpt lat="46.60124" lon="5.55131">
        <ele>470</ele>
        <time>2021-11-20T12:50:03Z</time>
      </trkpt>
      <trkpt lat="46.60124" lon="5.55131">
        <ele>470</ele>
        <time>2021-11-20T12:50:04Z</time>
      </trkpt>
      <trkpt lat="46.60124" lon="5.55131">
        <ele>470</ele>
        <time>2021-11-20T12:50:05Z</time>
      </trkpt>
      <trkpt lat="46.60124" lon="5.55131">
        <ele>470</ele>
        <time>2021-11-20T12:50:06Z</time>
      </trkpt>
      <trkpt lat="46.60124" lon="5.55131">
        <ele>470</ele>
        <time>2021-11-20T12:50:07Z</time>
      </trkpt>
      <trkpt lat="46.60319" lon="5.55079">
        <ele>470</ele>
        <time>2021-11-20T12:50:08Z</time>
      </trkpt>
      <trkpt lat="46.60319" lon="5.55079">
        <ele>470</ele>
        <time>2021-11-20T12:50:09Z</time>
      </trkpt>
      <trkpt lat="46.60319" lon="5.55079">
        <ele>470</ele>
        <time>2021-11-20T12:50:10Z</time>
      </trkpt>
      <trkpt lat="46.60319" lon="5.55079">
        <ele>470</ele>
        <time>2021-11-20T12:50:11Z</time>
      </trkpt>
      <trkpt lat="46.60319" lon="5.55079">
        <ele>470</ele>
        <time>2021-11-20T12:50:12Z</time>
      </trkpt>
      <trkpt lat="46.60319" lon="5.55079">
        <ele>470</ele>
        <time>2021-11-20T12:50:13Z</time>
      </trkpt>
      <trkpt lat="46.60319" lon="5.55079">
        <ele>470</ele>
        <time>2021-11-20T12:50:14Z</time>
      </trkpt>
      <trkpt lat="46.60319" lon="5.55079">
        <ele>470</ele>
        <time>2021-11-20T12:50:15Z</time>
      </trkpt>
      <trkpt lat="46.60319" lon="5.55079">
        <ele>470</ele>
        <time>2021-11-20T12:50:16Z</time>
      </trkpt>
      <trkpt lat="46.60319" lon="5.55079">
        <ele>470</ele>
        <time>2021-11-20T12:50:17Z</time>
      </trkpt>
      <trkpt lat="46.60319" lon="5.55079">
        <ele>470</ele>
        <time>2021-11-20T12:50:18Z</time>
      </trkpt>
      <trkpt lat="46.60319" lon="5.55079">
        <ele>471</ele>
        <time>2021-11-20T12:50:19Z</time>
      </trkpt>
      <trkpt lat="46.60319" lon="5.55079">
        <ele>471</ele>
        <time>2021-11-20T12:50:20Z</time>
      </trkpt>
      <trkpt lat="46.60319" lon="5.55079">
        <ele>471</ele>
        <time>2021-11-20T12:50:21Z</time>
      </trkpt>
      <trkpt lat="46.60319" lon="5.55079">
        <ele>471</ele>
        <time>2021-11-20T12:50:22Z</time>
      </trkpt>
      <trkpt lat="46.60319" lon="5.55079">
        <ele>471</ele>
        <time>2021-11-20T12:50:23Z</time>
      </trkpt>
      <trkpt lat="46.60319" lon="5.55079">
        <ele>471</ele>
        <time>2021-11-20T12:50:24Z</time>
      </trkpt>
      <trkpt lat="46.60319" lon="5.55079">
        <ele>471</ele>
        <time>2021-11-20T12:50:25Z</time>
      </trkpt>
      <trkpt lat="46.60319" lon="5.55079">
        <ele>471</ele>
        <time>2021-11-20T12:50:26Z</time>
      </trkpt>
      <trkpt lat="46.60319" lon="5.55079">
        <ele>471</ele>
        <time>2021-11-20T12:50:27Z</time>
      </trkpt>
      <trkpt lat="46.60319" lon="5.55079">
        <ele>471</ele>
        <time>2021-11-20T12:50:28Z</time>
      </trkpt>
      <trkpt lat="46.60319" lon="5.55079">
        <ele>471</ele>
        <time>2021-11-20T12:50:29Z</time>
      </trkpt>
      <trkpt lat="46.60319" lon="5.55079">
        <ele>471</ele>
        <time>2021-11-20T12:50:30Z</time>
      </trkpt>
      <trkpt lat="46.60319" lon="5.55079">
        <ele>471</ele>
        <time>2021-11-20T12:50:31Z</time>
      </trkpt>
      <trkpt lat="46.60319" lon="5.55079">
        <ele>471</ele>
        <time>2021-11-20T12:50:32Z</time>
      </trkpt>
      <trkpt lat="46.60319" lon="5.55079">
        <ele>471</ele>
        <time>2021-11-20T12:50:33Z</time>
      </trkpt>
      <trkpt lat="46.60319" lon="5.55079">
        <ele>471</ele>
        <time>2021-11-20T12:50:34Z</time>
      </trkpt>
      <trkpt lat="46.60319" lon="5.55079">
        <ele>471</ele>
        <time>2021-11-20T12:50:35Z</time>
      </trkpt>
      <trkpt lat="46.60319" lon="5.55079">
        <ele>471</ele>
        <time>2021-11-20T12:50:36Z</time>
      </trkpt>
      <trkpt lat="46.60319" lon="5.55079">
        <ele>471</ele>
        <time>2021-11-20T12:50:37Z</time>
      </trkpt>
      <trkpt lat="46.60319" lon="5.55079">
        <ele>471</ele>
        <time>2021-11-20T12:50:38Z</time>
      </trkpt>
      <trkpt lat="46.60319" lon="5.55079">
        <ele>471</ele>
        <time>2021-11-20T12:50:39Z</time>
      </trkpt>
      <trkpt lat="46.60319" lon="5.55079">
        <ele>471</ele>
        <time>2021-11-20T12:50:40Z</time>
      </trkpt>
      <trkpt lat="46.60319" lon="5.55079">
        <ele>471</ele>
        <time>2021-11-20T12:50:41Z</time>
      </trkpt>
      <trkpt lat="46.60319" lon="5.55079">
        <ele>471</ele>
        <time>2021-11-20T12:50:42Z</time>
      </trkpt>
      <trkpt lat="46.60319" lon="5.55079">
        <ele>471</ele>
        <time>2021-11-20T12:50:43Z</time>
      </trkpt>
      <trkpt lat="46.60319" lon="5.55079">
        <ele>471</ele>
        <time>2021-11-20T12:50:44Z</time>
      </trkpt>
      <trkpt lat="46.60319" lon="5.55079">
        <ele>471</ele>
        <time>2021-11-20T12:50:45Z</time>
      </trkpt>
      <trkpt lat="46.60319" lon="5.55079">
        <ele>471</ele>
        <time>2021-11-20T12:50:46Z</time>
      </trkpt>
      <trkpt lat="46.60319" lon="5.55079">
        <ele>471</ele>
        <time>2021-11-20T12:50:47Z</time>
      </trkpt>
      <trkpt lat="46.60319" lon="5.55079">
        <ele>471</ele>
        <time>2021-11-20T12:50:48Z</time>
      </trkpt>
      <trkpt lat="46.60319" lon="5.55079">
        <ele>471</ele>
        <time>2021-11-20T12:50:49Z</time>
      </trkpt>
      <trkpt lat="46.60319" lon="5.55079">
        <ele>471</ele>
        <time>2021-11-20T12:50:50Z</time>
      </trkpt>
      <trkpt lat="46.60319" lon="5.55079">
        <ele>471</ele>
        <time>2021-11-20T12:50:51Z</time>
      </trkpt>
      <trkpt lat="46.60319" lon="5.55079">
        <ele>471</ele>
        <time>2021-11-20T12:50:52Z</time>
      </trkpt>
      <trkpt lat="46.60319" lon="5.55079">
        <ele>471</ele>
        <time>2021-11-20T12:50:53Z</time>
      </trkpt>
      <trkpt lat="46.60319" lon="5.55079">
        <ele>471</ele>
        <time>2021-11-20T12:50:54Z</time>
      </trkpt>
      <trkpt lat="46.60319" lon="5.55079">
        <ele>471</ele>
        <time>2021-11-20T12:50:55Z</time>
      </trkpt>
      <trkpt lat="46.60319" lon="5.55079">
        <ele>471</ele>
        <time>2021-11-20T12:50:56Z</time>
      </trkpt>
      <trkpt lat="46.60319" lon="5.55079">
        <ele>471</ele>
        <time>2021-11-20T12:50:57Z</time>
      </trkpt>
      <trkpt lat="46.60319" lon="5.55079">
        <ele>471</ele>
        <time>2021-11-20T12:50:58Z</time>
      </trkpt>
      <trkpt lat="46.60319" lon="5.55079">
        <ele>471</ele>
        <time>2021-11-20T12:50:59Z</time>
      </trkpt>
      <trkpt lat="46.60319" lon="5.55079">
        <ele>471</ele>
        <time>2021-11-20T12:51:00Z</time>
      </trkpt>
      <trkpt lat="46.60319" lon="5.55079">
        <ele>471</ele>
        <time>2021-11-20T12:51:01Z</time>
      </trkpt>
      <trkpt lat="46.60319" lon="5.55079">
        <ele>471</ele>
        <time>2021-11-20T12:51:02Z</time>
      </trkpt>
      <trkpt lat="46.60319" lon="5.55079">
        <ele>471</ele>
        <time>2021-11-20T12:51:03Z</time>
      </trkpt>
      <trkpt lat="46.60319" lon="5.55079">
        <ele>471</ele>
        <time>2021-11-20T12:51:04Z</time>
      </trkpt>
      <trkpt lat="46.60319" lon="5.55079">
        <ele>471</ele>
        <time>2021-11-20T12:51:05Z</time>
      </trkpt>
      <trkpt lat="46.60319" lon="5.55079">
        <ele>471</ele>
        <time>2021-11-20T12:51:06Z</time>
      </trkpt>
      <trkpt lat="46.60319" lon="5.55079">
        <ele>471</ele>
        <time>2021-11-20T12:51:07Z</time>
      </trkpt>
      <trkpt lat="46.60525" lon="5.55123">
        <ele>471</ele>
        <time>2021-11-20T12:51:08Z</time>
      </trkpt>
      <trkpt lat="46.60525" lon="5.55123">
        <ele>471</ele>
        <time>2021-11-20T12:51:09Z</time>
      </trkpt>
      <trkpt lat="46.60525" lon="5.55123">
        <ele>471</ele>
        <time>2021-11-20T12:51:10Z</time>
      </trkpt>
      <trkpt lat="46.60525" lon="5.55123">
        <ele>471</ele>
        <time>2021-11-20T12:51:11Z</time>
      </trkpt>
      <trkpt lat="46.60525" lon="5.55123">
        <ele>471</ele>
        <time>2021-11-20T12:51:12Z</time>
      </trkpt>
      <trkpt lat="46.60525" lon="5.55123">
        <ele>471</ele>
        <time>2021-11-20T12:51:13Z</time>
      </trkpt>
      <trkpt lat="46.60525" lon="5.55123">
        <ele>471</ele>
        <time>2021-11-20T12:51:14Z</time>
      </trkpt>
      <trkpt lat="46.60525" lon="5.55123">
        <ele>471</ele>
        <time>2021-11-20T12:51:15Z</time>
      </trkpt>
      <trkpt lat="46.60525" lon="5.55123">
        <ele>471</ele>
        <time>2021-11-20T12:51:16Z</time>
      </trkpt>
      <trkpt lat="46.60525" lon="5.55123">
        <ele>471</ele>
        <time>2021-11-20T12:51:17Z</time>
      </trkpt>
      <trkpt lat="46.60525" lon="5.55123">
        <ele>471</ele>
        <time>2021-11-20T12:51:18Z</time>
      </trkpt>
      <trkpt lat="46.60525" lon="5.55123">
        <ele>477.4</ele>
        <time>2021-11-20T12:51:19Z</time>
      </trkpt>
      <trkpt lat="46.60525" lon="5.55123">
        <ele>477.4</ele>
        <time>2021-11-20T12:51:20Z</time>
      </trkpt>
      <trkpt lat="46.60525" lon="5.55123">
        <ele>477.4</ele>
        <time>2021-11-20T12:51:21Z</time>
      </trkpt>
      <trkpt lat="46.60525" lon="5.55123">
        <ele>477.4</ele>
        <time>2021-11-20T12:51:22Z</time>
      </trkpt>
      <trkpt lat="46.60525" lon="5.55123">
        <ele>477.4</ele>
        <time>2021-11-20T12:51:23Z</time>
      </trkpt>
      <trkpt lat="46.60525" lon="5.55123">
        <ele>477.4</ele>
        <time>2021-11-20T12:51:24Z</time>
      </trkpt>
      <trkpt lat="46.60525" lon="5.55123">
        <ele>477.4</ele>
        <time>2021-11-20T12:51:25Z</time>
      </trkpt>
      <trkpt lat="46.60525" lon="5.55123">
        <ele>477.4</ele>
        <time>2021-11-20T12:51:26Z</time>
      </trkpt>
      <trkpt lat="46.60525" lon="5.55123">
        <ele>477.4</ele>
        <time>2021-11-20T12:51:27Z</time>
      </trkpt>
      <trkpt lat="46.60525" lon="5.55123">
        <ele>477.4</ele>
        <time>2021-11-20T12:51:28Z</time>
      </trkpt>
      <trkpt lat="46.60525" lon="5.55123">
        <ele>477.4</ele>
        <time>2021-11-20T12:51:29Z</time>
      </trkpt>
      <trkpt lat="46.60525" lon="5.55123">
        <ele>477.4</ele>
        <time>2021-11-20T12:51:30Z</time>
      </trkpt>
      <trkpt lat="46.60525" lon="5.55123">
        <ele>477.4</ele>
        <time>2021-11-20T12:51:31Z</time>
      </trkpt>
      <trkpt lat="46.60525" lon="5.55123">
        <ele>477.4</ele>
        <time>2021-11-20T12:51:32Z</time>
      </trkpt>
      <trkpt lat="46.60525" lon="5.55123">
        <ele>477.4</ele>
        <time>2021-11-20T12:51:33Z</time>
      </trkpt>
      <trkpt lat="46.60525" lon="5.55123">
        <ele>477.4</ele>
        <time>2021-11-20T12:51:34Z</time>
      </trkpt>
      <trkpt lat="46.60525" lon="5.55123">
        <ele>477.4</ele>
        <time>2021-11-20T12:51:35Z</time>
      </trkpt>
      <trkpt lat="46.60525" lon="5.55123">
        <ele>477.4</ele>
        <time>2021-11-20T12:51:36Z</time>
      </trkpt>
      <trkpt lat="46.60525" lon="5.55123">
        <ele>477.4</ele>
        <time>2021-11-20T12:51:38Z</time>
      </trkpt>
      <trkpt lat="46.60525" lon="5.55123">
        <ele>477.4</ele>
        <time>2021-11-20T12:51:39Z</time>
      </trkpt>
      <trkpt lat="46.60525" lon="5.55123">
        <ele>477.4</ele>
        <time>2021-11-20T12:51:40Z</time>
      </trkpt>
      <trkpt lat="46.60525" lon="5.55123">
        <ele>477.4</ele>
        <time>2021-11-20T12:51:41Z</time>
      </trkpt>
      <trkpt lat="46.60525" lon="5.55123">
        <ele>477.4</ele>
        <time>2021-11-20T12:51:42Z</time>
      </trkpt>
      <trkpt lat="46.60525" lon="5.55123">
        <ele>477.4</ele>
        <time>2021-11-20T12:51:43Z</time>
      </trkpt>
      <trkpt lat="46.60525" lon="5.55123">
        <ele>477.4</ele>
        <time>2021-11-20T12:51:44Z</time>
      </trkpt>
      <trkpt lat="46.60525" lon="5.55123">
        <ele>477.4</ele>
        <time>2021-11-20T12:51:45Z</time>
      </trkpt>
      <trkpt lat="46.60525" lon="5.55123">
        <ele>477.4</ele>
        <time>2021-11-20T12:51:46Z</time>
      </trkpt>
      <trkpt lat="46.60525" lon="5.55123">
        <ele>477.4</ele>
        <time>2021-11-20T12:51:47Z</time>
      </trkpt>
      <trkpt lat="46.60525" lon="5.55123">
        <ele>477.4</ele>
        <time>2021-11-20T12:51:48Z</time>
      </trkpt>
      <trkpt lat="46.60525" lon="5.55123">
        <ele>477.4</ele>
        <time>2021-11-20T12:51:49Z</time>
      </trkpt>
      <trkpt lat="46.60525" lon="5.55123">
        <ele>477.4</ele>
        <time>2021-11-20T12:51:50Z</time>
      </trkpt>
      <trkpt lat="46.60525" lon="5.55123">
        <ele>477.4</ele>
        <time>2021-11-20T12:51:51Z</time>
      </trkpt>
      <trkpt lat="46.60525" lon="5.55123">
        <ele>477.4</ele>
        <time>2021-11-20T12:51:52Z</time>
      </trkpt>
      <trkpt lat="46.60525" lon="5.55123">
        <ele>477.4</ele>
        <time>2021-11-20T12:51:53Z</time>
      </trkpt>
      <trkpt lat="46.60525" lon="5.55123">
        <ele>477.4</ele>
        <time>2021-11-20T12:51:54Z</time>
      </trkpt>
      <trkpt lat="46.60525" lon="5.55123">
        <ele>477.4</ele>
        <time>2021-11-20T12:51:55Z</time>
      </trkpt>
      <trkpt lat="46.60525" lon="5.55123">
        <ele>477.4</ele>
        <time>2021-11-20T12:51:56Z</time>
      </trkpt>
      <trkpt lat="46.60525" lon="5.55123">
        <ele>477.4</ele>
        <time>2021-11-20T12:51:57Z</time>
      </trkpt>
      <trkpt lat="46.60525" lon="5.55123">
        <ele>477.4</ele>
        <time>2021-11-20T12:51:58Z</time>
      </trkpt>
      <trkpt lat="46.60525" lon="5.55123">
        <ele>477.4</ele>
        <time>2021-11-20T12:51:59Z</time>
      </trkpt>
      <trkpt lat="46.60525" lon="5.55123">
        <ele>477.4</ele>
        <time>2021-11-20T12:52:00Z</time>
      </trkpt>
      <trkpt lat="46.60525" lon="5.55123">
        <ele>477.4</ele>
        <time>2021-11-20T12:52:01Z</time>
      </trkpt>
      <trkpt lat="46.60525" lon="5.55123">
        <ele>477.4</ele>
        <time>2021-11-20T12:52:02Z</time>
      </trkpt>
      <trkpt lat="46.60525" lon="5.55123">
        <ele>477.4</ele>
        <time>2021-11-20T12:52:03Z</time>
      </trkpt>
      <trkpt lat="46.60525" lon="5.55123">
        <ele>477.4</ele>
        <time>2021-11-20T12:52:04Z</time>
      </trkpt>
      <trkpt lat="46.60525" lon="5.55123">
        <ele>477.4</ele>
        <time>2021-11-20T12:52:05Z</time>
      </trkpt>
      <trkpt lat="46.60525" lon="5.55123">
        <ele>477.4</ele>
        <time>2021-11-20T12:52:06Z</time>
      </trkpt>
      <trkpt lat="46.60525" lon="5.55123">
        <ele>477.4</ele>
        <time>2021-11-20T12:52:07Z</time>
      </trkpt>
      <trkpt lat="46.60724" lon="5.55243">
        <ele>477.4</ele>
        <time>2021-11-20T12:52:08Z</time>
      </trkpt>
      <trkpt lat="46.60725" lon="5.55251">
        <ele>483.8</ele>
      </trkpt>
      <trkpt lat="46.6074" lon="5.55266">
        <ele>484.8</ele>
      </trkpt>
      <trkpt lat="46.60762" lon="5.55291">
        <ele>488</ele>
      </trkpt>
      <trkpt lat="46.60774" lon="5.55307">
        <ele>490.5</ele>
      </trkpt>
      <trkpt lat="46.60799" lon="5.55352">
        <ele>493.4</ele>
      </trkpt>
      <trkpt lat="46.60797" lon="5.55342">
        <ele>493.4</ele>
      </trkpt>
      <trkpt lat="46.60797" lon="5.55336">
        <ele>493.4</ele>
      </trkpt>
      <trkpt lat="46.60797" lon="5.55333">
        <ele>493.4</ele>
      </trkpt>
      <trkpt lat="46.60797" lon="5.5532">
        <ele>492.2</ele>
      </trkpt>
      <trkpt lat="46.60797" lon="5.55307">
        <ele>491.1</ele>
      </trkpt>
      <trkpt lat="46.60797" lon="5.55295">
        <ele>490</ele>
      </trkpt>
      <trkpt lat="46.60796" lon="5.55279">
        <ele>488.6</ele>
      </trkpt>
      <trkpt lat="46.60795" lon="5.55261">
        <ele>486.9</ele>
      </trkpt>
      <trkpt lat="46.60794" lon="5.55246">
        <ele>485.2</ele>
      </trkpt>
      <trkpt lat="46.60796" lon="5.55229">
        <ele>483.4</ele>
      </trkpt>
      <trkpt lat="46.608" lon="5.55216">
        <ele>482.2</ele>
      </trkpt>
      <trkpt lat="46.60808" lon="5.55194">
        <ele>480.3</ele>
      </trkpt>
      <trkpt lat="46.60816" lon="5.55168">
        <ele>478.1</ele>
      </trkpt>
      <trkpt lat="46.60825" lon="5.5514">
        <ele>476.2</ele>
      </trkpt>
      <trkpt lat="46.60828" lon="5.55125">
        <ele>474.9</ele>
      </trkpt>
      <trkpt lat="46.60829" lon="5.55112">
        <ele>473.7</ele>
      </trkpt>
      <trkpt lat="46.60828" lon="5.55082">
        <ele>470.4</ele>
      </trkpt>
      <trkpt lat="46.60826" lon="5.5506">
        <ele>468.5</ele>
      </trkpt>
      <trkpt lat="46.60823" lon="5.55018">
        <ele>465.1</ele>
      </trkpt>
      <trkpt lat="46.60819" lon="5.54984">
        <ele>463.3</ele>
      </trkpt>
      <trkpt lat="46.60818" lon="5.54971">
        <ele>463</ele>
      </trkpt>
      <trkpt lat="46.60815" lon="5.54955">
        <ele>462.6</ele>
      </trkpt>
      <trkpt lat="46.60808" lon="5.54933">
        <ele>462</ele>
      </trkpt>
      <trkpt lat="46.60802" lon="5.54916">
        <ele>461.6</ele>
      </trkpt>
      <trkpt lat="46.60792" lon="5.54897">
        <ele>461.7</ele>
      </trkpt>
      <trkpt lat="46.60785" lon="5.54879">
        <ele>462</ele>
      </trkpt>
      <trkpt lat="46.60782" lon="5.54866">
        <ele>462.3</ele>
      </trkpt>
      <trkpt lat="46.6078" lon="5.54855">
        <ele>462.5</ele>
      </trkpt>
      <trkpt lat="46.6078" lon="5.5484">
        <ele>462.8</ele>
      </trkpt>
      <trkpt lat="46.60782" lon="5.54823">
        <ele>462.7</ele>
      </trkpt>
      <trkpt lat="46.60784" lon="5.54805">
        <ele>462.5</ele>
      </trkpt>
      <trkpt lat="46.60785" lon="5.54788">
        <ele>462.2</ele>
      </trkpt>
      <trkpt lat="46.60786" lon="5.54768">
        <ele>461.9</ele>
      </trkpt>
      <trkpt lat="46.60788" lon="5.54749">
        <ele>461.6</ele>
      </trkpt>
      <trkpt lat="46.60791" lon="5.54728">
        <ele>461</ele>
      </trkpt>
      <trkpt lat="46.60793" lon="5.54716">
        <ele>460.7</ele>
      </trkpt>
      <trkpt lat="46.60791" lon="5.54728">
        <ele>461</ele>
      </trkpt>
      <trkpt lat="46.60799" lon="5.54735">
        <ele>460.9</ele>
      </trkpt>
      <trkpt lat="46.60808" lon="5.5474">
        <ele>460.8</ele>
      </trkpt>
      <trkpt lat="46.60829" lon="5.54752">
        <ele>460.2</ele>
      </trkpt>
      <trkpt lat="46.60843" lon="5.5476">
        <ele>457.9</ele>
      </trkpt>
      <trkpt lat="46.60849" lon="5.54764">
        <ele>456.7</ele>
      </trkpt>
      <trkpt lat="46.60855" lon="5.54768">
        <ele>455.7</ele>
      </trkpt>
      <trkpt lat="46.60857" lon="5.54771">
        <ele>455.3</ele>
      </trkpt>
      <trkpt lat="46.60866" lon="5.54786">
        <ele>454.8</ele>
      </trkpt>
      <trkpt lat="46.6087" lon="5.5479">
        <ele>454.6</ele>
      </trkpt>
      <trkpt lat="46.60884" lon="5.54797">
        <ele>453.2</ele>
      </trkpt>
      <trkpt lat="46.60919" lon="5.54814">
        <ele>452</ele>
      </trkpt>
      <trkpt lat="46.60926" lon="5.54818">
        <ele>452.2</ele>
      </trkpt>
      <trkpt lat="46.60949" lon="5.54839">
        <ele>454.6</ele>
      </trkpt>
      <trkpt lat="46.60988" lon="5.54861">
        <ele>455</ele>
      </trkpt>
      <trkpt lat="46.61015" lon="5.54866">
        <ele>455.5</ele>
      </trkpt>
      <trkpt lat="46.61031" lon="5.54865">
        <ele>455.6</ele>
      </trkpt>
      <trkpt lat="46.61042" lon="5.54871">
        <ele>456.7</ele>
      </trkpt>
      <trkpt lat="46.61057" lon="5.54867">
        <ele>456.3</ele>
      </trkpt>
      <trkpt lat="46.61065" lon="5.54855">
        <ele>454.4</ele>
      </trkpt>
      <trkpt lat="46.61071" lon="5.54844">
        <ele>452.8</ele>
      </trkpt>
      <trkpt lat="46.61076" lon="5.54838">
        <ele>451.7</ele>
      </trkpt>
      <trkpt lat="46.61087" lon="5.54829">
        <ele>449.6</ele>
      </trkpt>
      <trkpt lat="46.611" lon="5.54828">
        <ele>448.4</ele>
      </trkpt>
      <trkpt lat="46.61125" lon="5.54835">
        <ele>449.3</ele>
      </trkpt>
      <trkpt lat="46.61143" lon="5.54843">
        <ele>450.3</ele>
      </trkpt>
      <trkpt lat="46.61154" lon="5.54849">
        <ele>451.2</ele>
      </trkpt>
      <trkpt lat="46.61163" lon="5.54857">
        <ele>452.8</ele>
      </trkpt>
      <trkpt lat="46.61197" lon="5.54899">
        <ele>458.6</ele>
      </trkpt>
      <trkpt lat="46.61215" lon="5.54921">
        <ele>461.6</ele>
      </trkpt>
      <trkpt lat="46.61235" lon="5.54936">
        <ele>462.9</ele>
      </trkpt>
      <trkpt lat="46.61251" lon="5.54941">
        <ele>462.2</ele>
      </trkpt>
      <trkpt lat="46.61267" lon="5.54943">
        <ele>459.4</ele>
      </trkpt>
      <trkpt lat="46.61289" lon="5.54939">
        <ele>454</ele>
      </trkpt>
      <trkpt lat="46.61311" lon="5.54931">
        <ele>446.4</ele>
      </trkpt>
      <trkpt lat="46.61354" lon="5.54912">
        <ele>432.1</ele>
      </trkpt>
      <trkpt lat="46.61368" lon="5.54907">
        <ele>429</ele>
      </trkpt>
      <trkpt lat="46.61383" lon="5.54905">
        <ele>426.5</ele>
      </trkpt>
      <trkpt lat="46.61392" lon="5.54906">
        <ele>425.8</ele>
      </trkpt>
      <trkpt lat="46.61404" lon="5.54912">
        <ele>426.2</ele>
      </trkpt>
      <trkpt lat="46.6142" lon="5.54929">
        <ele>429.1</ele>
      </trkpt>
      <trkpt lat="46.61428" lon="5.54944">
        <ele>432.1</ele>
      </trkpt>
      <trkpt lat="46.61434" lon="5.54967">
        <ele>437.3</ele>
      </trkpt>
      <trkpt lat="46.6144" lon="5.55">
        <ele>444.5</ele>
      </trkpt>
      <trkpt lat="46.61467" lon="5.55114">
        <ele>459.5</ele>
      </trkpt>
      <trkpt lat="46.61477" lon="5.55145">
        <ele>463.3</ele>
      </trkpt>
      <trkpt lat="46.61485" lon="5.55164">
        <ele>465.7</ele>
      </trkpt>
      <trkpt lat="46.615" lon="5.55185">
        <ele>468</ele>
      </trkpt>
      <trkpt lat="46.6151" lon="5.55193">
        <ele>470.4</ele>
      </trkpt>
      <trkpt lat="46.61524" lon="5.55203">
        <ele>473.4</ele>
      </trkpt>
      <trkpt lat="46.61544" lon="5.55209">
        <ele>475.9</ele>
      </trkpt>
      <trkpt lat="46.6156" lon="5.55221">
        <ele>479.1</ele>
      </trkpt>
      <trkpt lat="46.6158" lon="5.55227">
        <ele>481.4</ele>
      </trkpt>
      <trkpt lat="46.61587" lon="5.55234">
        <ele>483.6</ele>
      </trkpt>
      <trkpt lat="46.61598" lon="5.55245">
        <ele>486.9</ele>
      </trkpt>
      <trkpt lat="46.61605" lon="5.55248">
        <ele>488.3</ele>
      </trkpt>
      <trkpt lat="46.61607" lon="5.55248">
        <ele>488.5</ele>
      </trkpt>
      <trkpt lat="46.61695" lon="5.55248">
        <ele>497.2</ele>
      </trkpt>
      <trkpt lat="46.61716" lon="5.55253">
        <ele>497.8</ele>
      </trkpt>
      <trkpt lat="46.61715" lon="5.5524">
        <ele>498.7</ele>
      </trkpt>
      <trkpt lat="46.61715" lon="5.55238">
        <ele>498.8</ele>
      </trkpt>
      <trkpt lat="46.61716" lon="5.55238">
        <ele>498.9</ele>
      </trkpt>
      <trkpt lat="46.61718" lon="5.55263">
        <ele>498.1</ele>
      </trkpt>
      <trkpt lat="46.61727" lon="5.55298">
        <ele>498.7</ele>
      </trkpt>
      <trkpt lat="46.61728" lon="5.55309">
        <ele>498.8</ele>
      </trkpt>
      <trkpt lat="46.61726" lon="5.55329">
        <ele>499.1</ele>
      </trkpt>
      <trkpt lat="46.61725" lon="5.55333">
        <ele>499.2</ele>
      </trkpt>
      <trkpt lat="46.61711" lon="5.55356">
        <ele>498.2</ele>
      </trkpt>
      <trkpt lat="46.61685" lon="5.55383">
        <ele>497.9</ele>
      </trkpt>
      <trkpt lat="46.61668" lon="5.55421">
        <ele>496.7</ele>
      </trkpt>
      <trkpt lat="46.61658" lon="5.55424">
        <ele>495.9</ele>
      </trkpt>
      <trkpt lat="46.61629" lon="5.55401">
        <ele>495</ele>
      </trkpt>
      <trkpt lat="46.61629" lon="5.55401">
        <ele>495</ele>
      </trkpt>
      <trkpt lat="46.61629" lon="5.55401">
        <ele>495</ele>
      </trkpt>
      <trkpt lat="46.61637" lon="5.55422">
        <ele>494.7</ele>
      </trkpt>
      <trkpt lat="46.61621" lon="5.5541">
        <ele>494</ele>
      </trkpt>
      <trkpt lat="46.61615" lon="5.55407">
        <ele>493.7</ele>
      </trkpt>
      <trkpt lat="46.61609" lon="5.55408">
        <ele>493.2</ele>
      </trkpt>
      <trkpt lat="46.61594" lon="5.55412">
        <ele>491.9</ele>
      </trkpt>
      <trkpt lat="46.61583" lon="5.55415">
        <ele>491.1</ele>
      </trkpt>
      <trkpt lat="46.61572" lon="5.55419">
        <ele>491.3</ele>
      </trkpt>
      <trkpt lat="46.61556" lon="5.5542">
        <ele>491.6</ele>
      </trkpt>
      <trkpt lat="46.61552" lon="5.55428">
        <ele>491.8</ele>
      </trkpt>
      <trkpt lat="46.61547" lon="5.55436">
        <ele>491.9</ele>
      </trkpt>
      <trkpt lat="46.61547" lon="5.55437">
        <ele>492</ele>
      </trkpt>
      <trkpt lat="46.61544" lon="5.55446">
        <ele>492.1</ele>
      </trkpt>
      <trkpt lat="46.61542" lon="5.55454">
        <ele>492.2</ele>
      </trkpt>
      <trkpt lat="46.61539" lon="5.55467">
        <ele>492.4</ele>
      </trkpt>
      <trkpt lat="46.61535" lon="5.55479">
        <ele>492.7</ele>
      </trkpt>
      <trkpt lat="46.61534" lon="5.55485">
        <ele>492.8</ele>
      </trkpt>
      <trkpt lat="46.6153" lon="5.55501">
        <ele>493.3</ele>
      </trkpt>
      <trkpt lat="46.61527" lon="5.55512">
        <ele>493.8</ele>
      </trkpt>
      <trkpt lat="46.61526" lon="5.55523">
        <ele>494.3</ele>
      </trkpt>
      <trkpt lat="46.61526" lon="5.55531">
        <ele>494.6</ele>
      </trkpt>
      <trkpt lat="46.61525" lon="5.55555">
        <ele>495.5</ele>
      </trkpt>
      <trkpt lat="46.61525" lon="5.55573">
        <ele>496.1</ele>
      </trkpt>
      <trkpt lat="46.61525" lon="5.55586">
        <ele>496.6</ele>
      </trkpt>
      <trkpt lat="46.61525" lon="5.55594">
        <ele>496.9</ele>
      </trkpt>
      <trkpt lat="46.61525" lon="5.55614">
        <ele>497.6</ele>
      </trkpt>
      <trkpt lat="46.61524" lon="5.55629">
        <ele>498.2</ele>
      </trkpt>
      <trkpt lat="46.61522" lon="5.55641">
        <ele>498.8</ele>
      </trkpt>
      <trkpt lat="46.6152" lon="5.55656">
        <ele>499.5</ele>
      </trkpt>
      <trkpt lat="46.61517" lon="5.55669">
        <ele>500.1</ele>
      </trkpt>
      <trkpt lat="46.61515" lon="5.55677">
        <ele>500.5</ele>
      </trkpt>
      <trkpt lat="46.61512" lon="5.5569">
        <ele>501.1</ele>
      </trkpt>
      <trkpt lat="46.61509" lon="5.55701">
        <ele>501.7</ele>
      </trkpt>
      <trkpt lat="46.61506" lon="5.55712">
        <ele>502.3</ele>
      </trkpt>
      <trkpt lat="46.61505" lon="5.55722">
        <ele>502.7</ele>
      </trkpt>
      <trkpt lat="46.61504" lon="5.55731">
        <ele>503.1</ele>
      </trkpt>
      <trkpt lat="46.61504" lon="5.55743">
        <ele>503.5</ele>
      </trkpt>
      <trkpt lat="46.61506" lon="5.55755">
        <ele>504.1</ele>
      </trkpt>
      <trkpt lat="46.61509" lon="5.55765">
        <ele>504.9</ele>
      </trkpt>
      <trkpt lat="46.61519" lon="5.55779">
        <ele>505.3</ele>
      </trkpt>
      <trkpt lat="46.61523" lon="5.55784">
        <ele>505.5</ele>
      </trkpt>
      <trkpt lat="46.61521" lon="5.55795">
        <ele>506.5</ele>
      </trkpt>
      <trkpt lat="46.61519" lon="5.55825">
        <ele>509.3</ele>
      </trkpt>
      <trkpt lat="46.61519" lon="5.55853">
        <ele>511.9</ele>
      </trkpt>
      <trkpt lat="46.61508" lon="5.55881">
        <ele>516.2</ele>
      </trkpt>
      <trkpt lat="46.615" lon="5.55901">
        <ele>519.3</ele>
      </trkpt>
      <trkpt lat="46.61497" lon="5.55906">
        <ele>519.8</ele>
      </trkpt>
      <trkpt lat="46.6149" lon="5.55916">
        <ele>520.8</ele>
      </trkpt>
      <trkpt lat="46.61487" lon="5.55919">
        <ele>520.9</ele>
      </trkpt>
      <trkpt lat="46.61478" lon="5.55926">
        <ele>520.9</ele>
      </trkpt>
      <trkpt lat="46.61476" lon="5.55929">
        <ele>521</ele>
      </trkpt>
      <trkpt lat="46.61471" lon="5.55941">
        <ele>521.3</ele>
      </trkpt>
      <trkpt lat="46.61468" lon="5.55948">
        <ele>521.4</ele>
      </trkpt>
      <trkpt lat="46.61465" lon="5.55953">
        <ele>521.6</ele>
      </trkpt>
      <trkpt lat="46.61461" lon="5.55954">
        <ele>521.6</ele>
      </trkpt>
      <trkpt lat="46.61444" lon="5.55948">
        <ele>521.5</ele>
      </trkpt>
      <trkpt lat="46.61436" lon="5.55945">
        <ele>521.4</ele>
      </trkpt>
      <trkpt lat="46.61426" lon="5.55943">
        <ele>521.3</ele>
      </trkpt>
      <trkpt lat="46.61418" lon="5.55943">
        <ele>521.3</ele>
      </trkpt>
      <trkpt lat="46.61401" lon="5.5595">
        <ele>521.7</ele>
      </trkpt>
      <trkpt lat="46.61392" lon="5.55953">
        <ele>522</ele>
      </trkpt>
      <trkpt lat="46.6137" lon="5.5596">
        <ele>522.3</ele>
      </trkpt>
      <trkpt lat="46.61363" lon="5.55962">
        <ele>522.4</ele>
      </trkpt>
      <trkpt lat="46.61344" lon="5.55965">
        <ele>522.5</ele>
      </trkpt>
      <trkpt lat="46.61329" lon="5.55968">
        <ele>522.6</ele>
      </trkpt>
      <trkpt lat="46.61317" lon="5.55967">
        <ele>522.6</ele>
      </trkpt>
      <trkpt lat="46.61313" lon="5.55964">
        <ele>522.6</ele>
      </trkpt>
      <trkpt lat="46.61309" lon="5.55962">
        <ele>522.5</ele>
      </trkpt>
      <trkpt lat="46.613" lon="5.55955">
        <ele>522.5</ele>
      </trkpt>
      <trkpt lat="46.61296" lon="5.55952">
        <ele>522.4</ele>
      </trkpt>
      <trkpt lat="46.61291" lon="5.55946">
        <ele>522.4</ele>
      </trkpt>
      <trkpt lat="46.61288" lon="5.55941">
        <ele>522.3</ele>
      </trkpt>
      <trkpt lat="46.61279" lon="5.55924">
        <ele>522.1</ele>
      </trkpt>
      <trkpt lat="46.61276" lon="5.5592">
        <ele>522</ele>
      </trkpt>
      <trkpt lat="46.61264" lon="5.5591">
        <ele>521.6</ele>
      </trkpt>
      <trkpt lat="46.61258" lon="5.55905">
        <ele>521.3</ele>
      </trkpt>
      <trkpt lat="46.61256" lon="5.559">
        <ele>521</ele>
      </trkpt>
      <trkpt lat="46.61253" lon="5.55894">
        <ele>520.6</ele>
      </trkpt>
      <trkpt lat="46.61251" lon="5.55887">
        <ele>520.2</ele>
      </trkpt>
      <trkpt lat="46.61247" lon="5.55877">
        <ele>519.7</ele>
      </trkpt>
      <trkpt lat="46.61245" lon="5.55871">
        <ele>519.3</ele>
      </trkpt>
      <trkpt lat="46.61245" lon="5.55867">
        <ele>519.1</ele>
      </trkpt>
      <trkpt lat="46.61245" lon="5.55871">
        <ele>519.3</ele>
      </trkpt>
      <trkpt lat="46.61247" lon="5.55877">
        <ele>519.7</ele>
      </trkpt>
      <trkpt lat="46.61251" lon="5.55887">
        <ele>520.2</ele>
      </trkpt>
      <trkpt lat="46.61253" lon="5.55894">
        <ele>520.6</ele>
      </trkpt>
      <trkpt lat="46.61256" lon="5.559">
        <ele>521</ele>
      </trkpt>
      <trkpt lat="46.61258" lon="5.55905">
        <ele>521.3</ele>
      </trkpt>
      <trkpt lat="46.61261" lon="5.55914">
        <ele>521.9</ele>
      </trkpt>
      <trkpt lat="46.61264" lon="5.55922">
        <ele>522.1</ele>
      </trkpt>
      <trkpt lat="46.61266" lon="5.5593">
        <ele>522.2</ele>
      </trkpt>
      <trkpt lat="46.61266" lon="5.55935">
        <ele>522.2</ele>
      </trkpt>
      <trkpt lat="46.61266" lon="5.55942">
        <ele>522.3</ele>
      </trkpt>
      <trkpt lat="46.61264" lon="5.5595">
        <ele>522.4</ele>
      </trkpt>
      <trkpt lat="46.61261" lon="5.55957">
        <ele>522.5</ele>
      </trkpt>
      <trkpt lat="46.61258" lon="5.55961">
        <ele>522.5</ele>
      </trkpt>
      <trkpt lat="46.61254" lon="5.55965">
        <ele>522.6</ele>
      </trkpt>
      <trkpt lat="46.61249" lon="5.5597">
        <ele>522.7</ele>
      </trkpt>
      <trkpt lat="46.61242" lon="5.55975">
        <ele>523</ele>
      </trkpt>
      <trkpt lat="46.61235" lon="5.5598">
        <ele>523.4</ele>
      </trkpt>
      <trkpt lat="46.6123" lon="5.55983">
        <ele>523.7</ele>
      </trkpt>
      <trkpt lat="46.61227" lon="5.55985">
        <ele>523.9</ele>
      </trkpt>
      <trkpt lat="46.61222" lon="5.55987">
        <ele>524.1</ele>
      </trkpt>
      <trkpt lat="46.61215" lon="5.55991">
        <ele>524.5</ele>
      </trkpt>
      <trkpt lat="46.61208" lon="5.55994">
        <ele>524.9</ele>
      </trkpt>
      <trkpt lat="46.61201" lon="5.55996">
        <ele>525.3</ele>
      </trkpt>
      <trkpt lat="46.6119" lon="5.55997">
        <ele>525.8</ele>
      </trkpt>
      <trkpt lat="46.61176" lon="5.55999">
        <ele>526.5</ele>
      </trkpt>
      <trkpt lat="46.61169" lon="5.56">
        <ele>526.9</ele>
      </trkpt>
      <trkpt lat="46.61162" lon="5.56001">
        <ele>527.2</ele>
      </trkpt>
      <trkpt lat="46.61156" lon="5.56005">
        <ele>527.4</ele>
      </trkpt>
      <trkpt lat="46.61151" lon="5.56009">
        <ele>527.4</ele>
      </trkpt>
      <trkpt lat="46.61131" lon="5.56034">
        <ele>527.3</ele>
      </trkpt>
      <trkpt lat="46.61127" lon="5.56038">
        <ele>527.3</ele>
      </trkpt>
      <trkpt lat="46.61118" lon="5.56045">
        <ele>527.5</ele>
      </trkpt>
      <trkpt lat="46.61112" lon="5.56056">
        <ele>527.4</ele>
      </trkpt>
      <trkpt lat="46.61096" lon="5.56085">
        <ele>527</ele>
      </trkpt>
      <trkpt lat="46.61083" lon="5.56112">
        <ele>527</ele>
      </trkpt>
      <trkpt lat="46.61076" lon="5.56122">
        <ele>527.1</ele>
      </trkpt>
      <trkpt lat="46.6107" lon="5.56134">
        <ele>527.2</ele>
      </trkpt>
      <trkpt lat="46.6105" lon="5.56166">
        <ele>527</ele>
      </trkpt>
      <trkpt lat="46.61043" lon="5.56176">
        <ele>527.8</ele>
      </trkpt>
      <trkpt lat="46.61033" lon="5.5619">
        <ele>528.9</ele>
      </trkpt>
      <trkpt lat="46.61018" lon="5.56207">
        <ele>530.2</ele>
      </trkpt>
      <trkpt lat="46.61014" lon="5.56217">
        <ele>530.7</ele>
      </trkpt>
      <trkpt lat="46.6101" lon="5.5623">
        <ele>531.2</ele>
      </trkpt>
      <trkpt lat="46.61004" lon="5.56245">
        <ele>531.8</ele>
      </trkpt>
      <trkpt lat="46.60999" lon="5.56256">
        <ele>533.2</ele>
      </trkpt>
      <trkpt lat="46.60994" lon="5.56269">
        <ele>535.9</ele>
      </trkpt>
      <trkpt lat="46.60991" lon="5.56285">
        <ele>539.1</ele>
      </trkpt>
      <trkpt lat="46.60989" lon="5.56306">
        <ele>542.8</ele>
      </trkpt>
      <trkpt lat="46.6099" lon="5.56319">
        <ele>545</ele>
      </trkpt>
      <trkpt lat="46.60984" lon="5.56327">
        <ele>547.2</ele>
      </trkpt>
      <trkpt lat="46.6105" lon="5.56361">
        <ele>548.5</ele>
      </trkpt>
      <trkpt lat="46.61118" lon="5.56411">
        <ele>552.1</ele>
      </trkpt>
      <trkpt lat="46.61115" lon="5.56432">
        <ele>552.8</ele>
      </trkpt>
      <trkpt lat="46.61061" lon="5.56432">
        <ele>555.6</ele>
      </trkpt>
      <trkpt lat="46.60914" lon="5.56394">
        <ele>565.6</ele>
      </trkpt>
      <trkpt lat="46.60757" lon="5.56355">
        <ele>581.4</ele>
      </trkpt>
      <trkpt lat="46.60531" lon="5.56366">
        <ele>617.2</ele>
      </trkpt>
      <trkpt lat="46.60424" lon="5.56378">
        <ele>623</ele>
      </trkpt>
      <trkpt lat="46.603" lon="5.5637">
        <ele>616.6</ele>
      </trkpt>
      <trkpt lat="46.60298" lon="5.56366">
        <ele>625.4</ele>
      </trkpt>
      <trkpt lat="46.60263" lon="5.56375">
        <ele>620.4</ele>
      </trkpt>
      <trkpt lat="46.60235" lon="5.56382">
        <ele>616.3</ele>
      </trkpt>
      <trkpt lat="46.60192" lon="5.56381">
        <ele>612.5</ele>
      </trkpt>
      <trkpt lat="46.60161" lon="5.56391">
        <ele>610.4</ele>
      </trkpt>
      <trkpt lat="46.60127" lon="5.56409">
        <ele>605.5</ele>
      </trkpt>
      <trkpt lat="46.60101" lon="5.56399">
        <ele>603.7</ele>
      </trkpt>
      <trkpt lat="46.60079" lon="5.56398">
        <ele>601.1</ele>
      </trkpt>
      <trkpt lat="46.60032" lon="5.56393">
        <ele>595.9</ele>
      </trkpt>
      <trkpt lat="46.59972" lon="5.5639">
        <ele>589.8</ele>
      </trkpt>
      <trkpt lat="46.59926" lon="5.56383">
        <ele>581.5</ele>
      </trkpt>
      <trkpt lat="46.59885" lon="5.56376">
        <ele>573.5</ele>
      </trkpt>
      <trkpt lat="46.59847" lon="5.56364">
        <ele>567.9</ele>
      </trkpt>
      <trkpt lat="46.59817" lon="5.56353">
        <ele>560.8</ele>
      </trkpt>
      <trkpt lat="46.59803" lon="5.56341">
        <ele>555.7</ele>
      </trkpt>
      <trkpt lat="46.59774" lon="5.56347">
        <ele>553.8</ele>
      </trkpt>
      <trkpt lat="46.59802" lon="5.56304">
        <ele>545.2</ele>
      </trkpt>
      <trkpt lat="46.59815" lon="5.56301">
        <ele>545.9</ele>
      </trkpt>
      <trkpt lat="46.5983" lon="5.56251">
        <ele>538</ele>
      </trkpt>
      <trkpt lat="46.59873" lon="5.56125">
        <ele>517.3</ele>
      </trkpt>
      <trkpt lat="46.59974" lon="5.56125">
        <ele>526.3</ele>
      </trkpt>
      <trkpt lat="46.60064" lon="5.56112">
        <ele>537.4</ele>
      </trkpt>
      <trkpt lat="46.60188" lon="5.56129">
        <ele>557</ele>
      </trkpt>
      <trkpt lat="46.60268" lon="5.56136">
        <ele>571.8</ele>
      </trkpt>
      <trkpt lat="46.60248" lon="5.56019">
        <ele>587.6</ele>
      </trkpt>
    </trkseg>
  </trk>
</gpx>